[[{"header":{"parameterUnit":"m.s-1","parameterCategory":1,"la1":30.6,"la2":29.2853,"lo1":-89.7004,"lo2":-87.6739,"dy":0.0162,"dx":0.0183,"nx":112,"ny":82,"refTime":"2023-08-25T00:00:00:Z","depth":0,"parameterNumber":2,"parameterNumberName":"U-component_of_WINDS"},"data":[0.0,0.0,0.0,0.0,0.0,0.0,0.0,0.0,0.0,0.0,0.0,0.0,0.0,0.0,0.0,0.0,0.0,0.0,0.0,0.0,0.0,0.0,0.0,0.0,0.0,0.0,0.0,0.0,0.0,0.0,0.0,0.0,0.0,0.0,0.0,0.0,0.0,0.0,0.0,0.0,0.0,0.0,0.0,0.0,0.0,0.0,0.0,0.0,0.0,0.0,0.0,0.0,0.0,0.0,0.0,0.0,0.0,0.0,0.0,0.0,0.0,0.0,0.0,0.0,0.0,0.0,0.0,0.0,0.0,0.0,0.0,0.0,0.0,0.0,0.0,0.0,0.0,0.0,0.0,0.0,0.0,0.0,0.0,0.0,0.0,0.0,0.0,0.0,0.0,0.0,-2.5976,-2.9387,-3.2757,-3.4969,-3.5553,-3.5507,-3.4796,-3.3299,0.0,0.0,0.0,0.0,0.0,0.0,0.0,0.0,0.0,0.0,0.0,0.0,0.0,0.0,0.0,0.0,0.0,0.0,0.0,0.0,0.0,0.0,0.0,0.0,0.0,0.0,0.0,0.0,0.0,0.0,0.0,0.0,0.0,0.0,0.0,0.0,0.0,0.0,0.0,0.0,0.0,0.0,0.0,0.0,0.0,0.0,0.0,0.0,0.0,0.0,0.0,0.0,0.0,0.0,0.0,0.0,0.0,0.0,0.0,0.0,0.0,0.0,0.0,0.0,0.0,0.0,0.0,0.0,0.0,0.0,0.0,0.0,0.0,0.0,0.0,0.0,0.0,0.0,0.0,0.0,0.0,0.0,0.0,0.0,0.0,0.0,0.0,0.0,0.0,0.0,0.0,0.0,0.0,0.0,0.0,0.0,0.0,0.0,0.0,0.0,0.0,0.0,0.0,0.0,-2.7385,-3.1416,-3.3658,-3.5066,-3.5563,-3.5627,-3.4957,-3.3296,0.0,0.0,0.0,0.0,0.0,0.0,0.0,0.0,0.0,0.0,0.0,0.0,0.0,0.0,0.0,0.0,0.0,0.0,0.0,0.0,0.0,0.0,0.0,0.0,0.0,0.0,0.0,0.0,0.0,0.0,0.0,0.0,0.0,0.0,0.0,0.0,0.0,0.0,0.0,0.0,0.0,0.0,0.0,0.0,0.0,0.0,0.0,0.0,0.0,0.0,0.0,0.0,0.0,0.0,0.0,0.0,0.0,0.0,0.0,0.0,0.0,0.0,0.0,0.0,0.0,0.0,0.0,0.0,0.0,0.0,0.0,0.0,0.0,0.0,0.0,0.0,0.0,0.0,0.0,0.0,0.0,0.0,0.0,0.0,0.0,0.0,0.0,0.0,0.0,0.0,0.0,0.0,0.0,0.0,0.0,0.0,0.0,0.0,0.0,0.0,0.0,0.0,0.0,-2.7297,-2.9192,-3.146,-3.3427,-3.4502,-3.4314,-3.4724,-3.4251,-3.2556,-3.1997,0.0,0.0,0.0,0.0,0.0,0.0,0.0,0.0,0.0,0.0,0.0,0.0,0.0,0.0,0.0,0.0,0.0,0.0,0.0,0.0,0.0,0.0,0.0,0.0,0.0,0.0,0.0,0.0,0.0,0.0,0.0,0.0,0.0,0.0,0.0,0.0,0.0,0.0,0.0,0.0,0.0,0.0,0.0,0.0,0.0,0.0,0.0,0.0,0.0,0.0,0.0,0.0,0.0,0.0,0.0,0.0,0.0,0.0,0.0,0.0,0.0,0.0,0.0,0.0,0.0,0.0,0.0,0.0,0.0,0.0,0.0,0.0,0.0,0.0,0.0,0.0,0.0,0.0,0.0,0.0,0.0,0.0,0.0,0.0,0.0,0.0,0.0,0.0,0.0,0.0,0.0,0.0,0.0,0.0,0.0,0.0,0.0,0.0,0.0,0.0,0.0,0.0,-2.9467,-3.0621,-3.1245,-3.2921,-3.3789,-3.327,-3.3756,-3.3437,-3.1919,-3.1373,0.0,0.0,0.0,0.0,0.0,0.0,0.0,0.0,0.0,0.0,0.0,0.0,0.0,0.0,0.0,0.0,0.0,0.0,0.0,0.0,0.0,0.0,0.0,0.0,0.0,0.0,0.0,0.0,0.0,0.0,0.0,0.0,0.0,0.0,0.0,0.0,0.0,0.0,0.0,0.0,0.0,0.0,0.0,0.0,0.0,0.0,0.0,0.0,0.0,0.0,0.0,0.0,0.0,0.0,0.0,0.0,0.0,0.0,0.0,0.0,0.0,0.0,0.0,0.0,0.0,0.0,0.0,0.0,0.0,0.0,0.0,0.0,0.0,0.0,0.0,0.0,0.0,0.0,0.0,0.0,0.0,0.0,0.0,0.0,0.0,0.0,0.0,0.0,0.0,0.0,0.0,0.0,0.0,0.0,0.0,0.0,0.0,0.0,0.0,0.0,0.0,0.0,-3.0034,-3.1105,-3.1542,-3.2474,-3.314,-3.3289,-3.3231,-3.283,-3.196,-3.1392,0.0,0.0,0.0,0.0,0.0,0.0,0.0,0.0,0.0,0.0,0.0,0.0,0.0,0.0,0.0,0.0,0.0,0.0,0.0,0.0,0.0,0.0,0.0,0.0,0.0,0.0,0.0,0.0,0.0,0.0,0.0,0.0,0.0,0.0,0.0,0.0,0.0,0.0,0.0,0.0,0.0,0.0,0.0,0.0,0.0,0.0,0.0,0.0,0.0,0.0,0.0,0.0,0.0,0.0,0.0,0.0,0.0,0.0,0.0,0.0,0.0,0.0,0.0,0.0,0.0,0.0,0.0,0.0,0.0,0.0,0.0,0.0,0.0,0.0,0.0,0.0,0.0,0.0,0.0,0.0,0.0,0.0,0.0,0.0,0.0,0.0,0.0,0.0,0.0,0.0,0.0,0.0,0.0,0.0,0.0,0.0,0.0,0.0,0.0,0.0,0.0,0.0,-2.9924,-3.0624,-3.0888,-3.1831,-3.2226,-3.1651,-3.2065,-3.196,-3.1023,0.0,0.0,0.0,0.0,0.0,0.0,0.0,0.0,0.0,0.0,0.0,0.0,0.0,0.0,0.0,0.0,0.0,0.0,0.0,0.0,0.0,0.0,0.0,0.0,0.0,0.0,0.0,0.0,0.0,0.0,0.0,0.0,0.0,0.0,0.0,0.0,0.0,0.0,0.0,0.0,0.0,0.0,0.0,0.0,0.0,0.0,0.0,0.0,0.0,0.0,0.0,0.0,0.0,0.0,0.0,0.0,0.0,0.0,0.0,0.0,0.0,0.0,0.0,0.0,0.0,0.0,0.0,0.0,0.0,0.0,0.0,0.0,0.0,0.0,0.0,0.0,0.0,0.0,0.0,0.0,0.0,0.0,0.0,0.0,0.0,0.0,0.0,0.0,0.0,0.0,0.0,0.0,0.0,0.0,0.0,0.0,0.0,0.0,0.0,0.0,0.0,0.0,-2.9364,-2.9945,-3.0356,-3.0506,-3.1227,-3.1406,-3.0693,-3.117,-3.12,-3.0477,0.0,0.0,0.0,0.0,0.0,0.0,0.0,0.0,0.0,0.0,0.0,0.0,0.0,0.0,0.0,0.0,0.0,0.0,0.0,0.0,0.0,0.0,0.0,0.0,0.0,0.0,0.0,0.0,0.0,0.0,0.0,0.0,0.0,0.0,0.0,0.0,0.0,0.0,0.0,0.0,0.0,0.0,0.0,0.0,0.0,0.0,0.0,0.0,0.0,0.0,0.0,0.0,0.0,0.0,0.0,0.0,0.0,0.0,0.0,0.0,0.0,0.0,0.0,0.0,0.0,0.0,0.0,0.0,0.0,0.0,0.0,0.0,0.0,0.0,0.0,0.0,0.0,0.0,0.0,0.0,0.0,0.0,0.0,0.0,0.0,0.0,0.0,0.0,0.0,0.0,0.0,0.0,0.0,0.0,0.0,0.0,0.0,0.0,0.0,0.0,0.0,0.0,-2.9748,-3.0201,-3.0529,-3.06,-3.0713,-3.0761,-3.0689,-3.0645,-3.0576,0.0,0.0,0.0,0.0,0.0,0.0,0.0,0.0,0.0,0.0,0.0,0.0,0.0,0.0,0.0,0.0,0.0,0.0,0.0,0.0,0.0,0.0,0.0,0.0,0.0,0.0,0.0,0.0,0.0,0.0,0.0,0.0,0.0,0.0,0.0,0.0,0.0,0.0,0.0,0.0,0.0,0.0,0.0,0.0,0.0,0.0,0.0,0.0,0.0,0.0,0.0,0.0,0.0,0.0,0.0,0.0,0.0,0.0,0.0,0.0,0.0,0.0,0.0,0.0,0.0,0.0,0.0,0.0,0.0,0.0,0.0,0.0,0.0,0.0,0.0,0.0,0.0,0.0,0.0,0.0,0.0,0.0,0.0,0.0,0.0,0.0,0.0,0.0,0.0,0.0,0.0,0.0,0.0,0.0,0.0,0.0,0.0,0.0,0.0,0.0,0.0,0.0,0.0,-3.0237,-3.049,-3.0667,-3.0735,-3.0721,-3.07,-3.0639,-3.0576,-3.0501,-3.0428,0.0,0.0,0.0,0.0,0.0,0.0,0.0,0.0,0.0,0.0,0.0,0.0,0.0,0.0,0.0,0.0,0.0,0.0,0.0,0.0,0.0,0.0,0.0,0.0,0.0,0.0,0.0,0.0,0.0,0.0,0.0,0.0,0.0,0.0,0.0,0.0,0.0,0.0,0.0,0.0,0.0,0.0,0.0,0.0,0.0,0.0,0.0,0.0,0.0,0.0,0.0,0.0,0.0,0.0,0.0,0.0,0.0,0.0,0.0,0.0,0.0,0.0,0.0,0.0,0.0,0.0,0.0,0.0,0.0,0.0,0.0,0.0,0.0,0.0,0.0,0.0,0.0,0.0,0.0,0.0,0.0,0.0,0.0,0.0,0.0,0.0,0.0,0.0,0.0,0.0,0.0,0.0,0.0,0.0,0.0,0.0,0.0,0.0,0.0,0.0,0.0,0.0,-3.0452,-3.0637,-3.0757,-3.0796,-3.0747,-3.0677,-3.06,-3.0535,-3.0472,-3.039,0.0,0.0,0.0,0.0,0.0,0.0,0.0,0.0,0.0,0.0,0.0,0.0,0.0,0.0,0.0,0.0,0.0,0.0,0.0,0.0,0.0,0.0,0.0,0.0,0.0,0.0,0.0,0.0,0.0,0.0,0.0,0.0,0.0,0.0,0.0,0.0,0.0,0.0,0.0,0.0,0.0,0.0,0.0,0.0,0.0,0.0,0.0,0.0,0.0,0.0,0.0,0.0,0.0,0.0,0.0,0.0,0.0,0.0,0.0,0.0,0.0,0.0,0.0,0.0,0.0,0.0,0.0,0.0,0.0,0.0,0.0,0.0,0.0,0.0,0.0,0.0,0.0,0.0,0.0,0.0,0.0,0.0,0.0,0.0,0.0,0.0,0.0,0.0,0.0,0.0,0.0,0.0,0.0,0.0,0.0,0.0,0.0,0.0,0.0,0.0,0.0,0.0,-3.0496,-3.0676,-3.0793,-3.0799,-3.0723,-3.0653,-3.0593,-3.0527,-3.0462,-3.039,0.0,0.0,0.0,0.0,0.0,0.0,0.0,0.0,0.0,0.0,0.0,0.0,0.0,0.0,0.0,0.0,0.0,0.0,0.0,0.0,0.0,0.0,0.0,0.0,0.0,0.0,0.0,0.0,0.0,0.0,0.0,0.0,0.0,0.0,0.0,0.0,0.0,0.0,0.0,0.0,0.0,0.0,0.0,0.0,0.0,0.0,0.0,0.0,0.0,0.0,0.0,0.0,0.0,0.0,0.0,0.0,0.0,0.0,0.0,0.0,-3.5839,0.0,0.0,0.0,0.0,0.0,0.0,0.0,0.0,0.0,0.0,0.0,0.0,0.0,0.0,0.0,0.0,0.0,0.0,0.0,0.0,0.0,0.0,0.0,0.0,0.0,0.0,0.0,0.0,0.0,0.0,0.0,0.0,0.0,0.0,0.0,0.0,0.0,0.0,0.0,0.0,0.0,-3.0642,-3.0735,-3.0781,-3.0735,-3.0658,-3.0593,-3.0518,-3.0451,-3.0414,-3.041,-3.0099,0.0,0.0,0.0,0.0,0.0,0.0,0.0,0.0,0.0,0.0,0.0,0.0,0.0,0.0,0.0,0.0,0.0,0.0,0.0,0.0,0.0,0.0,0.0,0.0,0.0,0.0,0.0,0.0,0.0,0.0,0.0,0.0,0.0,0.0,0.0,0.0,0.0,0.0,0.0,0.0,0.0,0.0,0.0,0.0,0.0,0.0,0.0,0.0,0.0,0.0,0.0,0.0,0.0,0.0,0.0,0.0,0.0,0.0,0.0,0.0,-3.8906,0.0,0.0,0.0,0.0,0.0,0.0,0.0,0.0,0.0,0.0,0.0,0.0,0.0,0.0,0.0,0.0,0.0,0.0,0.0,0.0,0.0,0.0,0.0,0.0,0.0,0.0,0.0,0.0,0.0,0.0,0.0,0.0,0.0,0.0,0.0,0.0,0.0,0.0,0.0,0.0,-3.1261,-3.1046,-3.0814,-3.0712,-3.0645,-3.0564,-3.051,-3.0439,-3.0398,-3.0398,-3.0161,0.0,0.0,0.0,0.0,0.0,0.0,0.0,0.0,0.0,0.0,0.0,0.0,0.0,0.0,0.0,0.0,0.0,0.0,0.0,0.0,0.0,0.0,0.0,0.0,0.0,0.0,0.0,0.0,0.0,0.0,0.0,0.0,0.0,0.0,0.0,0.0,0.0,0.0,0.0,0.0,0.0,0.0,0.0,0.0,0.0,0.0,0.0,0.0,0.0,0.0,0.0,0.0,0.0,-4.4361,-4.5019,-4.5341,-4.5629,-4.5745,-4.5586,-4.3798,-4.2822,-4.2427,-4.2143,0.0,0.0,0.0,0.0,0.0,0.0,0.0,0.0,0.0,0.0,0.0,0.0,0.0,0.0,0.0,0.0,0.0,0.0,0.0,0.0,0.0,0.0,0.0,0.0,-3.5687,-3.5057,0.0,0.0,0.0,0.0,0.0,0.0,0.0,0.0,0.0,0.0,0.0,0.0,-3.1726,-3.1268,-3.0838,-3.0696,-3.0639,-3.0576,-3.0482,-3.0428,-3.0398,-3.0398,-3.0209,-3.0109,0.0,0.0,0.0,0.0,0.0,0.0,0.0,0.0,0.0,0.0,0.0,0.0,0.0,0.0,0.0,0.0,0.0,0.0,0.0,0.0,0.0,0.0,0.0,0.0,0.0,0.0,0.0,0.0,0.0,0.0,0.0,0.0,-1.2104,-1.6788,0.0,0.0,0.0,0.0,0.0,0.0,0.0,0.0,0.0,0.0,0.0,0.0,0.0,-4.2229,-4.4258,-4.5182,-4.5841,-4.6271,-4.7886,-4.7956,-4.6706,-4.8159,-4.8115,-4.6907,-4.735,0.0,-4.4001,-4.4839,0.0,0.0,0.0,0.0,0.0,0.0,0.0,0.0,0.0,0.0,0.0,0.0,0.0,0.0,0.0,0.0,0.0,0.0,0.0,0.0,0.0,0.0,-3.7927,-3.6738,-3.6441,-3.6361,0.0,-3.4453,-3.3362,-3.4205,-3.341,0.0,0.0,0.0,0.0,0.0,0.0,0.0,-3.1028,-3.0917,-3.083,-3.0626,-3.06,-3.0552,-3.0425,-3.041,-3.0398,-3.0398,-3.0209,-3.0109,-3.0109,-3.0075,0.0,0.0,0.0,0.0,0.0,0.0,0.0,0.0,0.0,0.0,0.0,0.0,0.0,0.0,0.0,0.0,0.0,0.0,0.0,0.0,0.0,0.0,0.0,0.0,0.0,0.0,0.0,0.0,0.0,-1.4604,-1.9886,-2.2232,-2.5606,-2.8237,0.0,0.0,0.0,0.0,0.0,0.0,0.0,0.0,0.0,-4.3773,-4.3522,-4.4228,-4.6119,-4.6583,-4.6881,-4.7093,-4.834,-4.8574,-4.7874,-4.8613,-4.8574,-4.7951,-4.8349,-4.7534,-4.5937,-4.5958,-4.4997,-4.3489,0.0,0.0,0.0,0.0,-4.2712,-4.2399,-4.3324,-4.3054,0.0,-4.1421,0.0,0.0,0.0,0.0,0.0,0.0,0.0,0.0,0.0,0.0,-3.8654,-3.7623,-3.6978,-3.6598,-3.6603,-3.5518,-3.4789,0.0,-3.5641,-3.5168,-3.3982,0.0,0.0,0.0,0.0,-3.2606,-3.2243,-3.1833,-3.1328,-3.0672,-3.0593,-3.0543,-3.0402,-3.0398,-3.0398,-3.0398,-3.0209,-3.0109,-3.0109,-3.0109,-3.0136,0.0,0.0,0.0,0.0,0.0,0.0,0.0,0.0,0.0,0.0,0.0,0.0,0.0,0.0,0.0,0.0,0.0,0.0,0.0,0.0,0.0,0.0,0.0,0.0,0.0,0.0,0.0,0.0,-2.14,-2.5879,-2.7173,-3.0753,-3.3181,0.0,0.0,0.0,0.0,0.0,0.0,-4.159,-4.1995,-4.3265,-4.5738,-4.5332,-4.5822,-4.7396,-4.7272,-4.7245,-4.7366,-4.7788,-4.7891,-4.7696,-4.7911,-4.7774,-4.7365,-4.7579,-4.7176,-4.6376,-4.6404,-4.5917,-4.5097,-4.4434,-4.4192,-4.4285,-4.4943,-4.4763,-4.4382,-4.5674,-4.5396,-4.4278,-4.3128,0.0,-4.1368,-3.9124,0.0,0.0,0.0,0.0,-3.9196,-3.8656,-3.8556,-3.8395,-3.7633,-3.6732,-3.6052,-3.6052,-3.5669,-3.5521,0.0,-3.6717,-3.6542,-3.5018,0.0,0.0,0.0,0.0,-3.3222,-3.3027,-3.2256,-3.1449,-3.0685,-3.0579,-3.0537,-3.0402,-3.0398,-3.0398,-3.0398,-3.0254,-3.015,-3.0089,-3.015,-3.0182,-3.0196,0.0,0.0,0.0,0.0,0.0,0.0,0.0,0.0,0.0,0.0,0.0,0.0,0.0,0.0,0.0,0.0,0.0,0.0,0.0,0.0,0.0,0.0,0.0,0.0,0.0,0.0,0.0,0.0,0.0,-3.2484,-3.5398,0.0,0.0,0.0,0.0,-3.8594,-3.9742,-4.1162,-4.2734,-4.3124,-4.4428,-4.6848,-4.7067,-4.7595,-4.851,-4.7825,-4.7479,-4.7483,-4.6752,-4.5976,-4.5214,-4.6035,-4.5507,-4.3984,-4.4824,-4.4687,-4.4061,-4.6318,-4.6794,-4.612,-4.6081,-4.6102,-4.6152,-4.6211,-4.6165,-4.6081,-4.6163,-4.5046,-4.3694,-4.4501,-4.3127,-4.0962,-4.0008,-3.9667,0.0,0.0,-3.9687,-3.9666,-3.9626,-3.8419,-3.6985,-3.6114,-3.5237,-3.4613,-3.4613,-3.4574,-3.4767,0.0,-3.5126,-3.49,-3.5607,0.0,-3.4514,-3.4584,-3.3864,-3.3027,-3.2253,-3.1344,-3.073,-3.06,-3.0543,-3.0482,-3.041,-3.0398,-3.0398,-3.0398,-3.0398,-3.0299,-3.0109,-3.0267,-3.0323,-3.0216,-3.0375,0.0,0.0,0.0,0.0,0.0,0.0,0.0,0.0,0.0,0.0,0.0,0.0,0.0,0.0,0.0,0.0,0.0,0.0,0.0,0.0,0.0,0.0,0.0,0.0,0.0,0.0,0.0,0.0,-3.6966,-3.8606,0.0,-3.9547,-3.9647,-4.0214,-4.1443,-4.2512,-4.386,-4.5589,-4.5823,-4.6569,-4.7972,-4.7086,-4.6738,-4.7045,-4.5726,-4.5053,-4.5055,-4.4765,-4.4433,-4.4112,-4.4425,-4.4201,-4.3591,-4.3907,-4.3868,-4.3634,-4.4501,-4.4724,-4.4529,-4.4479,-4.4484,-4.4493,-4.4493,-4.4481,-4.4474,-4.4505,-4.41,-4.3535,-4.3359,-4.2304,-4.0957,-4.0117,-3.9843,-3.9724,-3.918,-3.8978,-3.8671,-3.7592,-3.6838,-3.5978,-3.4585,-3.3593,-3.2968,-3.2968,-3.2957,-3.3039,-3.33,-3.4005,-3.4673,-3.5032,-3.4823,-3.4648,-3.4666,-3.441,-3.368,-3.2221,-3.1733,-3.1279,-3.061,-3.05,-3.0472,-3.041,-3.0398,-3.0398,-3.0398,-3.0398,-3.0367,-3.0299,-3.0355,-3.0379,-3.0336,-3.0964,-3.1028,0.0,0.0,0.0,0.0,0.0,0.0,0.0,0.0,0.0,0.0,0.0,0.0,0.0,0.0,0.0,0.0,0.0,0.0,0.0,0.0,0.0,0.0,0.0,0.0,0.0,-3.5399,-3.8216,-3.9301,-4.0703,-4.137,-4.0685,-4.0903,-4.155,-4.2665,-4.3637,-4.4695,-4.5881,-4.6025,-4.632,-4.6879,-4.5902,-4.5358,-4.5327,-4.3652,-4.2809,-4.2783,-4.2199,-4.1897,-4.1858,-4.1858,-4.1822,-4.1785,-4.1785,-4.1785,-4.1779,-4.176,-4.1779,-4.191,-4.3058,-4.3494,-4.3494,-4.3494,-4.3494,-4.3422,-4.2905,-4.252,-4.2158,-4.1342,-4.0687,-4.0125,-3.9617,-3.9465,-3.9331,-3.8758,-3.8142,-3.7402,-3.6288,-3.5312,-3.4332,-3.3222,-3.2305,-3.166,-3.166,-3.1659,-3.1655,-3.1655,-3.2792,-3.3867,-3.4197,-3.4014,-3.4025,-3.4615,-3.42,-3.3487,-3.2567,-3.1904,-3.1262,-3.0577,-3.0482,-3.0449,-3.039,-3.0398,-3.0398,-3.0398,-3.0398,-3.0398,-3.0398,-3.039,-3.0402,-3.0433,-3.1295,-3.1607,-3.1347,0.0,0.0,0.0,0.0,0.0,0.0,0.0,0.0,0.0,0.0,0.0,0.0,0.0,0.0,0.0,0.0,0.0,0.0,0.0,0.0,0.0,0.0,0.0,-3.5543,-3.7914,-3.9656,-3.9643,-4.18,-4.2427,-4.0174,-4.1863,-4.2811,-4.2141,-4.2911,-4.3442,-4.35,-4.3524,-4.3548,-4.3567,-4.357,-4.3552,-4.3473,-4.1833,-4.0996,-4.0908,-3.9213,-3.8394,-3.8394,-3.8394,-3.8389,-3.8389,-3.8389,-3.8389,-3.8383,-3.8307,-3.8294,-3.8633,-4.2026,-4.3338,-4.3338,-4.3338,-4.3338,-4.3104,-4.1455,-4.0318,-3.9493,-3.8688,-3.8413,-3.8427,-3.8465,-3.8472,-3.8474,-3.8446,-3.7214,-3.5906,-3.5896,-3.4003,-3.209,-3.207,-3.1407,-3.0801,-3.0801,-3.0782,-3.0762,-3.0762,-3.1426,-3.2265,-3.3163,-3.2617,-3.2617,-3.4295,-3.3105,0.0,-3.3035,-3.1592,-3.0486,-3.0433,-3.0381,-3.0359,-3.0359,-3.0379,-3.0398,-3.0398,-3.0398,-3.0398,-3.0398,-3.0394,-3.0466,-3.0576,-3.1369,-3.2218,-3.3034,0.0,0.0,0.0,0.0,0.0,0.0,0.0,0.0,0.0,0.0,0.0,0.0,0.0,0.0,0.0,0.0,0.0,0.0,0.0,0.0,0.0,-3.743,-3.8999,-3.8507,-3.9952,-4.141,-4.2366,-4.1776,-4.1311,-4.1354,-4.0885,-4.1034,-4.2093,-4.1869,-4.2236,-4.3509,-4.2488,-4.2126,-4.2712,-4.1562,-4.0915,-4.0857,-3.9764,-3.9181,-3.9115,-3.8628,-3.8371,-3.8335,-3.8335,-3.8294,-3.8258,-3.8258,-3.8258,-3.8258,-3.8246,-3.8236,-3.8313,-3.9275,-3.9664,-3.9664,-3.9664,-3.9694,-3.956,-3.8482,-3.7962,-3.7678,-3.6869,-3.6606,-3.6493,-3.5884,-3.5695,-3.5581,-3.5001,-3.4474,-3.3966,-3.3339,-3.2636,-3.1934,-3.1309,-3.0977,-3.0801,-3.0801,-3.0333,-2.9923,-2.9923,-2.9611,-2.9806,-3.127,-3.1328,-3.1114,-3.1016,-3.0554,0.0,-2.9588,-2.905,-2.87,-2.8627,-2.9124,-2.9467,-2.9467,-3.0044,-3.0398,-3.0398,-3.0398,-3.0398,-3.0398,-3.039,-3.0991,-3.2278,-3.1923,-3.2463,0.0,0.0,0.0,0.0,0.0,0.0,0.0,0.0,0.0,0.0,0.0,0.0,0.0,0.0,0.0,0.0,0.0,0.0,0.0,0.0,0.0,0.0,-3.9574,-4.0591,-4.0907,-4.1629,-4.2158,-4.2259,-4.1242,-4.0488,-4.0358,-3.9621,-3.9559,-4.0569,-4.0246,-4.0281,-4.0928,-4.0428,-4.0156,-4.0254,-3.9647,-3.9285,-3.9213,-3.8317,-3.7845,-3.7774,-3.7424,-3.7245,-3.7211,-3.6842,-3.6648,0.0,-3.6226,-3.6265,-3.6613,-3.6613,-3.6772,0.0,0.0,0.0,0.0,0.0,-3.747,-3.7094,-3.6212,-3.5693,-3.5339,-3.4905,-3.4762,-3.467,-3.4165,-3.4014,-3.3916,-3.3448,-3.3059,-3.2654,-3.2186,-3.1799,-3.1393,-3.0916,-3.0801,-3.0704,-3.0372,-2.9916,-2.9442,-2.9087,-2.859,0.0,-2.9028,-2.9448,-2.967,-2.9538,-2.9167,-2.8835,-2.8623,-2.8249,-2.7969,-2.7911,-2.8621,-2.9102,-2.9102,-2.991,0.0,0.0,0.0,-3.041,-3.0402,-3.0748,0.0,0.0,0.0,-3.3441,-3.4809,0.0,0.0,0.0,-3.7004,-3.8316,0.0,0.0,0.0,0.0,0.0,0.0,0.0,0.0,0.0,0.0,0.0,0.0,0.0,0.0,0.0,0.0,-4.0382,-4.1224,-4.2419,-4.2637,-4.211,-4.0626,-4.0294,-3.9605,-3.8097,-3.802,-3.8063,-3.8065,-3.8044,-3.7754,-3.7187,0.0,0.0,0.0,0.0,-3.789,-3.7806,-3.6993,-3.6532,-3.6458,-3.5742,-3.5414,-3.5364,-3.4591,-3.4212,-3.4163,-3.3379,-3.3476,-3.4202,-3.4202,-3.4557,-3.5235,-3.6916,-3.7654,-3.7622,-3.6861,-3.6068,-3.5267,-3.4408,0.0,0.0,-3.2912,-3.2897,-3.2905,-3.2889,-3.2902,-3.2921,-3.2914,-3.2356,-3.178,-3.1835,-3.1266,-3.0691,-3.0765,-3.0713,-3.044,-2.972,-2.939,-2.8977,-2.8193,-2.7901,-2.7556,-2.6786,-2.742,-2.8257,-2.8876,-2.8294,-2.8048,-2.8775,-2.8169,-2.7661,-2.7612,0.0,0.0,-2.8948,-2.9756,-3.0314,-3.0379,-3.0398,-3.0402,-3.0406,-3.1234,-3.2112,-3.2979,-3.3795,-3.4629,-3.5493,-3.5493,-3.5911,-3.6699,-3.6968,-3.7968,0.0,0.0,0.0,0.0,0.0,0.0,0.0,0.0,0.0,0.0,0.0,0.0,0.0,0.0,0.0,-4.0389,-4.1773,-4.2387,-4.1345,-4.1229,-4.1151,-4.0761,-3.8933,-3.7342,-3.6434,-3.5747,-3.5376,-3.5428,-3.4805,-3.4941,-3.6191,-3.5078,-3.4647,-3.5185,-3.4671,-3.4328,-3.4204,-3.4027,-3.3893,-3.3817,0.0,0.0,-3.3441,-3.3268,-3.3141,-3.3015,-3.2861,-3.2881,-3.3034,-3.3034,-3.3024,-3.3151,-3.4942,-3.527,-3.4717,-3.4661,-3.4122,-3.3318,-3.2578,-3.2203,-3.1952,-3.1255,-3.1023,-3.1033,-3.1086,-3.1103,0.0,-3.1091,-3.0989,-3.0853,-3.0866,-3.075,-3.062,-3.0633,-3.0133,-2.9627,-2.9471,-2.8318,-2.7262,-2.7107,-2.6487,-2.5932,-2.5703,-2.6456,-2.6887,-2.6345,-2.6061,-2.5979,-2.6138,-2.5955,-2.5813,-2.5793,-2.6563,-2.7371,-2.8063,-2.8871,-2.964,-3.0359,-3.0398,-3.041,-3.039,-3.1249,-3.2076,-3.2904,-3.3769,-3.4622,-3.5493,-3.5493,-3.5911,-3.6699,-3.693,-3.7572,0.0,0.0,0.0,0.0,0.0,0.0,0.0,0.0,0.0,0.0,0.0,-3.6077,-3.7655,0.0,-3.952,-4.0542,-4.0761,-4.0642,-4.0203,-3.9419,-3.8926,-3.8988,-3.7481,-3.6157,-3.5363,-3.4505,-3.4001,-3.4043,-3.3652,-3.3594,-3.4062,-3.365,-3.339,-3.34,-3.3329,-3.3276,-3.3204,-3.3175,-3.3122,-3.3102,-3.3102,-3.3029,-3.2884,-3.2442,-3.2173,-3.2029,-3.1594,-3.1651,-3.2072,-3.2416,-3.249,-3.2481,-3.3296,-3.3406,-3.3124,-3.2843,-3.2492,-3.2039,-3.1314,-3.1039,-3.0992,-3.0626,-3.0491,-3.0491,-3.0501,-3.0501,-3.0511,-3.0492,-3.0501,-3.051,-3.0543,-3.0552,-3.0463,-3.0081,-2.9687,-2.9162,-2.8294,-2.7395,-2.6611,-2.6178,-2.5716,-2.5398,-2.5348,-2.5738,-2.5906,-2.5472,-2.5374,-2.5339,-2.5339,-2.5322,-2.5303,-2.5303,-2.6082,-2.6774,-2.7217,-2.839,-2.9294,-2.9717,-3.016,-3.0198,-2.9775,-3.1006,-3.1891,-3.2295,-3.3545,-3.441,-3.4853,-3.5295,-3.5718,-3.6103,-3.6237,-3.6784,0.0,0.0,0.0,0.0,0.0,0.0,0.0,-2.8057,-3.1049,-3.3296,-3.4968,-3.6647,-3.8697,-3.8659,-3.8782,-4.0208,-3.9364,-3.8588,-3.8767,-3.7572,-3.6648,-3.6484,-3.5962,-3.5248,-3.4296,-3.3554,-3.3086,-3.293,-3.291,-3.2637,-3.1952,-3.2549,-3.2556,-3.1838,-3.2357,-3.2648,-3.2632,-3.257,-3.2527,-3.2527,-3.2527,-3.2451,-3.2288,-3.1597,-3.1211,-3.1028,-3.0327,-3.0422,-3.1108,-3.1646,-3.1879,-3.1861,-3.1713,-3.1732,-3.182,-3.147,-3.1245,-3.103,-3.0471,-3.0283,-3.0306,-3.0378,-3.0419,-3.0419,-3.0321,-3.0182,-3.0105,-3.0297,-3.0239,-3.0167,-3.0423,-3.0356,-3.0085,-2.9474,-2.9082,-2.8461,-2.7064,-2.6595,-2.621,-2.5526,-2.534,-2.5284,-2.5264,-2.5274,-2.5303,-2.5303,-2.5303,-2.5303,-2.5303,-2.5303,-2.5303,-2.5303,-2.5928,-2.6428,-2.6582,-2.7986,-2.8871,-2.8871,-2.9525,-2.9571,-2.8848,-3.034,-3.1186,-3.1162,-3.2667,-3.3545,-3.3718,-3.443,-3.4853,-3.5007,-3.5087,-3.5708,-0.6435,-0.906,-1.2445,-1.6414,-1.9803,-2.324,0.0,-3.0703,-3.3086,-3.5301,-3.6898,-3.8207,-3.918,-3.9584,-3.972,-3.9568,-3.9451,-3.8617,-3.65,-3.6093,-3.5468,-3.4,-3.4326,-3.4053,-3.2541,-3.2309,-3.1945,-3.123,-3.1172,-3.1112,-3.0962,-3.1036,-3.0989,-3.0782,-3.0726,-3.0685,-3.064,-3.0497,-3.045,-3.045,-3.045,-3.0367,-3.0219,-3.0124,-3.0023,-2.9888,-2.9793,-2.9793,-2.9906,-2.9982,-3.0001,-3.0001,-2.9983,-2.9983,-3.0076,-3.0856,-3.0679,-3.0067,-3.0118,-3.0196,-3.0271,-3.0122,-3.0136,-3.0203,-3.0007,-2.9471,-2.9064,-2.9904,-2.9633,-2.9289,-3.0186,-2.9836,-2.925,-2.9145,-2.8009,-2.6853,-2.666,-2.6015,-2.5418,-2.5322,-2.5313,-2.5264,-2.5149,-2.5233,-2.5303,-2.5303,-2.5303,-2.5303,-2.5303,-2.5303,-2.5303,-2.5303,-2.538,-2.5774,-2.6524,-2.7486,-2.8025,-2.8025,-2.8121,-2.8057,-2.7778,-2.8806,-2.9325,-2.9225,-3.0266,-3.1218,-3.1987,-3.2083,-3.2487,-3.3179,-3.331,-3.4274,-0.7715,-0.9991,-1.2777,-1.6254,-1.9625,-2.3035,-2.6544,-2.9618,-3.2133,-3.4038,-3.5391,-3.6549,-3.7551,-3.7373,-3.7211,-3.7536,-3.723,-3.644,-3.5063,-3.4897,-3.4292,-3.2652,-3.274,-3.2698,-3.2101,-3.1578,-3.1152,-3.0813,-3.0777,-3.0771,-3.0735,-3.0691,-3.065,-3.06,-3.0424,-3.0332,-3.0306,-3.0171,-3.0109,-3.0109,-3.0109,-3.0022,-2.9888,-2.9888,-2.9842,-2.9701,-2.9701,-2.9701,-2.9701,-2.9701,-2.9701,-2.9701,-2.9701,-2.9701,-2.9757,-3.0132,-3.0073,-2.9808,-2.9953,-3.0007,-3.0066,-3.0007,-3.0037,-2.9971,-2.938,-2.8973,-2.8685,-2.857,-2.8294,-2.8117,-2.8534,-2.8376,-2.7994,-2.7517,-2.6936,-2.6351,-2.5833,-2.5493,-2.5293,-2.5192,-2.5182,-2.516,-2.5115,-2.5091,-2.5091,-2.5171,-2.5182,-2.5203,-2.5303,-2.5233,-2.5203,-2.5284,-2.5233,-2.5546,-2.6408,-2.6811,-2.7022,-2.7022,-2.7462,-2.7477,-2.6931,-2.7682,-2.8082,-2.8027,-2.9002,-2.9717,-3.0062,-3.0662,-3.1391,-3.2199,-3.2259,-3.2996,-0.8529,-1.0218,-1.2326,-1.5925,-1.9222,-2.2294,-2.504,-2.7944,-3.0499,-3.192,-3.3323,-3.452,-3.5279,-3.5308,-3.5312,-3.5608,-3.5472,-3.4955,-3.3916,-3.3763,-3.325,-3.1929,-3.1786,-3.1835,-3.191,-3.1187,-3.0697,-3.0691,-3.0691,-3.0682,-3.0667,-3.0626,-3.0605,-3.0603,-3.0372,-3.0247,-3.0247,-3.008,-2.9996,-2.9996,-2.9927,-2.9851,-2.977,-2.9716,-2.9645,-2.9531,-2.9531,-2.9492,-2.9414,-2.9492,-2.9492,-2.9434,-2.9512,-2.9531,-2.9531,-2.9531,-2.9569,-2.9626,-2.9736,-2.9751,-2.9731,-2.9448,-2.9439,-2.9355,-2.8414,-2.8001,-2.7786,-2.7453,-2.7184,-2.7051,-2.7323,-2.7243,-2.6921,-2.6332,-2.6097,-2.5831,-2.5237,-2.5149,-2.5171,-2.516,-2.5126,-2.5103,-2.5049,-2.4987,-2.4949,-2.4994,-2.4987,-2.5043,-2.516,-2.5103,-2.5091,-2.5171,-2.5103,-2.5304,-2.5933,-2.599,-2.599,-2.599,-2.6524,-2.6568,-2.5958,-2.6436,-2.6683,-2.6658,-2.7404,-2.7937,-2.8205,-2.8931,-2.9759,-3.066,-3.066,-3.1061,-0.823,-0.9643,-1.1581,-1.6097,-1.8912,-2.1252,-2.4104,-2.6583,-2.8519,-2.9491,-3.1337,-3.2743,-3.2697,-3.439,-3.5404,-3.4255,-3.5087,-3.5116,-3.2953,-3.2637,-3.2403,-3.1788,-3.1767,-3.1777,-3.1719,-3.1106,-3.0703,-3.07,-3.0696,-3.0667,-3.06,-3.0593,-3.0595,-3.0607,-3.0285,-3.0109,-3.0109,-2.9839,-2.9701,-2.9701,-2.9512,-2.9433,-2.9412,-2.9212,-2.9107,-2.9126,-2.9126,-2.8975,-2.8748,-2.902,-2.8956,-2.8772,-2.902,-2.9126,-2.9126,-2.9126,-2.9251,-2.9412,-2.9412,-2.9415,-2.9229,-2.8138,-2.8027,-2.8147,-2.7019,-2.6262,-2.5985,-2.6943,-2.6599,-2.6177,-2.7142,-2.6826,-2.6219,-2.62,-2.556,-2.4974,-2.508,-2.4987,-2.4994,-2.5243,-2.5182,-2.5049,-2.4929,-2.5,-2.5019,-2.4749,-2.4723,-2.4764,-2.4902,-2.4915,-2.4915,-2.4915,-2.4915,-2.4915,-2.4953,-2.4953,-2.4953,-2.4953,-2.4972,-2.4903,-2.476,-2.4908,-2.4908,-2.4779,-2.4946,-2.5494,-2.6479,-2.651,-2.7029,-2.8025,-2.8025,-2.8106,-0.712,-0.8441,-1.025,-1.3369,-1.5745,-1.7807,-1.9849,-2.218,-2.4134,-2.5087,-2.6329,-2.7583,-2.8683,-2.9477,-3.0335,-3.15,-3.2602,-3.2871,-3.1651,-3.1939,-3.1989,-3.1248,-3.1385,-3.1537,-3.1557,-3.1477,-3.1167,-3.0549,-3.0501,-3.0453,-3.0342,-3.0332,-3.0317,-3.0273,-2.9935,-2.9777,-2.9777,-2.9456,-2.9293,-2.9293,-2.9042,-2.8929,-2.8929,-2.864,-2.8506,-2.8506,-2.8506,-2.8431,-2.8373,-2.8474,-2.8431,-2.8399,-2.8474,-2.8506,-2.8506,-2.8506,-2.8154,-2.7816,-2.8857,-2.8817,-2.8294,-2.7996,-2.7594,-2.7081,-2.6246,-2.5857,-2.567,-2.5461,-2.5198,-2.5047,-2.5394,-2.5279,-2.5073,-2.5073,-2.4929,-2.4779,-2.4818,-2.4874,-2.4902,-2.4902,-2.4861,-2.4818,-2.4779,-2.4734,-2.4657,-2.4582,-2.4719,-2.4823,-2.4779,-2.4847,-2.4902,-2.4902,-2.4818,-2.4764,-2.4764,-2.4764,-2.4764,-2.4764,-2.4764,-2.4749,-2.4707,-2.466,-2.4613,-2.4566,-2.4707,-2.4984,-2.5399,-2.5487,-2.6052,-2.7044,-2.7044,-2.743,-0.5774,-0.7522,-0.881,-1.1283,-1.2787,-1.4213,-1.5882,-1.7843,-1.9633,-2.0795,-2.2069,-2.3365,-2.474,-2.5664,-2.6771,-2.8381,-3.0041,-3.0849,-3.008,-3.0742,-3.1094,-3.056,-3.0748,-3.1032,-3.135,-3.1469,-3.1237,-3.0567,-3.0747,-3.0733,-3.034,-3.0241,-3.0171,-3.015,-2.9689,-2.9458,-2.9458,-2.9012,-2.8669,-2.8451,-2.8276,-2.8094,-2.7905,-2.7692,-2.7606,-2.7606,-2.7606,-2.7502,-2.7414,-2.7531,-2.7502,-2.7432,-2.7549,-2.743,-2.7229,-2.7229,-2.6697,-2.6178,-2.7725,-2.7664,-2.6879,-2.6745,-2.633,-2.5786,-2.5124,-2.4964,-2.4911,-2.4395,-2.4247,-2.4247,-2.4247,-2.4247,-2.4247,-2.4247,-2.4321,-2.4407,-2.4524,-2.4604,-2.4651,-2.4746,-2.4719,-2.4707,-2.4707,-2.4599,-2.45,-2.45,-2.4645,-2.4719,-2.4629,-2.4704,-2.4764,-2.4764,-2.4692,-2.4631,-2.4631,-2.4631,-2.4631,-2.4631,-2.4631,-2.4631,-2.4631,-2.4551,-2.45,-2.45,-2.4582,-2.4719,-2.4902,-2.4994,-2.5413,-2.614,-2.614,-2.6513,-0.3801,-0.6447,-0.7346,-0.9599,-1.0274,-1.0727,-1.2328,-1.3737,-1.516,-1.6749,-1.8483,-2.0019,-2.0901,-2.281,-2.4447,-2.4942,-2.7408,-2.8936,-2.8104,-2.8883,-2.9497,-2.9453,-2.9522,-2.9909,-3.0677,-3.0694,-3.0582,-3.0414,0.0,-3.132,-3.0499,-3.0266,-3.0157,-3.0157,-2.9474,-2.9128,-2.9128,-2.8433,-2.7786,-2.7225,-2.7178,-2.6905,-2.6421,-2.6387,-2.6387,-2.6387,-2.6387,-2.6216,-2.5933,-2.62,-2.6149,-2.5884,-2.6168,-2.5881,-2.5338,-2.5338,-2.4879,-2.4454,-2.5981,-2.5932,-2.5084,-2.4453,-2.4325,-2.4277,-2.3636,-2.3602,-2.3756,-2.3756,-2.3756,-2.3774,-2.3795,-2.3795,-2.3795,-2.3795,-2.3795,-2.3901,-2.421,-2.4174,-2.4247,-2.4737,-2.4731,-2.4642,-2.4642,-2.4566,-2.4482,-2.4482,-2.4482,-2.4482,-2.4482,-2.4482,-2.4482,-2.4465,-2.4446,-2.4482,-2.4482,-2.4482,-2.4482,-2.45,-2.45,-2.45,-2.45,-2.45,-2.45,-2.45,-2.4517,-2.4645,-2.4902,-2.4915,-2.5043,-2.5303,-2.5303,-2.5374,0.2872,-0.1388,-0.5259,-0.5755,-0.6839,-0.8032,-0.8766,-1.0162,-1.1549,-1.2907,-1.327,-1.3947,-1.6057,-1.6885,-1.8189,-2.0962,-2.3091,-2.425,-2.3947,-2.4461,-2.4735,-2.4411,-2.4386,-2.4462,-2.463,-2.545,-2.6016,-2.6219,-2.867,-3.0042,-2.9786,-2.9716,-2.9626,-2.9514,-2.87,-2.8236,-2.8236,-2.7018,-2.6319,-2.6168,-2.5563,-2.5232,-2.5094,-2.4821,-2.4736,-2.4736,-2.4736,-2.4658,-2.4563,-2.4182,-2.3992,-2.3885,-2.3496,-2.3287,-2.3127,-2.3127,-2.263,-2.2075,-2.2489,-2.3088,-2.3636,-2.3584,-2.3273,-2.2937,-2.287,-2.3053,-2.3275,-2.3275,-2.3275,-2.3315,-2.3526,-2.3566,-2.361,-2.3756,-2.3795,-2.3819,-2.3903,-2.3901,-2.3921,-2.406,-2.4041,-2.402,-2.402,-2.3999,-2.4019,-2.4192,-2.4058,-2.4019,-2.4173,-2.4192,-2.4135,-2.3979,-2.3979,-2.4039,-2.4192,-2.4192,-2.4303,-2.4482,-2.45,-2.45,-2.45,-2.45,-2.45,-2.45,-2.4599,-2.4734,-2.4902,-2.4987,-2.5138,-2.5303,-2.5303,-2.5374,0.922,0.442,0.0118,-0.0059,-0.2248,-0.4486,-0.499,-0.597,-0.7015,-0.7917,-0.8807,-0.9803,-1.0959,-1.1767,-1.3089,-1.5592,-1.7022,-1.7732,-1.7546,-1.7295,-1.702,-1.6739,-1.642,-1.6459,-1.7142,-1.7742,-1.8337,-1.8922,-2.4436,-2.7967,-2.8466,-2.8275,-2.813,-2.8012,-2.7274,-2.6656,-2.6135,-2.5082,-2.443,-2.4233,-2.3239,-2.2642,-2.2455,-2.1716,-2.1335,-2.1201,0.0,-2.1105,-2.0968,-2.0628,-2.0486,-2.0444,-2.0104,-1.9792,-1.9565,-1.9565,-1.9089,-1.8486,-1.8503,-1.9141,-2.0104,-2.1439,-2.1617,-2.1335,-2.168,-2.1938,-2.2136,-2.2295,-2.2365,-2.2418,-2.272,-2.2813,-2.288,-2.3153,-2.3093,-2.3034,-2.3305,-2.331,-2.3397,-2.3735,-2.3795,-2.3795,-2.3795,-2.3795,-2.3837,-2.3959,-2.3878,-2.3816,-2.3837,-2.3901,-2.3939,-2.3816,-2.3795,-2.3858,-2.3959,-2.3979,-2.4078,-2.4321,-2.4321,-2.4393,-2.45,-2.45,-2.45,-2.45,-2.4566,-2.4704,-2.4902,-2.4981,-2.5115,-2.5303,-2.5303,-2.5374,1.5343,1.0563,0.6961,0.6614,0.3511,0.0305,-0.0546,-0.1268,-0.1995,-0.2889,-0.4781,-0.6199,-0.5728,-0.6872,-0.8266,-0.9242,-0.9993,-1.0346,-0.9993,-0.8741,-0.7859,-0.7972,-0.6888,-0.6793,-0.8627,-0.8631,-0.8964,-0.9966,-1.7637,-2.3143,-2.5224,-2.4913,-2.4679,-2.4747,-2.4389,-2.3639,-2.2526,-2.2001,-2.1535,-2.1142,-1.9948,-1.9193,-1.8856,-1.7784,-1.7145,-1.695,-1.7003,0.0,-1.6575,-1.6504,-1.6468,-1.6456,-1.6385,-1.5962,-1.5484,-1.5484,-1.508,-1.4572,-1.4666,-1.4923,-1.5711,-1.8579,-1.9446,-1.9486,-2.0053,-2.0268,-2.0365,-2.0862,-2.0972,-2.1082,-2.1497,-2.1602,-2.1736,-2.2181,-2.2005,-2.191,-2.2478,-2.2565,-2.2728,-2.3477,-2.3628,-2.3606,-2.3566,-2.3588,-2.3628,-2.361,-2.3628,-2.3562,-2.344,-2.3602,-2.3753,-2.371,-2.371,-2.3732,-2.3753,-2.3753,-2.3858,-2.4058,-2.4078,-2.4192,-2.4429,-2.4446,-2.4446,-2.45,-2.4517,-2.4645,-2.4874,-2.4888,-2.5031,-2.5264,-2.5264,-2.5346,2.1092,1.6564,1.2203,1.282,1.1096,0.8586,0.6164,0.4611,0.2879,-0.0174,-0.0368,-0.0187,-0.0552,-0.1009,-0.1562,-0.2329,-0.3482,-0.3939,-0.3081,-0.0716,0.0391,-0.1053,0.2144,0.3411,0.0726,0.0646,-0.0,-0.186,-0.4304,-0.8623,-1.5283,-1.5531,-1.5676,-1.6079,-1.6536,-1.628,-1.5331,-1.5415,-1.5316,-1.51,-1.4356,-1.4055,-1.4101,-1.4053,-1.4073,-1.4107,-1.4346,0.0,-1.4337,-1.3829,-1.3628,-1.3549,-1.307,-1.2785,-1.2679,-1.2679,-1.2513,-1.2292,-1.2463,-1.2383,-1.2606,-1.5444,-1.6822,-1.7289,-1.7209,-1.7351,-1.7748,-1.8512,-1.8739,-1.8971,-1.9931,-2.0164,-2.0313,-2.0956,-2.1035,-2.1129,-2.1543,-2.1852,-2.2141,-2.2634,-2.2721,-2.2634,-2.2307,-2.252,-2.2695,-2.2574,-2.266,-2.2764,-2.2915,-2.3289,-2.3463,-2.3247,-2.3223,-2.3301,-2.3531,-2.3553,-2.3642,-2.3837,-2.3858,-2.3959,-2.4154,-2.4173,-2.4266,-2.45,-2.4615,-2.4692,-2.4734,-2.4847,-2.4975,-2.5138,-2.5138,-2.5264,2.6464,2.2539,1.8397,1.8406,1.5869,1.2879,1.1022,1.0147,0.9182,0.7324,0.6811,0.6841,0.7233,0.7876,0.7898,0.6504,0.6101,0.6284,0.716,0.9287,1.0548,1.0024,1.1664,1.2113,1.0314,0.9841,0.8803,0.6776,0.6135,0.1484,-0.8565,-0.9234,-0.9513,-0.9859,-1.0223,-1.0498,-1.0694,-1.0147,-1.012,-1.0692,-0.902,-0.8249,-0.8312,-0.8058,-0.7877,-0.781,-0.8233,0.0,-0.9327,-0.9037,-0.9422,-1.0267,-0.9951,-0.989,-0.9723,-0.8714,-0.8283,-0.8214,-0.8111,-0.8105,-0.8379,-0.9684,-1.1875,-1.4005,-1.4393,-1.4633,-1.4943,-1.5928,-1.616,-1.6406,-1.7377,-1.7609,-1.7941,-1.9155,-1.9794,-2.0208,-2.0572,-2.0895,-2.1332,-2.1816,-2.1919,-2.189,-2.1665,-2.1816,-2.1903,-2.1848,-2.2029,-2.222,-2.2307,-2.2704,-2.2977,-2.2944,-2.3045,-2.3151,-2.3271,-2.3295,-2.3394,-2.3642,-2.3642,-2.3732,-2.3939,-2.3941,-2.4058,-2.4303,-2.4374,-2.4476,-2.4707,-2.4764,-2.4902,-2.5096,-2.5096,-2.5216,2.9965,2.716,2.4138,2.3535,2.0443,1.7202,1.5741,1.5269,1.4869,1.3939,1.294,1.2644,1.3972,1.5097,1.5415,1.4091,1.432,1.5035,1.6097,1.7824,1.903,1.9198,1.9461,1.9119,1.7855,1.6944,1.5817,1.4352,1.3601,0.8688,-0.1683,-0.2762,-0.3221,-0.3707,-0.3831,-0.4478,-0.5699,-0.4805,-0.4862,-0.5861,-0.3772,-0.2828,-0.291,-0.2422,-0.2066,-0.186,-0.2419,0.0,0.0,-0.4025,-0.4811,-0.6126,-0.6126,-0.6126,-0.5955,-0.4429,-0.3857,-0.3877,-0.3672,-0.3844,-0.4158,-0.4168,-0.6879,-1.0279,-1.102,-1.142,-1.1789,-1.2771,-1.3292,-1.379,-1.4624,-1.4951,-1.5435,-1.6997,-1.8138,-1.8943,-1.9343,-1.9732,-2.0242,-2.0863,-2.1068,-2.1116,-2.1022,-2.1163,-2.1241,-2.1163,-2.1442,-2.1668,-2.1668,-2.1982,-2.2298,-2.2517,-2.285,-2.3045,-2.3045,-2.3095,-2.3175,-2.3412,-2.3412,-2.3508,-2.3732,-2.3732,-2.3837,-2.402,-2.4078,-2.4266,-2.4578,-2.466,-2.4818,-2.5068,-2.5103,-2.5215,2.9491,2.8738,2.8107,2.8142,2.6711,2.4511,2.1624,1.9848,1.8008,1.518,1.4654,1.5061,1.6282,1.6215,1.6363,1.7504,1.7156,1.7485,1.9681,2.1561,2.2253,2.1024,2.3045,2.3455,2.0715,1.9433,1.8907,1.9226,1.6598,1.2824,0.7864,0.6519,0.5437,0.4371,0.3736,0.3013,0.2078,0.1659,0.1244,0.0891,0.1389,0.1393,0.0896,0.079,0.0669,0.057,0.0221,0.0,0.0,-0.0108,-0.0216,-0.0379,-0.0379,-0.0379,-0.0325,-0.0162,-0.0213,-0.0365,-0.0537,-0.064,-0.0788,-0.1027,-0.3444,-0.6295,-0.6295,-0.6957,-0.7875,-0.8696,-1.0021,-1.1381,-1.2216,-1.2812,-1.3506,-1.453,-1.5783,-1.6991,-1.774,-1.8236,-1.8711,-1.9531,-1.9982,-2.01,-1.9814,-2.0364,-2.073,-2.0364,-2.0663,-2.0909,-2.0909,-2.1086,-2.1352,-2.1672,-2.2392,-2.2842,-2.2842,-2.2977,-2.3119,-2.3144,-2.3144,-2.3247,-2.3526,-2.3526,-2.362,-2.3816,-2.4019,-2.4135,-2.4173,-2.451,-2.4779,-2.4929,-2.5037,-2.5215,2.9075,2.8824,2.8518,2.7925,2.6766,2.5293,2.3474,2.2061,2.0703,1.9274,1.9126,1.9468,2.0109,2.0193,2.0431,2.1319,2.1182,2.1429,2.2732,2.3282,2.3503,2.3388,2.367,2.3405,2.226,2.121,2.0297,1.9541,1.7536,1.5433,1.3362,1.1686,1.0371,0.9475,0.8714,0.7723,0.6351,0.6469,0.6014,0.4957,0.585,0.6032,0.5613,0.514,0.4946,0.4835,0.4331,0.0,0.0,0.3715,0.4005,0.4416,0.4416,0.4416,0.4303,0.3463,0.3217,0.3135,0.2627,0.2507,0.2485,0.2409,0.1471,-0.0054,-0.2324,-0.3579,-0.4341,-0.499,-0.5958,-0.7043,-0.8274,-1.0176,-1.1838,-1.2196,-1.3367,-1.462,-1.5538,-1.5849,-1.6212,-1.7143,-1.7885,-1.8289,-1.8177,-1.9059,-1.9732,-1.9551,-2.0035,-2.0429,-2.0429,-2.073,-2.0958,-2.1119,-2.1803,-2.2347,-2.2605,-2.2816,-2.2919,-2.2919,-2.3028,-2.3151,-2.3247,-2.3247,-2.3371,-2.362,-2.3816,-2.3979,-2.4116,-2.4493,-2.4764,-2.4902,-2.5043,-2.5192,2.8572,2.847,2.8281,2.7242,2.6006,2.4847,2.4115,2.2971,2.1995,2.1728,2.1694,2.1767,2.2059,2.2295,2.2539,2.2954,2.314,2.3496,2.4264,2.4054,2.4139,2.4823,2.3787,2.2915,2.2714,2.1538,2.03,1.9102,1.7899,1.7051,1.6718,1.5026,1.3598,1.2537,1.189,1.0808,0.9312,0.9603,0.9125,0.7921,0.8933,0.9183,0.8778,0.8435,0.8218,0.8218,0.7782,0.0,0.0,0.7138,0.7354,0.7709,0.7709,0.7601,0.7383,0.6386,0.5991,0.5937,0.5529,0.5354,0.5291,0.5186,0.519,0.4624,0.1801,0.0164,-0.0819,-0.1416,-0.2511,-0.3776,-0.5008,-0.7425,-0.9525,-0.9525,-1.088,-1.2416,-1.317,-1.3598,-1.4033,-1.4887,-1.574,-1.6372,-1.6372,-1.7571,-1.8521,-1.8521,-1.9214,-1.9737,-1.9859,-2.012,-2.0361,-2.0613,-2.1086,-2.1639,-2.2186,-2.2436,-2.2571,-2.2712,-2.2893,-2.302,-2.302,-2.307,-2.3223,-2.3486,-2.3707,-2.3899,-2.4116,-2.4524,-2.4823,-2.4902,-2.508,-2.5214,2.7927,2.7814,2.7879,2.6945,2.5444,2.4143,2.3869,2.2619,2.1493,2.1417,2.1039,2.0805,2.1157,2.1295,2.138,2.1614,2.2008,2.2739,2.3936,2.4033,2.4236,2.4906,2.3829,2.2736,2.206,2.015,1.8837,1.863,1.7918,0.0,1.8064,1.6799,1.5297,1.3523,1.3024,1.2239,1.1166,1.0795,1.0387,0.9961,1.0261,1.0151,0.9784,0.9931,0.9982,0.0,0.0,0.0,0.0,0.9974,0.9629,0.9176,0.9176,0.8883,0.8374,0.8368,0.8084,0.7694,0.7966,0.7794,0.741,0.7101,0.6999,0.6891,0.6308,0.4613,0.2732,0.2144,-0.0055,-0.2356,-0.2995,-0.4724,-0.6362,-0.6362,-0.832,-1.0378,-1.0839,-1.1688,-1.2474,-1.2949,-1.3793,-1.4418,-1.4418,-1.5966,-1.7208,-1.7208,-1.7946,-1.8669,-1.9064,-1.9101,-1.942,-2.0139,-2.0208,-2.0599,-2.1521,-2.1786,-2.2079,-2.247,-2.2685,-2.2816,-2.2816,-2.2977,-2.3223,-2.3486,-2.3707,-2.3899,-2.4116,-2.4632,-2.4902,-2.4915,-2.516,-2.5321,2.7504,2.7417,2.7242,2.6149,2.4911,2.3753,2.28,2.1446,2.0348,2.0158,1.9844,1.9693,1.9914,2.0309,2.0656,2.0767,2.1219,2.1618,2.1746,2.176,2.1786,2.1916,2.1261,2.0513,1.9819,1.9062,1.8673,1.8711,1.8426,1.8203,1.811,1.7264,1.6168,1.4842,1.4232,1.3532,1.2861,1.2716,1.2463,1.2033,1.2239,1.1895,1.1149,1.1308,1.1166,0.0,0.0,0.0,0.0,1.0399,0.9946,0.9228,0.9577,0.9176,0.8421,0.8823,0.8915,0.8901,0.9058,0.9162,0.9214,0.9214,0.9013,0.8758,0.86,0.6684,0.4406,0.3808,0.2201,0.0604,0.0438,-0.1527,-0.3496,-0.3496,-0.4785,-0.6284,-0.7501,-0.8015,-0.8693,-1.0354,-1.1416,-1.2109,-1.2474,-1.4056,-1.5282,-1.5282,-1.6606,-1.7666,-1.7785,-1.8039,-1.8419,-1.8968,-1.9014,-1.9519,-2.091,-2.143,-2.1761,-2.1882,-2.2343,-2.2659,-2.279,-2.2868,-2.3003,-2.3223,-2.3602,-2.3837,-2.3899,-2.4567,-2.4975,-2.519,-2.5253,-2.5303,2.6432,2.652,2.6404,2.5107,2.3878,2.2762,2.1834,2.0635,1.9702,1.9515,1.9365,1.9205,1.9182,1.972,2.0093,1.9925,2.0404,2.0755,2.0818,2.1031,2.1082,2.0879,2.0243,1.9436,1.8558,1.8323,1.8317,1.8556,1.8592,1.855,1.8493,1.7839,1.7148,1.6432,1.5093,1.4233,1.3905,1.3716,1.3457,1.3236,1.3341,1.3044,1.2307,1.2463,1.2286,0.0,0.0,0.0,0.0,1.1484,1.0973,1.0312,1.0661,1.0261,0.9503,0.9858,0.9858,0.9806,1.0108,1.032,1.0379,1.0466,1.0218,0.9814,0.9666,0.8053,0.6225,0.5837,0.4515,0.3252,0.3252,0.1317,-0.0604,-0.0604,-0.2027,-0.3558,-0.4523,-0.54,-0.6386,-0.7793,-0.8982,-0.9957,-1.0487,-1.1974,-1.3227,-1.3594,-1.4966,-1.607,-1.6435,-1.6822,-1.7274,-1.7946,-1.826,-1.8873,-2.005,-2.0731,-2.115,-2.1291,-2.1853,-2.2215,-2.2337,-2.2561,-2.2825,-2.3091,-2.3387,-2.361,-2.3795,-2.4385,-2.4858,-2.5214,-2.5214,-2.5253,0.0,2.531,2.5424,2.4004,2.2618,2.1476,2.1194,2.0347,0.0,1.9538,1.9462,1.928,1.8888,1.9394,1.9712,1.9266,1.9724,2.036,2.0998,2.1546,2.1703,2.1302,2.0328,1.9243,1.8109,1.7807,1.7814,1.8189,1.845,1.8745,1.9101,1.8475,1.8122,1.8104,1.5823,1.457,1.4541,1.3996,1.3716,1.3716,1.3858,1.3705,1.3314,1.3409,1.3286,0.0,0.0,0.0,0.0,1.2881,1.2578,1.2076,1.2126,1.1769,1.1209,1.1259,1.0956,1.0608,1.1167,1.1267,1.1099,1.1074,1.072,1.0269,0.9791,0.8894,0.8006,0.7947,0.6768,0.5475,0.542,0.386,0.2259,0.2259,0.0165,-0.1811,-0.1866,-0.3566,-0.5112,-0.5221,-0.6582,-0.7841,-0.8442,-0.9775,-1.1105,-1.2094,-1.303,-1.4003,-1.498,-1.5425,-1.5979,-1.6907,-1.7718,-1.8416,-1.8884,-1.9717,-2.0361,-2.0728,-2.126,-2.1552,-2.1582,-2.2158,-2.2634,-2.3069,-2.3117,-2.3369,-2.3858,-2.4137,-2.4591,-2.5096,-2.5096,-2.5171,2.5487,0.0,2.4489,2.4406,2.3258,2.2185,0.0,2.1475,2.0509,1.981,1.951,1.936,1.9157,1.9265,1.9551,1.9813,2.0703,2.1255,2.0991,2.0831,2.024,1.8975,1.8621,1.8067,1.6997,1.7151,1.7598,1.824,1.8344,1.8669,1.9302,1.8687,1.8312,1.8243,1.719,1.6325,1.5713,1.5085,1.4743,1.4731,1.4891,1.4708,1.4291,1.4082,1.3752,0.0,0.0,0.0,1.2881,1.2881,1.2578,1.2126,1.2529,1.2067,1.1259,1.1719,1.1819,1.1719,1.1909,1.2116,1.2224,1.181,1.161,1.1358,1.068,0.9872,0.9131,0.8712,0.7953,0.7202,0.6794,0.5579,0.4529,0.4529,0.3366,0.1986,0.121,-0.011,-0.149,-0.2745,-0.4283,-0.5554,-0.6152,-0.797,-0.9363,-0.9622,-1.113,-1.2445,-1.3087,-1.3512,-1.4106,-1.5126,-1.5936,-1.6599,-1.7164,-1.9045,-2.0243,-2.0361,-2.0763,-2.1182,-2.1582,-2.1861,-2.2303,-2.2859,-2.3212,-2.3656,-2.4173,-2.4244,-2.4591,-2.5096,-2.5096,-2.5171,2.4925,2.4807,2.4759,2.4572,2.3447,2.2295,2.21,2.1282,2.0316,1.9619,1.9641,1.9725,1.9496,1.9812,2.0213,2.0325,2.1027,2.1642,2.1705,2.1224,2.0401,1.914,1.8597,1.792,0.0,1.7203,1.772,1.8266,1.8447,1.8808,1.9376,1.9051,1.8833,1.8765,1.8118,1.7371,1.6583,1.6203,1.5862,1.5546,1.5631,1.5295,1.4581,1.4501,1.4212,0.0,0.0,0.0,1.32,1.2978,1.2735,1.248,1.2783,1.252,1.2017,1.2323,1.2323,1.2126,1.2264,1.252,1.2715,1.2501,1.2393,1.2258,1.1509,1.0864,1.0242,0.9525,0.902,0.8547,0.8031,0.7213,0.6445,0.619,0.5206,0.421,0.3643,0.2208,0.0663,-0.044,-0.198,-0.3526,-0.4845,-0.6093,-0.7239,-0.8224,-0.9496,-1.0554,-1.1115,-1.1957,-1.2782,-1.3543,-1.462,-1.5612,-1.6536,-1.7956,-1.9067,-1.9645,-2.0224,-2.073,-2.1197,-2.1507,-2.1953,-2.2659,-2.3091,-2.357,-2.4062,-2.4209,-2.4545,-2.5,-2.5061,-2.5203,2.4463,2.5136,2.5577,2.4747,2.3481,2.2379,2.1944,2.1032,2.0127,1.9707,2.0038,2.0348,2.0057,2.0618,2.108,2.0885,2.1308,2.1921,2.2677,2.2024,2.1075,2.0141,1.9033,0.0,1.7227,1.7499,1.7882,1.8187,1.8602,1.8997,1.9339,1.9413,1.9413,1.9339,1.8783,1.8135,1.7445,1.7207,1.675,1.6086,1.6086,1.5616,1.4673,1.4674,1.4536,1.4258,0.0,0.0,1.3668,1.3296,1.3113,1.3113,1.3113,1.3065,1.3017,1.3017,1.2676,1.2274,1.2529,1.2715,1.2852,1.2929,1.2967,1.2851,1.2027,1.1617,1.1184,1.021,0.9738,0.9415,0.8908,0.8429,0.796,0.7402,0.6465,0.5692,0.5588,0.3969,0.2314,0.1712,0.0331,-0.1433,-0.3528,-0.4078,-0.495,-0.7074,-0.7894,-0.8593,-0.9377,-1.0551,-1.1598,-1.2269,-1.3465,-1.4756,-1.5997,-1.6738,-1.7572,-1.864,-1.9522,-2.0243,-2.0745,-2.1135,-2.1691,-2.247,-2.2883,-2.3346,-2.3795,-2.4155,-2.4516,-2.4902,-2.5043,-2.5215,2.6398,2.6749,2.6411,2.4957,2.397,2.3422,2.3759,2.2836,2.1862,2.1601,2.1313,2.1125,2.1301,2.1067,2.1119,2.1861,2.2496,2.2952,2.3089,2.201,2.0729,1.9274,0.0,1.7706,1.7094,1.7295,1.7584,1.7882,1.8305,1.8745,1.9139,1.9472,1.9632,1.9574,1.9321,1.9144,1.8967,1.7719,1.675,1.6086,1.6086,1.5727,1.5017,1.4754,1.4605,1.4617,0.0,1.4129,1.4212,1.4118,1.4071,1.4071,1.4071,1.3847,1.3478,1.3478,1.32,1.2783,1.2929,1.3055,1.3122,1.289,1.2929,1.2773,1.1668,1.1501,1.1486,1.0394,0.9714,0.9235,0.8696,0.8711,0.8718,0.818,0.7771,0.7368,0.6907,0.5747,0.459,0.399,0.2595,0.1047,-0.0277,-0.1654,-0.313,-0.4841,-0.5608,-0.6689,-0.8652,-0.9131,-0.985,-1.1301,-1.2278,-1.3117,-1.381,-1.5592,-1.6789,-1.6957,-1.8405,-1.9681,-2.0583,-2.1244,-2.179,-2.2303,-2.2848,-2.3346,-2.3795,-2.4155,-2.4516,-2.4902,-2.5043,-2.5215,2.5077,2.5318,2.5206,2.4101,2.4449,2.4958,2.4511,2.3639,2.2665,2.1864,2.1703,2.1606,2.1317,2.175,2.2322,2.2983,2.3078,2.3066,2.3066,2.1788,2.0558,0.0,0.0,1.789,1.7441,1.7388,1.7515,1.7801,0.0,0.0,1.9064,1.9131,1.9131,1.9055,1.8918,1.8847,1.8753,1.836,1.7828,1.7173,1.6809,1.6298,1.5648,1.5169,1.5017,1.513,0.0,1.4628,1.472,1.4398,1.4305,1.4305,1.4305,1.4165,1.3978,1.3978,1.3847,1.3621,1.3536,1.3573,1.36,1.3228,1.3228,1.3148,1.2148,1.1845,1.1667,1.0891,1.0378,0.9819,0.9108,0.9033,0.9011,0.8495,0.8119,0.7765,0.7515,0.6725,0.5882,0.5275,0.4133,0.2819,0.1437,-0.0,-0.1325,-0.2646,-0.4075,-0.5391,-0.6421,-0.7841,-0.9086,-0.9865,-1.1074,-1.215,-1.286,-1.4114,-1.568,-1.7518,-1.8521,-1.9361,-2.0039,-2.0536,-2.1194,-2.2074,-2.246,-2.3094,-2.3906,-2.4279,-2.4655,-2.5,-2.5149,-2.5293,2.3643,2.3866,2.408,2.3592,2.4659,2.561,2.4643,2.3916,2.3192,2.2393,2.2297,2.2129,2.1528,2.231,2.3152,2.3574,2.3405,2.3188,2.3003,2.1704,2.0625,2.0155,1.9,1.8034,1.7696,1.7452,1.7461,1.772,0.0,0.0,1.872,1.8508,1.8376,1.8406,1.8258,1.819,1.815,1.8491,1.8465,1.8085,1.758,1.6903,1.6076,1.5676,1.5452,1.5424,1.5142,1.5096,1.5198,1.4812,1.4628,1.4628,1.4628,1.4582,1.449,1.4351,1.4305,1.4258,1.3999,1.3988,1.4071,1.3647,1.361,1.3569,1.2645,1.2139,1.1808,1.1325,1.0929,1.054,0.9729,0.9504,0.935,0.874,0.8353,0.81,0.7872,0.7425,0.6833,0.6144,0.5496,0.4481,0.287,0.1773,0.0722,-0.0721,-0.2375,-0.375,-0.4529,-0.6484,-0.8059,-0.8718,-0.9969,-1.1225,-1.2541,-1.3042,-1.4642,-1.7666,-1.8521,-1.9051,-1.9464,-1.9943,-2.0686,-2.1753,-2.2255,-2.2994,-2.4007,-2.4398,-2.4771,-2.5096,-2.5243,-2.5374,2.3922,2.4022,2.4229,2.4365,2.4298,2.4221,2.4309,2.3906,2.3675,2.43,2.3679,2.2971,2.2603,2.2515,2.2609,2.3131,2.366,2.3729,2.3115,0.0,2.0971,1.9961,1.8704,1.7803,1.7521,1.7321,1.7282,0.0,0.0,0.0,1.7687,1.7459,1.7445,1.7772,1.7691,1.7659,1.7659,1.7518,1.7653,1.8104,1.8052,1.7354,1.6102,1.605,1.5769,1.5312,1.5424,1.5513,1.5671,1.5659,1.5691,1.5691,1.5691,1.5424,1.496,1.449,1.4305,1.4305,1.4258,1.4351,1.4408,1.4071,1.4071,1.3946,1.2673,1.2282,1.2088,1.1318,1.1103,1.09,1.0317,1.009,0.984,0.8989,0.9009,0.892,0.8016,0.796,0.7796,0.6823,0.6801,0.6333,0.4556,0.4177,0.3176,0.0503,-0.0056,-0.122,-0.422,-0.4754,-0.5878,-0.8501,-0.8935,-1.0069,-1.2801,-1.3107,-1.3954,-1.5852,-1.7572,-1.8731,-1.9139,-2.0012,-2.0767,-2.1439,-2.2496,-2.3365,-2.4007,-2.4398,-2.4771,-2.5096,-2.5243,-2.5374,2.3043,2.2999,2.3231,2.3399,2.3239,2.3191,2.3879,2.4359,2.4503,2.3957,2.3748,2.3368,2.245,2.1731,2.1486,2.2198,2.2691,2.2803,2.2224,2.1475,2.0616,1.942,1.8484,1.7778,1.7516,1.7338,0.0,0.0,0.0,0.0,1.7287,1.7276,1.7111,1.686,1.7312,1.7391,1.699,1.7659,1.7861,1.7593,1.7148,1.6648,1.6159,1.5726,1.544,1.5312,1.5424,1.557,1.5715,1.5748,1.5792,1.5792,1.5792,1.5703,1.5513,1.5322,1.5232,1.5187,1.4915,1.488,1.4926,1.4455,1.4276,1.4005,1.2942,1.265,1.2551,1.2015,1.1885,1.1619,1.0509,1.0162,0.9947,0.9122,0.8832,0.8659,0.8235,0.8151,0.7969,0.7501,0.7143,0.6811,0.6176,0.4988,0.3843,0.2954,0.1339,-0.0223,-0.1449,-0.3385,-0.498,-0.6072,-0.7753,-0.9214,-1.0264,-1.2029,-1.3402,-1.4064,-1.6077,-1.7571,-1.8277,-1.891,-1.9932,-2.1362,-2.1819,-2.2691,-2.4007,-2.4242,-2.4614,-2.5096,-2.5274,-2.5406,2.2263,2.2261,2.2623,2.2535,2.2511,2.2681,2.351,2.4288,2.4648,2.4045,2.3779,2.3367,2.2221,2.1313,2.0944,2.1451,2.1602,2.16,2.1404,2.0767,1.9925,1.8919,1.8202,1.7609,1.7162,1.7093,0.0,0.0,0.0,0.0,0.0,1.6653,1.6387,1.6029,1.669,1.683,1.6337,1.7312,1.7585,1.7063,1.6741,1.6557,1.6484,1.5819,1.5541,1.5569,1.5483,1.548,1.5582,1.5659,1.5748,1.5748,1.5792,1.5792,1.5792,1.5792,1.5792,1.5748,1.5424,1.539,1.539,1.4926,1.466,1.4367,1.3318,1.3052,1.302,1.2585,1.2539,1.2292,1.1225,1.0624,1.0196,0.9533,0.8975,0.8577,0.8432,0.8462,0.8354,0.7905,0.762,0.7389,0.7126,0.5905,0.4824,0.4457,0.2732,0.1229,0.0336,-0.1728,-0.339,-0.4275,-0.6338,-0.7941,-0.8573,-1.0447,-1.192,-1.2628,-1.4699,-1.6411,-1.7544,-1.8185,-1.9381,-2.1193,-2.1513,-2.2462,-2.4026,-2.41,-2.4501,-2.5163,-2.529,-2.5415,2.1779,2.2016,2.2591,2.2055,2.2273,2.2707,2.3106,2.3495,2.3996,2.4811,2.3936,2.2802,2.2185,2.153,2.1049,2.0869,2.0461,2.0316,2.0708,1.9935,1.9064,1.8442,1.7897,1.725,1.638,0.0,0.0,0.0,0.0,0.0,0.0,1.5455,1.5058,1.5389,1.5698,1.5829,1.5829,1.6337,1.6634,1.6634,1.714,1.7327,1.7176,1.6502,1.6164,1.6054,1.5542,1.5312,1.5312,1.5424,1.557,1.5715,1.5748,1.5792,1.5792,1.5792,1.5792,1.5792,1.5792,1.5792,1.5748,1.5402,1.5312,1.5074,1.3873,1.3499,1.3434,1.3036,1.2905,1.2847,1.2588,1.1641,1.0643,1.0305,0.9582,0.8918,0.848,0.8878,0.9024,0.8012,0.8357,0.8428,0.7304,0.7102,0.6499,0.4673,0.4405,0.34,0.056,0.0224,-0.0837,-0.3492,-0.4696,-0.6108,-0.8171,-0.8396,-0.9372,-1.1616,-1.3527,-1.5345,-1.7034,-1.8076,-1.9286,-2.0751,-2.1795,-2.2877,-2.4081,-2.4026,-2.4451,-2.5293,-2.5225,-2.5343,2.1856,2.1757,2.2169,2.2444,2.2525,2.269,2.3629,2.3794,2.3708,2.3467,2.1968,2.0593,2.0053,1.9275,1.8757,1.8884,1.9044,1.9219,1.938,1.9124,1.857,1.7543,1.7284,1.6995,1.6485,0.0,0.0,0.0,0.0,0.0,0.0,1.6007,1.5876,1.5745,1.6936,1.743,1.7146,1.7757,1.7829,1.7302,1.7427,1.7396,1.7242,1.6522,1.6164,1.6054,1.5542,1.5312,1.5312,1.5525,1.5671,1.5715,1.5748,1.5792,1.5792,1.5792,1.5792,1.5792,1.5792,1.5792,1.5792,1.5659,1.5466,1.5149,1.4485,1.4122,1.3921,1.347,1.3358,1.3358,1.329,1.2616,1.1733,1.0787,1.0364,1.0037,0.9376,0.9573,0.9652,0.8989,0.8802,0.8626,0.8336,0.7466,0.6577,0.5761,0.4929,0.34,0.056,0.0224,-0.0503,-0.233,-0.3741,-0.4768,-0.5313,-0.7526,-0.919,-0.9855,-1.172,-1.37,-1.58,-1.7457,-1.8979,-2.035,-2.1084,-2.2102,-2.3412,-2.404,-2.4642,-2.5157,-2.5389,-2.5522,2.2657,2.2437,2.2704,2.295,2.2933,2.2929,2.3315,2.3475,2.3289,2.2596,2.1341,2.0143,1.947,1.8755,1.8112,1.7739,1.7739,1.7882,1.8177,1.8043,1.7704,1.7134,1.709,1.6913,0.0,0.0,0.0,0.0,0.0,0.0,0.0,1.6076,1.6236,1.6045,1.7412,1.8034,1.7762,1.8373,1.8474,1.8037,1.8199,1.8207,1.8087,1.7072,1.6551,1.6449,1.5604,1.521,1.5255,1.5525,1.5614,1.5614,1.5748,1.5792,1.5792,1.5792,1.5792,1.5792,1.5792,1.5792,1.5792,1.5881,1.57,1.544,1.5068,1.4676,1.423,1.3842,1.3621,1.3494,1.3494,1.3233,1.2639,1.145,1.0913,1.0525,0.9915,0.9971,0.9947,0.9385,0.9102,0.8817,0.8472,0.7783,0.7079,0.6338,0.5249,0.3846,0.2009,0.1287,0.0616,-0.0278,-0.2074,-0.3327,-0.3554,-0.4944,-0.6784,-0.8984,-1.0293,-1.163,-1.3032,-1.5672,-1.8001,-1.9935,-2.0703,-2.1737,-2.3053,-2.3841,-2.4511,-2.5061,-2.524,-2.5444,2.377,2.3602,2.3598,2.3442,2.3434,2.3234,2.2546,2.2617,2.2687,2.2008,2.1317,2.0633,1.9808,1.9154,1.8348,1.7103,1.6597,1.652,1.7122,1.6807,1.6714,1.7111,1.714,1.6908,0.0,0.0,0.0,0.0,0.0,0.0,0.0,1.59,1.6229,1.6366,1.7436,1.8007,1.8087,1.856,1.8792,0.0,1.9241,1.9413,1.939,1.7936,1.719,1.6941,1.566,1.5108,1.5108,1.5379,1.5513,1.5513,1.5703,1.5792,1.5792,1.5792,1.5792,1.5792,1.5792,1.5792,1.5836,1.5957,1.5913,1.578,1.5603,1.5061,1.4482,1.4142,1.373,1.3389,1.3369,1.3484,1.3301,1.2263,1.1389,1.0713,1.0288,1.0197,1.0063,0.9529,0.9395,0.9041,0.808,0.8038,0.7757,0.6503,0.5487,0.4688,0.434,0.3125,0.23,0.2247,0.0056,-0.168,-0.2473,-0.1572,-0.3079,-0.8044,-0.8745,-0.9162,-0.9585,-1.3258,-1.6525,-1.9328,-2.03,-2.1528,-2.2959,-2.3545,-2.4248,-2.5051,-2.4982,-2.5221,2.3546,2.3122,2.3111,2.3647,2.3628,2.3316,2.2546,2.2113,2.1549,2.0498,1.9715,1.9005,1.8426,1.7457,1.6631,1.6369,1.5902,1.5791,1.6282,1.6217,1.6291,1.6729,1.6697,1.669,0.0,0.0,0.0,0.0,0.0,0.0,1.684,1.6377,1.6571,1.7574,1.8317,1.8956,1.9531,1.9562,1.9551,0.0,1.9573,1.9574,1.9528,1.8421,1.7329,1.6282,1.544,1.5108,1.5108,1.5379,1.5513,1.5513,1.5703,1.5792,1.5792,1.5792,1.5792,1.5792,1.5792,1.5792,1.5792,1.5836,1.5869,1.5957,1.5913,1.5372,1.4756,1.4605,1.4066,1.3504,1.3283,1.3358,1.329,1.2722,1.2335,1.1903,1.12,1.1019,1.0892,1.0483,1.0043,0.9538,0.8853,0.8342,0.7715,0.6705,0.6248,0.5703,0.4834,0.4497,0.3978,0.3149,0.2373,0.1042,-0.112,-0.1572,-0.184,-0.1978,-0.4392,-0.6919,-0.9496,-1.2532,-1.5206,-1.7514,-1.8235,-1.9971,-2.2779,-2.3508,-2.4395,-2.5381,-2.5386,-2.5432,2.4273,2.3919,2.3834,2.4142,2.3897,2.3316,2.2328,2.1863,2.1173,1.9808,1.9174,1.8643,1.8007,1.6961,1.6084,1.5807,1.5371,1.5241,1.5684,1.5741,1.5978,1.6615,1.6633,0.0,0.0,0.0,0.0,0.0,0.0,1.7062,1.6886,1.6931,1.7297,1.805,1.8797,1.9479,2.0045,1.9869,1.9797,1.9797,1.9669,1.9574,1.9492,1.8592,1.7641,1.6637,1.5891,1.5413,1.5108,1.5334,1.5424,1.5513,1.5703,1.5748,1.5792,1.5792,1.5792,1.5792,1.5792,1.5792,1.5792,1.5869,1.5913,1.5913,1.6044,1.5636,1.5056,1.4771,1.4334,1.381,1.3409,1.342,1.3443,1.3238,1.292,1.24,1.1595,1.12,1.0846,1.0194,0.9657,0.9113,0.8496,0.786,0.729,0.6825,0.6694,0.645,0.5995,0.5932,0.5734,0.5179,0.5012,0.4389,0.3058,0.1498,0.0443,-0.0,-0.1095,-0.2266,-0.3266,-0.7485,-1.1711,-1.566,-1.7165,-1.9035,-2.1364,-2.2903,-2.4271,-2.5405,-2.5349,-2.5383,2.5048,2.4835,2.4734,2.4607,2.4123,2.3358,2.2218,2.1757,2.1173,1.9611,1.9146,1.8774,1.8116,1.707,1.6117,1.5581,1.516,1.5015,1.5414,1.5522,1.5832,1.6663,1.6718,0.0,0.0,0.0,0.0,0.0,0.0,1.7598,1.6864,1.7483,1.8029,1.8417,1.9125,1.9711,2.015,1.994,1.9833,1.9833,1.9705,1.9574,1.9419,1.8793,1.8057,1.7252,1.6328,1.5599,1.5108,1.5255,1.539,1.5513,1.5671,1.576,1.5792,1.5792,1.5792,1.5792,1.5792,1.5792,1.5836,1.5913,1.5913,1.5881,1.6113,1.5811,1.5262,1.497,1.4551,1.4115,1.3604,1.3549,1.3555,1.3555,1.3218,1.2695,1.1832,1.1183,1.0505,0.9751,0.9036,0.8403,0.7836,0.737,0.7092,0.7084,0.7142,0.7182,0.7198,0.7139,0.7133,0.7182,0.7182,0.716,0.7116,0.5269,0.3366,0.1554,0.1699,0.2286,0.3278,-0.1603,-0.6997,-1.2771,-1.602,-1.8416,-1.9974,-2.2375,-2.4189,-2.5356,-2.5187,-2.5217,2.4778,2.462,2.4549,2.4421,2.394,2.3329,2.2627,2.181,2.0859,1.9768,1.9251,1.8869,1.8352,1.7252,1.6319,1.581,1.5686,1.5647,1.5727,1.6008,1.6367,1.6918,1.6918,0.0,0.0,0.0,0.0,0.0,1.8266,1.8055,1.8475,1.795,1.8121,1.9221,1.9361,1.9711,2.027,2.0115,2.0065,2.008,1.9884,1.9726,1.9639,1.9386,1.8531,1.7219,1.5828,1.516,1.5108,1.5255,1.539,1.5513,1.5671,1.576,1.5792,1.5792,1.5792,1.5792,1.5792,1.5792,1.5792,1.5836,1.5869,1.6001,1.6137,1.591,1.5562,1.55,1.4937,1.4318,1.4021,1.3652,1.3409,1.3409,1.3379,1.3127,1.2484,1.161,1.0814,1.0367,0.9148,0.8122,0.7908,0.7972,0.7963,0.7804,0.8013,0.8062,0.7663,0.7317,0.723,0.757,0.7635,0.7503,0.7117,0.683,0.6792,0.7247,0.4714,0.3011,0.2583,0.1292,-0.1703,-0.6607,-1.3166,-1.7746,-2.0249,-2.2952,-2.4742,-2.5643,-2.5274,-2.5124,2.4721,2.4549,2.4478,2.4536,2.442,2.4016,2.3086,2.2495,2.1852,2.0797,2.0064,1.9423,1.8661,1.7891,1.7226,1.6907,1.6622,1.6411,1.63,1.6454,1.6625,1.696,1.696,0.0,0.0,0.0,0.0,0.0,1.8877,1.8722,1.8808,1.8437,1.8633,1.9427,1.9406,1.9711,2.0354,2.0185,2.0045,1.994,1.9833,1.9762,1.9687,1.9103,1.8309,1.7301,1.6552,1.5777,1.5108,1.5165,1.5255,1.539,1.5525,1.5659,1.576,1.5792,1.5792,1.5792,1.5792,1.5792,1.5792,1.5792,1.5836,1.5925,1.6069,1.5966,1.5795,1.5605,1.5119,1.4575,1.4226,1.3815,1.3494,1.3494,1.3494,1.3369,1.2905,1.2107,1.123,1.0183,0.9112,0.8334,0.8246,0.8151,0.8131,0.8248,0.8364,0.8402,0.844,0.8055,0.7883,0.8078,0.7942,0.782,0.783,0.7395,0.7448,0.8081,0.6696,0.572,0.547,0.3619,0.0799,-0.3081,-0.6233,-1.1477,-1.8846,-1.8478,-2.0682,-2.5247,-2.5154,-2.4828,2.4664,2.4421,2.435,2.4664,2.4721,2.4503,2.354,2.3188,2.2791,2.1629,2.0862,2.0194,1.9359,1.877,1.8196,1.7787,1.7533,1.7217,1.6756,1.685,1.6976,1.7115,1.7199,0.0,0.0,0.0,0.0,0.0,1.9302,1.9176,1.8936,1.8898,1.9087,1.9551,1.9515,1.9782,2.0388,2.022,2.0045,1.9869,1.9869,1.9797,1.9707,1.9024,1.8319,1.7616,1.708,1.629,1.5334,1.5175,1.5165,1.5312,1.539,1.557,1.5715,1.5748,1.5792,1.5792,1.5792,1.5792,1.5792,1.5792,1.5792,1.5836,1.5969,1.5996,1.5954,1.5588,1.5195,1.4763,1.4262,1.3857,1.3525,1.3515,1.3505,1.3416,1.2905,1.2209,1.1301,1.0121,0.9359,0.8929,0.8959,0.8699,0.8594,0.8924,0.8723,0.8652,0.8949,0.8639,0.8427,0.8527,0.8339,0.83,0.8514,0.8015,0.7829,0.815,0.7996,0.7961,0.8176,0.5868,0.33,0.066,0.172,-0.3404,-1.4939,-1.4043,-1.656,-2.2173,-2.3954,-2.4447,2.4465,2.4292,2.435,2.4549,2.462,2.446,2.3983,2.3588,2.2955,2.1891,2.1368,2.1004,2.0751,1.9953,1.8978,1.7896,1.8044,1.7956,1.6948,1.7186,1.7475,1.7475,1.776,0.0,0.0,0.0,0.0,0.0,1.9339,1.9302,1.9265,1.9139,1.931,1.9752,1.9711,1.9904,2.0388,2.0339,2.022,2.0065,2.0025,1.9919,1.9797,1.9632,1.9086,1.8278,1.6787,1.6112,1.5991,1.5367,1.5165,1.5312,1.5312,1.5492,1.5715,1.5715,1.576,1.5792,1.5792,1.5792,1.5792,1.5792,1.5792,1.5848,1.5985,1.5997,1.5933,1.551,1.5165,1.4765,1.4169,1.3734,1.3402,1.3266,1.3341,1.3223,1.2397,1.163,1.0937,1.0525,1.0107,0.9905,1.0154,1.0007,0.9922,0.9905,0.938,0.8956,0.9008,0.8639,0.8527,0.8903,0.8942,0.8935,0.8956,0.8942,0.8942,0.8956,0.8586,0.8533,0.891,0.7978,0.6939,0.5844,0.9734,0.546,-0.7379,-1.1801,-1.4191,-1.4707,-2.1035,-2.3928,2.4765,2.4478,2.4271,2.4083,2.4396,2.463,2.4149,2.3891,2.3608,2.2816,2.2217,2.1763,2.1505,2.0845,2.0137,1.9598,1.9331,1.8932,1.8081,1.8089,1.8173,1.8076,1.8779,0.0,0.0,0.0,0.0,0.0,0.0,1.9465,1.9376,1.9302,1.9472,1.9995,1.9839,1.996,2.0388,2.0339,2.022,2.01,2.0025,1.9919,1.9812,1.9647,1.9443,1.9107,1.8276,1.7216,1.6066,1.5383,1.5108,1.5165,1.5267,1.5357,1.5447,1.5626,1.5715,1.576,1.5792,1.5792,1.5792,1.5792,1.5792,1.5792,1.586,1.586,1.5763,1.5337,1.4951,1.4536,1.402,1.358,1.3248,1.3218,1.3256,1.3178,1.2916,1.2492,1.192,1.1087,1.081,1.0707,1.0655,1.0569,1.0449,1.0282,1.0367,1.0182,0.9465,0.9873,0.9976,0.9465,0.954,0.9554,0.9399,0.9271,0.9394,0.9873,0.951,0.9354,0.9517,0.9727,0.8708,0.6247,1.1493,0.8757,-0.2374,-0.4104,-0.7878,-1.3546,-1.9068,-2.2101,2.5272,2.4878,2.4446,2.4162,2.4311,2.439,2.3906,2.3974,2.3892,2.304,2.2766,2.2423,2.1897,2.1458,2.1062,2.0808,2.0456,1.999,1.9316,1.9191,1.9135,1.8949,0.0,0.0,0.0,0.0,0.0,0.0,0.0,0.0,1.9465,1.9376,1.9508,1.998,1.998,2.01,2.0388,2.0354,2.027,2.015,2.0061,1.9955,1.9848,1.9705,1.9611,1.9596,1.916,1.8022,1.6454,1.59,1.5438,1.5108,1.521,1.5267,1.5312,1.5525,1.5671,1.5715,1.5792,1.5792,1.5792,1.5792,1.5792,1.5792,1.5792,1.5703,1.5447,1.4947,1.4566,1.4152,1.3641,1.3319,1.3113,1.3142,1.319,1.319,1.319,1.2968,1.2599,1.1967,1.172,1.1625,1.1529,1.1384,1.1123,1.072,1.0804,1.0643,0.9976,1.049,1.0744,1.0174,1.0139,1.005,0.9909,0.9915,1.0077,1.0379,1.0474,1.0596,1.0719,1.1137,1.0759,0.9458,1.324,1.2203,0.6059,0.2262,-0.3785,-1.1885,-1.7301,-2.0751,0.0,0.0,0.0,2.4855,2.434,2.3824,2.3337,2.373,2.3797,2.2576,2.2821,2.2913,2.198,2.1793,2.1708,2.1383,2.1316,2.1105,2.0499,2.0429,2.0329,2.0069,0.0,0.0,0.0,0.0,0.0,0.0,2.0167,1.9683,1.9611,1.9413,1.9457,1.9823,2.0135,2.0339,2.0423,2.0388,2.0388,2.0304,2.0111,2.0005,2.0005,1.9797,1.9669,1.9596,1.9276,1.8478,1.7331,1.6952,1.6135,1.5151,1.5119,1.5165,1.5312,1.5424,1.557,1.5715,1.5748,1.5792,1.5792,1.5792,1.5792,1.5792,1.5792,1.5468,1.5017,1.449,1.4082,1.3678,1.3065,1.2881,1.2929,1.3085,1.3085,1.3085,1.3085,1.2881,1.2783,1.3027,1.2783,1.2578,1.2832,1.248,1.1918,1.1309,1.0804,1.0454,1.0454,1.0446,1.0651,1.1158,1.0753,1.0454,1.0403,1.0931,1.1023,1.0454,1.1425,1.2167,1.2478,1.2165,1.3176,1.5719,1.5453,1.6051,1.7558,0.6471,-0.2329,-0.8958,-1.5533,-2.0115,2.6056,0.0,0.0,0.0,0.0,0.0,2.4431,2.4505,2.4311,2.3175,2.3067,2.2913,2.198,2.1793,2.1894,2.2189,2.1552,2.1021,2.1032,2.1062,2.1092,2.1283,0.0,0.0,0.0,0.0,0.0,0.0,2.0773,2.0397,1.9771,1.9675,1.9859,2.0345,2.0323,2.0407,2.0626,2.0491,2.0388,2.0388,2.0166,2.0061,2.0005,1.9848,1.9726,1.9717,2.0136,1.9688,1.8516,1.729,1.6598,1.6235,1.5445,1.5108,1.5153,1.53,1.5435,1.5558,1.5715,1.5748,1.5792,1.5792,1.5792,1.5792,1.5792,1.5703,1.5513,1.5006,1.4547,1.3988,1.3113,1.2881,1.2929,1.2929,1.2978,1.2978,1.2978,1.2881,1.2725,1.2431,1.2578,1.2686,1.2382,1.2529,1.248,1.1918,1.2067,1.1918,1.1108,1.171,1.1968,1.1259,1.146,1.1318,1.0454,1.1584,1.1972,1.1057,1.1981,1.2471,1.2223,1.3275,1.4191,1.4915,1.6396,1.4903,1.0282,0.555,0.1499,-0.2091,-1.3584,-2.0042,2.6204,2.6056,2.5753,2.5331,0.0,0.0,2.4094,2.4092,2.3974,2.2623,2.2582,2.2549,2.1939,2.1983,2.2203,2.2678,2.2286,2.1998,2.2161,2.2161,2.2294,2.2498,0.0,0.0,0.0,2.331,2.2955,2.2087,2.1683,2.1151,2.04,2.0096,2.012,2.0597,2.0478,2.0494,2.0693,2.0592,2.0491,2.0388,2.027,2.0115,2.0025,1.9919,1.9848,1.9797,2.0512,2.0451,1.9686,1.8152,1.7226,1.6701,1.5555,1.5108,1.5108,1.5255,1.539,1.5513,1.5659,1.576,1.5792,1.5792,1.5792,1.5792,1.5792,1.5659,1.5379,1.4915,1.4269,1.3658,1.3296,1.32,1.3248,1.343,1.3344,1.32,1.32,1.3017,1.2832,1.248,1.2686,1.2783,1.248,1.2676,1.2725,1.2175,1.2382,1.2323,1.166,1.2175,1.2421,1.1968,1.2017,1.1918,1.1434,1.2453,1.2841,1.2209,1.2948,1.3535,1.3755,1.4522,1.5263,1.5969,1.7254,1.4441,0.7386,0.6096,0.2502,-0.342,-1.3325,-1.8876,2.6404,2.6136,2.5753,2.5716,2.5431,0.0,2.3386,2.3539,2.3515,2.1907,2.1984,2.2297,2.1965,2.2249,2.2678,2.2991,2.3171,2.3348,2.3421,2.345,2.3508,2.3681,0.0,0.0,2.4021,2.3763,2.3513,2.3302,2.2547,2.1842,2.1327,2.0522,2.0308,2.0663,2.063,2.0646,2.0726,2.0693,2.0626,2.0423,2.0354,2.0235,2.0115,2.0061,1.9919,1.9833,2.0563,2.0877,2.0698,1.926,1.8022,1.6869,1.5575,1.5108,1.5108,1.521,1.539,1.5513,1.5614,1.5748,1.5792,1.5792,1.5792,1.5792,1.5792,1.5525,1.5062,1.449,1.3658,1.3065,1.343,1.3573,1.3705,1.4071,1.3894,1.3573,1.3525,1.32,1.2881,1.2881,1.2881,1.2881,1.2881,1.2881,1.2735,1.2274,1.2175,1.2175,1.2175,1.2175,1.2372,1.2832,1.248,1.2314,1.2677,1.3226,1.3548,1.3453,1.4039,1.4877,1.592,1.5642,1.6196,1.7731,1.741,1.4109,0.7768,0.7175,0.1429,-0.9086,-1.368,-1.6848,2.6616,2.651,2.6322,2.6299,2.6165,0.0,2.5916,2.5696,2.5177,2.4013,2.3957,2.3786,2.2726,2.2709,2.3109,2.3922,2.3614,2.3407,2.3696,2.3739,2.3867,2.4276,0.0,0.0,2.4451,2.4424,2.4089,2.3332,2.2087,2.1502,2.189,2.0836,2.0481,2.1135,2.0795,2.0679,2.0761,2.0726,2.0693,2.0626,2.0457,2.0339,2.027,2.015,1.9975,1.9833,2.0563,2.0877,2.0766,2.0066,1.914,1.7964,1.5891,1.5108,1.5108,1.5108,1.5289,1.5513,1.5513,1.5647,1.5792,1.5792,1.5792,1.5792,1.5792,1.5748,1.5468,1.4582,1.3894,1.3382,1.3113,1.3344,1.3525,1.3248,1.3382,1.3478,1.3113,1.2968,1.2881,1.2881,1.2881,1.2881,1.2881,1.2881,1.2881,1.2783,1.2735,1.2735,1.2735,1.2735,1.2783,1.2881,1.2832,1.2627,1.2264,1.3399,1.3815,1.2996,1.419,1.5006,1.5125,1.5668,1.6237,1.6842,1.4538,1.2239,1.0051,0.5868,-0.0561,-0.9033,-1.1023,-1.39,2.6811,2.6563,2.6365,2.6563,2.6418,0.0,0.0,2.5335,2.4769,2.4239,2.3681,2.324,2.3069,2.3291,2.3566,2.3762,2.4015,2.4279,2.4511,2.4207,2.412,2.4564,2.4686,0.0,2.4791,2.467,2.4368,2.3825,2.247,2.1926,2.2569,2.1298,2.0828,2.1419,2.1103,2.0942,2.0958,2.081,2.0744,2.0693,2.0543,2.0407,2.0354,2.027,2.0096,1.9955,2.063,2.0893,2.0783,2.0294,1.9464,1.8336,1.6627,1.5602,1.5108,1.5108,1.5289,1.5513,1.5513,1.5647,1.5792,1.5792,1.5792,1.5792,1.5792,1.5468,1.4994,1.4777,1.3988,1.3296,1.3525,1.3752,1.3941,1.3988,1.3988,1.3894,1.3658,1.3248,1.2881,1.2881,1.2881,1.2881,1.2881,1.2881,1.2881,1.2881,1.2881,1.2881,1.2881,1.2881,1.2881,1.2881,1.2881,1.2871,1.2852,1.3742,1.4201,1.3956,1.4674,1.5332,1.5886,1.6028,1.6136,1.6203,1.3565,1.1627,1.0466,0.5518,-0.0165,-0.6541,-0.8618,-1.1581,2.7093,2.6654,2.6258,2.663,2.6418,2.5983,0.0,0.0,0.0,2.4221,2.3393,2.2912,2.3487,2.3916,0.0,2.3807,0.0,0.0,0.0,2.4856,0.0,2.4986,2.5045,0.0,0.0,2.4831,2.4589,2.4385,2.311,2.2565,2.308,2.1901,2.1343,2.1589,2.1549,2.1391,2.1103,2.0893,2.0761,2.0726,2.0561,2.046,2.0423,2.0339,2.02,2.0025,2.0714,2.0926,2.0767,2.0543,1.9674,1.8402,1.7253,1.6082,1.5108,1.5108,1.5289,1.5513,1.5513,1.5647,1.5792,1.5792,1.5792,1.5792,1.5792,1.5096,1.4398,1.4823,1.3941,1.3065,1.3836,1.4118,1.4258,1.4593,1.449,1.4258,1.4071,1.3525,1.3017,1.2929,1.2881,1.2881,1.2881,1.2881,1.2881,1.2881,1.2978,1.3027,1.2929,1.2968,1.3027,1.2929,1.2881,1.3065,1.343,1.3978,1.449,1.4915,1.5108,1.5738,1.6853,1.6614,1.6326,1.6102,1.379,1.1895,1.0543,0.6052,0.147,-0.3202,-0.6285,-0.9547,2.7799,2.721,2.663,2.6683,2.6563,2.6443,2.6477,0.0,2.5728,2.5265,0.0,2.5319,2.4825,0.0,0.0,0.0,0.0,0.0,2.4106,2.5717,2.6697,2.5796,2.5831,0.0,0.0,2.5091,2.4895,2.4589,2.3519,2.2968,2.308,2.2669,2.2148,2.1606,2.2037,2.1908,2.1103,2.0893,2.0794,2.0794,2.0595,2.0494,2.0494,2.0373,2.02,2.0025,2.0714,2.0926,2.0828,2.1379,2.0377,1.8402,1.7253,1.6082,1.5108,1.5108,1.5289,1.5513,1.5513,1.5647,1.5792,1.5792,1.5792,1.5792,1.5792,1.5096,1.4294,1.4387,1.3658,1.2929,1.3017,1.3392,1.3573,1.3248,1.3752,1.4071,1.3248,1.3296,1.3382,1.2968,1.2881,1.2881,1.2881,1.2881,1.2881,1.2881,1.3248,1.3382,1.2978,1.3248,1.3344,1.2929,1.2881,1.2929,1.2978,1.38,1.4351,1.4398,1.5232,1.6097,1.6872,1.7395,1.7515,1.7149,1.5051,1.325,1.1862,0.7957,0.3922,-0.0178,-0.4192,-0.7783,2.74,2.7527,2.762,2.7449,2.7093,2.6768,2.6721,0.0,2.5459,0.0,0.0,0.0,0.0,0.0,0.0,0.0,2.5893,0.0,0.0,0.0,2.5775,0.0,0.0,0.0,0.0,0.0,0.0,0.0,2.3617,2.3163,2.3779,2.3044,2.2537,2.2413,2.2538,2.2118,2.123,2.1055,2.0909,2.0744,2.0561,2.046,2.0441,2.0339,2.02,2.008,2.0714,2.0958,2.0909,2.154,2.05,1.8453,1.796,1.6673,1.5108,1.5108,1.5198,1.539,1.5468,1.5614,1.576,1.5792,1.5792,1.5792,1.5792,1.5334,1.4777,1.4777,1.4082,1.3392,1.3658,1.3847,1.3941,1.3752,1.4269,1.4593,1.3847,1.3658,1.3525,1.3334,1.3065,1.2881,1.2881,1.2881,1.2881,1.2881,1.3065,1.3113,1.2929,1.3065,1.3113,1.2929,1.2881,1.2881,1.2881,1.3752,1.4305,1.4305,1.564,1.6581,1.6895,1.788,1.7705,1.6126,1.5549,1.3836,1.0748,0.817,0.5118,0.1562,-0.223,-0.6113,2.617,0.0,0.0,0.0,0.0,0.0,0.0,0.0,0.0,0.0,0.0,0.0,0.0,0.0,2.5408,2.55,0.0,2.583,0.0,2.5806,0.0,0.0,0.0,0.0,0.0,0.0,0.0,2.4815,2.3676,2.3223,2.3706,2.3308,2.301,2.3015,2.2947,2.2508,2.1616,2.1215,2.0909,2.0726,2.0561,2.046,2.0407,2.0339,2.022,2.0135,2.0747,2.0942,2.0958,2.157,2.0673,1.8944,1.8944,1.7559,1.5552,1.5233,1.5165,1.5312,1.5424,1.5614,1.576,1.5792,1.5792,1.5792,1.5792,1.5468,1.5108,1.5108,1.4362,1.3658,1.4025,1.4025,1.3931,1.3931,1.4408,1.4731,1.4212,1.4071,1.3941,1.3658,1.3344,1.3065,1.2929,1.2881,1.2881,1.2881,1.3017,1.3065,1.2929,1.3017,1.3017,1.2929,1.2881,1.2881,1.2881,1.3752,1.4444,1.4674,1.6077,1.691,1.691,1.8129,1.7771,1.566,1.6013,1.445,1.0821,0.8735,0.6128,0.3058,-0.0873,-0.4784,0.0,0.0,0.0,2.4346,0.0,0.0,0.0,0.0,2.404,0.0,0.0,0.0,2.4834,2.4502,2.4263,2.4263,2.4806,0.0,0.0,2.594,2.7901,0.0,0.0,0.0,0.0,0.0,0.0,2.4626,2.3877,2.3139,2.2325,2.3456,2.3811,2.3015,2.3309,2.3141,2.2361,2.1325,2.0794,2.0794,2.0595,2.0494,2.0494,2.0373,2.022,2.0135,2.0747,2.0942,2.0958,2.157,2.1119,2.0057,2.0057,1.8702,1.6613,1.5508,1.5165,1.5312,1.5424,1.5647,1.5792,1.5792,1.5792,1.5792,1.5792,1.5468,1.5108,1.5108,1.4362,1.3621,1.3621,1.3296,1.2929,1.2929,1.3658,1.4212,1.3705,1.4362,1.4777,1.38,1.3573,1.343,1.2968,1.2881,1.2881,1.2881,1.3296,1.343,1.2978,1.3296,1.3382,1.2929,1.2881,1.2881,1.2881,1.3752,1.472,1.5691,1.6466,1.691,1.691,1.8129,1.8124,1.6683,1.6604,1.5516,1.3339,1.0174,0.7242,0.4497,-0.0439,-0.4162,0.0,0.0,2.3145,2.3366,0.0,0.0,0.0,0.0,0.0,0.0,0.0,0.0,0.0,2.3692,2.345,2.358,2.3201,2.2887,0.0,2.5098,2.6809,2.7105,2.7483,2.7834,0.0,0.0,0.0,2.5578,2.4435,2.3734,2.3668,2.3325,2.3112,2.3007,2.2713,2.2387,2.2009,2.1341,2.0909,2.0744,2.0561,2.0475,2.0441,2.0339,2.027,2.0254,2.0628,2.0877,2.1007,2.137,2.0957,2.0088,2.0088,1.8755,1.6741,1.6356,1.5774,1.521,1.5424,1.5614,1.576,1.5792,1.5792,1.5792,1.5792,1.5703,1.5525,1.5198,1.4869,1.4501,1.4165,1.3931,1.3752,1.343,1.3847,1.4258,1.4118,1.4351,1.449,1.4118,1.38,1.343,1.2968,1.2881,1.2881,1.2881,1.3017,1.3065,1.2929,1.3017,1.3065,1.2929,1.2881,1.2881,1.2881,1.3752,1.472,1.5748,1.6501,1.691,1.691,1.8129,1.8283,1.7243,1.7221,1.5769,1.2885,1.0581,0.7481,0.3608,0.1108,-0.189,1.9146,2.0171,0.0,2.1395,2.1644,0.0,2.2652,0.0,2.2564,0.0,0.0,0.0,0.0,2.2574,2.2669,2.2598,2.2006,2.193,0.0,2.4517,2.5815,2.6686,2.7216,2.7769,2.8371,2.7787,2.6913,2.5819,2.4699,2.3962,0.0,0.0,2.2568,2.3032,2.2431,2.2123,2.2201,2.1485,2.0974,2.0744,2.0561,2.0475,2.0441,2.0339,2.0304,2.0304,2.0592,2.0827,2.1023,2.1276,2.1122,2.0697,2.0697,1.9348,1.7374,1.6953,1.6104,1.521,1.5424,1.557,1.5715,1.5792,1.5792,1.5792,1.5792,1.5792,1.5712,1.5201,1.506,1.4971,1.4417,1.4174,1.4025,1.3894,1.4071,1.4305,1.4305,1.4582,1.472,1.4387,1.4071,1.3705,1.3248,1.3017,1.2881,1.2881,1.2881,1.2881,1.2881,1.2881,1.2881,1.2881,1.2881,1.3017,1.3382,1.3931,1.472,1.5748,1.6359,1.6749,1.6885,1.8009,1.8201,1.7251,1.7274,1.585,1.2974,1.1152,0.81,0.4042,0.2491,0.0]},{"header":{"parameterUnit":"m.s-1","parameterCategory":1,"la1":30.6,"la2":29.2853,"lo1":-89.7004,"lo2":-87.6739,"dy":0.0162,"dx":0.0183,"nx":112,"ny":82,"refTime":"2023-08-25T00:00:00:Z","depth":0,"parameterNumber":3,"parameterNumberName":"V-component_of_WINDS"},"data":[0.0,0.0,0.0,0.0,0.0,0.0,0.0,0.0,0.0,0.0,0.0,0.0,0.0,0.0,0.0,0.0,0.0,0.0,0.0,0.0,0.0,0.0,0.0,0.0,0.0,0.0,0.0,0.0,0.0,0.0,0.0,0.0,0.0,0.0,0.0,0.0,0.0,0.0,0.0,0.0,0.0,0.0,0.0,0.0,0.0,0.0,0.0,0.0,0.0,0.0,0.0,0.0,0.0,0.0,0.0,0.0,0.0,0.0,0.0,0.0,0.0,0.0,0.0,0.0,0.0,0.0,0.0,0.0,0.0,0.0,0.0,0.0,0.0,0.0,0.0,0.0,0.0,0.0,0.0,0.0,0.0,0.0,0.0,0.0,0.0,0.0,0.0,0.0,0.0,0.0,1.6074,1.4017,1.0802,0.7672,0.4681,0.3341,0.1824,-0.0291,0.0,0.0,0.0,0.0,0.0,0.0,0.0,0.0,0.0,0.0,0.0,0.0,0.0,0.0,0.0,0.0,0.0,0.0,0.0,0.0,0.0,0.0,0.0,0.0,0.0,0.0,0.0,0.0,0.0,0.0,0.0,0.0,0.0,0.0,0.0,0.0,0.0,0.0,0.0,0.0,0.0,0.0,0.0,0.0,0.0,0.0,0.0,0.0,0.0,0.0,0.0,0.0,0.0,0.0,0.0,0.0,0.0,0.0,0.0,0.0,0.0,0.0,0.0,0.0,0.0,0.0,0.0,0.0,0.0,0.0,0.0,0.0,0.0,0.0,0.0,0.0,0.0,0.0,0.0,0.0,0.0,0.0,0.0,0.0,0.0,0.0,0.0,0.0,0.0,0.0,0.0,0.0,0.0,0.0,0.0,0.0,0.0,0.0,0.0,0.0,0.0,0.0,0.0,0.0,1.3579,0.9605,0.8626,0.7214,0.4603,0.2335,0.0534,-0.0581,0.0,0.0,0.0,0.0,0.0,0.0,0.0,0.0,0.0,0.0,0.0,0.0,0.0,0.0,0.0,0.0,0.0,0.0,0.0,0.0,0.0,0.0,0.0,0.0,0.0,0.0,0.0,0.0,0.0,0.0,0.0,0.0,0.0,0.0,0.0,0.0,0.0,0.0,0.0,0.0,0.0,0.0,0.0,0.0,0.0,0.0,0.0,0.0,0.0,0.0,0.0,0.0,0.0,0.0,0.0,0.0,0.0,0.0,0.0,0.0,0.0,0.0,0.0,0.0,0.0,0.0,0.0,0.0,0.0,0.0,0.0,0.0,0.0,0.0,0.0,0.0,0.0,0.0,0.0,0.0,0.0,0.0,0.0,0.0,0.0,0.0,0.0,0.0,0.0,0.0,0.0,0.0,0.0,0.0,0.0,0.0,0.0,0.0,0.0,0.0,0.0,0.0,0.0,1.3536,1.0987,0.7917,0.6649,0.5003,0.2625,0.0455,-0.1346,-0.2562,-0.4853,0.0,0.0,0.0,0.0,0.0,0.0,0.0,0.0,0.0,0.0,0.0,0.0,0.0,0.0,0.0,0.0,0.0,0.0,0.0,0.0,0.0,0.0,0.0,0.0,0.0,0.0,0.0,0.0,0.0,0.0,0.0,0.0,0.0,0.0,0.0,0.0,0.0,0.0,0.0,0.0,0.0,0.0,0.0,0.0,0.0,0.0,0.0,0.0,0.0,0.0,0.0,0.0,0.0,0.0,0.0,0.0,0.0,0.0,0.0,0.0,0.0,0.0,0.0,0.0,0.0,0.0,0.0,0.0,0.0,0.0,0.0,0.0,0.0,0.0,0.0,0.0,0.0,0.0,0.0,0.0,0.0,0.0,0.0,0.0,0.0,0.0,0.0,0.0,0.0,0.0,0.0,0.0,0.0,0.0,0.0,0.0,0.0,0.0,0.0,0.0,0.0,0.0,1.058,0.8781,0.6784,0.5141,0.3254,0.0871,-0.0958,-0.2558,-0.399,-0.5956,0.0,0.0,0.0,0.0,0.0,0.0,0.0,0.0,0.0,0.0,0.0,0.0,0.0,0.0,0.0,0.0,0.0,0.0,0.0,0.0,0.0,0.0,0.0,0.0,0.0,0.0,0.0,0.0,0.0,0.0,0.0,0.0,0.0,0.0,0.0,0.0,0.0,0.0,0.0,0.0,0.0,0.0,0.0,0.0,0.0,0.0,0.0,0.0,0.0,0.0,0.0,0.0,0.0,0.0,0.0,0.0,0.0,0.0,0.0,0.0,0.0,0.0,0.0,0.0,0.0,0.0,0.0,0.0,0.0,0.0,0.0,0.0,0.0,0.0,0.0,0.0,0.0,0.0,0.0,0.0,0.0,0.0,0.0,0.0,0.0,0.0,0.0,0.0,0.0,0.0,0.0,0.0,0.0,0.0,0.0,0.0,0.0,0.0,0.0,0.0,0.0,0.0,0.9182,0.7396,0.5349,0.4564,0.3264,0.0872,-0.087,-0.2296,-0.3289,-0.5747,0.0,0.0,0.0,0.0,0.0,0.0,0.0,0.0,0.0,0.0,0.0,0.0,0.0,0.0,0.0,0.0,0.0,0.0,0.0,0.0,0.0,0.0,0.0,0.0,0.0,0.0,0.0,0.0,0.0,0.0,0.0,0.0,0.0,0.0,0.0,0.0,0.0,0.0,0.0,0.0,0.0,0.0,0.0,0.0,0.0,0.0,0.0,0.0,0.0,0.0,0.0,0.0,0.0,0.0,0.0,0.0,0.0,0.0,0.0,0.0,0.0,0.0,0.0,0.0,0.0,0.0,0.0,0.0,0.0,0.0,0.0,0.0,0.0,0.0,0.0,0.0,0.0,0.0,0.0,0.0,0.0,0.0,0.0,0.0,0.0,0.0,0.0,0.0,0.0,0.0,0.0,0.0,0.0,0.0,0.0,0.0,0.0,0.0,0.0,0.0,0.0,0.0,0.7461,0.5607,0.4341,0.2785,0.1125,-0.076,-0.2031,-0.3289,-0.4498,0.0,0.0,0.0,0.0,0.0,0.0,0.0,0.0,0.0,0.0,0.0,0.0,0.0,0.0,0.0,0.0,0.0,0.0,0.0,0.0,0.0,0.0,0.0,0.0,0.0,0.0,0.0,0.0,0.0,0.0,0.0,0.0,0.0,0.0,0.0,0.0,0.0,0.0,0.0,0.0,0.0,0.0,0.0,0.0,0.0,0.0,0.0,0.0,0.0,0.0,0.0,0.0,0.0,0.0,0.0,0.0,0.0,0.0,0.0,0.0,0.0,0.0,0.0,0.0,0.0,0.0,0.0,0.0,0.0,0.0,0.0,0.0,0.0,0.0,0.0,0.0,0.0,0.0,0.0,0.0,0.0,0.0,0.0,0.0,0.0,0.0,0.0,0.0,0.0,0.0,0.0,0.0,0.0,0.0,0.0,0.0,0.0,0.0,0.0,0.0,0.0,0.0,0.8628,0.6229,0.4334,0.3476,0.1637,-0.0137,-0.1743,-0.2727,-0.3762,-0.4964,0.0,0.0,0.0,0.0,0.0,0.0,0.0,0.0,0.0,0.0,0.0,0.0,0.0,0.0,0.0,0.0,0.0,0.0,0.0,0.0,0.0,0.0,0.0,0.0,0.0,0.0,0.0,0.0,0.0,0.0,0.0,0.0,0.0,0.0,0.0,0.0,0.0,0.0,0.0,0.0,0.0,0.0,0.0,0.0,0.0,0.0,0.0,0.0,0.0,0.0,0.0,0.0,0.0,0.0,0.0,0.0,0.0,0.0,0.0,0.0,0.0,0.0,0.0,0.0,0.0,0.0,0.0,0.0,0.0,0.0,0.0,0.0,0.0,0.0,0.0,0.0,0.0,0.0,0.0,0.0,0.0,0.0,0.0,0.0,0.0,0.0,0.0,0.0,0.0,0.0,0.0,0.0,0.0,0.0,0.0,0.0,0.0,0.0,0.0,0.0,0.0,0.0,0.7832,0.5529,0.3613,0.2744,0.1341,-0.0201,-0.181,-0.2681,-0.3551,0.0,0.0,0.0,0.0,0.0,0.0,0.0,0.0,0.0,0.0,0.0,0.0,0.0,0.0,0.0,0.0,0.0,0.0,0.0,0.0,0.0,0.0,0.0,0.0,0.0,0.0,0.0,0.0,0.0,0.0,0.0,0.0,0.0,0.0,0.0,0.0,0.0,0.0,0.0,0.0,0.0,0.0,0.0,0.0,0.0,0.0,0.0,0.0,0.0,0.0,0.0,0.0,0.0,0.0,0.0,0.0,0.0,0.0,0.0,0.0,0.0,0.0,0.0,0.0,0.0,0.0,0.0,0.0,0.0,0.0,0.0,0.0,0.0,0.0,0.0,0.0,0.0,0.0,0.0,0.0,0.0,0.0,0.0,0.0,0.0,0.0,0.0,0.0,0.0,0.0,0.0,0.0,0.0,0.0,0.0,0.0,0.0,0.0,0.0,0.0,0.0,0.0,0.0,0.5332,0.3609,0.2144,0.1275,-0.0268,-0.1609,-0.2748,-0.3551,-0.4287,-0.5024,0.0,0.0,0.0,0.0,0.0,0.0,0.0,0.0,0.0,0.0,0.0,0.0,0.0,0.0,0.0,0.0,0.0,0.0,0.0,0.0,0.0,0.0,0.0,0.0,0.0,0.0,0.0,0.0,0.0,0.0,0.0,0.0,0.0,0.0,0.0,0.0,0.0,0.0,0.0,0.0,0.0,0.0,0.0,0.0,0.0,0.0,0.0,0.0,0.0,0.0,0.0,0.0,0.0,0.0,0.0,0.0,0.0,0.0,0.0,0.0,0.0,0.0,0.0,0.0,0.0,0.0,0.0,0.0,0.0,0.0,0.0,0.0,0.0,0.0,0.0,0.0,0.0,0.0,0.0,0.0,0.0,0.0,0.0,0.0,0.0,0.0,0.0,0.0,0.0,0.0,0.0,0.0,0.0,0.0,0.0,0.0,0.0,0.0,0.0,0.0,0.0,0.0,0.4212,0.2546,0.1208,0.0538,-0.0939,-0.228,-0.3149,-0.3885,-0.4622,-0.5359,0.0,0.0,0.0,0.0,0.0,0.0,0.0,0.0,0.0,0.0,0.0,0.0,0.0,0.0,0.0,0.0,0.0,0.0,0.0,0.0,0.0,0.0,0.0,0.0,0.0,0.0,0.0,0.0,0.0,0.0,0.0,0.0,0.0,0.0,0.0,0.0,0.0,0.0,0.0,0.0,0.0,0.0,0.0,0.0,0.0,0.0,0.0,0.0,0.0,0.0,0.0,0.0,0.0,0.0,0.0,0.0,0.0,0.0,0.0,0.0,0.0,0.0,0.0,0.0,0.0,0.0,0.0,0.0,0.0,0.0,0.0,0.0,0.0,0.0,0.0,0.0,0.0,0.0,0.0,0.0,0.0,0.0,0.0,0.0,0.0,0.0,0.0,0.0,0.0,0.0,0.0,0.0,0.0,0.0,0.0,0.0,0.0,0.0,0.0,0.0,0.0,0.0,0.388,0.2011,0.0672,0.0336,-0.1073,-0.2345,-0.3215,-0.3951,-0.4688,-0.5359,0.0,0.0,0.0,0.0,0.0,0.0,0.0,0.0,0.0,0.0,0.0,0.0,0.0,0.0,0.0,0.0,0.0,0.0,0.0,0.0,0.0,0.0,0.0,0.0,0.0,0.0,0.0,0.0,0.0,0.0,0.0,0.0,0.0,0.0,0.0,0.0,0.0,0.0,0.0,0.0,0.0,0.0,0.0,0.0,0.0,0.0,0.0,0.0,0.0,0.0,0.0,0.0,0.0,0.0,0.0,0.0,0.0,0.0,0.0,0.0,1.549,0.0,0.0,0.0,0.0,0.0,0.0,0.0,0.0,0.0,0.0,0.0,0.0,0.0,0.0,0.0,0.0,0.0,0.0,0.0,0.0,0.0,0.0,0.0,0.0,0.0,0.0,0.0,0.0,0.0,0.0,0.0,0.0,0.0,0.0,0.0,0.0,0.0,0.0,0.0,0.0,0.0,0.2479,0.1275,0.0067,-0.1275,-0.2278,-0.3215,-0.4018,-0.4755,-0.5226,-0.5362,-0.6535,0.0,0.0,0.0,0.0,0.0,0.0,0.0,0.0,0.0,0.0,0.0,0.0,0.0,0.0,0.0,0.0,0.0,0.0,0.0,0.0,0.0,0.0,0.0,0.0,0.0,0.0,0.0,0.0,0.0,0.0,0.0,0.0,0.0,0.0,0.0,0.0,0.0,0.0,0.0,0.0,0.0,0.0,0.0,0.0,0.0,0.0,0.0,0.0,0.0,0.0,0.0,0.0,0.0,0.0,0.0,0.0,0.0,0.0,0.0,0.0,1.2735,0.0,0.0,0.0,0.0,0.0,0.0,0.0,0.0,0.0,0.0,0.0,0.0,0.0,0.0,0.0,0.0,0.0,0.0,0.0,0.0,0.0,0.0,0.0,0.0,0.0,0.0,0.0,0.0,0.0,0.0,0.0,0.0,0.0,0.0,0.0,0.0,0.0,0.0,0.0,0.0,0.2049,0.0745,-0.0605,-0.1744,-0.2681,-0.3482,-0.422,-0.4957,-0.5428,-0.5428,-0.6342,0.0,0.0,0.0,0.0,0.0,0.0,0.0,0.0,0.0,0.0,0.0,0.0,0.0,0.0,0.0,0.0,0.0,0.0,0.0,0.0,0.0,0.0,0.0,0.0,0.0,0.0,0.0,0.0,0.0,0.0,0.0,0.0,0.0,0.0,0.0,0.0,0.0,0.0,0.0,0.0,0.0,0.0,0.0,0.0,0.0,0.0,0.0,0.0,0.0,0.0,0.0,0.0,0.0,1.1472,1.06,0.9122,0.918,0.8685,0.8038,0.981,1.038,1.0186,0.915,0.0,0.0,0.0,0.0,0.0,0.0,0.0,0.0,0.0,0.0,0.0,0.0,0.0,0.0,0.0,0.0,0.0,0.0,0.0,0.0,0.0,0.0,0.0,0.0,1.0317,1.0384,0.0,0.0,0.0,0.0,0.0,0.0,0.0,0.0,0.0,0.0,0.0,0.0,0.1802,0.0273,-0.1144,-0.2012,-0.2748,-0.3551,-0.442,-0.5024,-0.5428,-0.5428,-0.6009,-0.64,0.0,0.0,0.0,0.0,0.0,0.0,0.0,0.0,0.0,0.0,0.0,0.0,0.0,0.0,0.0,0.0,0.0,0.0,0.0,0.0,0.0,0.0,0.0,0.0,0.0,0.0,0.0,0.0,0.0,0.0,0.0,0.0,3.4418,3.3488,0.0,0.0,0.0,0.0,0.0,0.0,0.0,0.0,0.0,0.0,0.0,0.0,0.0,1.0823,1.0421,0.9604,0.8703,0.7743,0.7157,0.6527,0.6149,0.634,0.5908,0.5137,0.5395,0.0,0.8553,0.7302,0.0,0.0,0.0,0.0,0.0,0.0,0.0,0.0,0.0,0.0,0.0,0.0,0.0,0.0,0.0,0.0,0.0,0.0,0.0,0.0,0.0,0.0,0.9018,0.7809,0.7414,0.7315,0.0,0.867,0.9567,0.9085,0.8253,0.0,0.0,0.0,0.0,0.0,0.0,0.0,0.0677,-0.027,-0.1346,-0.2882,-0.3149,-0.3751,-0.516,-0.5362,-0.5428,-0.5428,-0.6009,-0.64,-0.64,-0.6461,0.0,0.0,0.0,0.0,0.0,0.0,0.0,0.0,0.0,0.0,0.0,0.0,0.0,0.0,0.0,0.0,0.0,0.0,0.0,0.0,0.0,0.0,0.0,0.0,0.0,0.0,0.0,0.0,0.0,3.1679,3.1215,2.937,2.7102,2.4438,0.0,0.0,0.0,0.0,0.0,0.0,0.0,0.0,0.0,1.0005,0.8954,0.8297,0.7821,0.6754,0.586,0.5054,0.4761,0.457,0.4504,0.4574,0.4357,0.409,0.4017,0.4577,0.5539,0.483,0.4432,0.3996,0.0,0.0,0.0,0.0,0.3455,0.3896,0.4076,0.443,0.0,0.4811,0.0,0.0,0.0,0.0,0.0,0.0,0.0,0.0,0.0,0.0,0.7601,0.6634,0.6354,0.6371,0.6454,0.6423,0.6605,0.0,0.6928,0.6043,0.4776,0.0,0.0,0.0,0.0,0.0854,0.0422,-0.0417,-0.1573,-0.3021,-0.3215,-0.3818,-0.5292,-0.5428,-0.5428,-0.5428,-0.6009,-0.64,-0.64,-0.64,-0.6268,0.0,0.0,0.0,0.0,0.0,0.0,0.0,0.0,0.0,0.0,0.0,0.0,0.0,0.0,0.0,0.0,0.0,0.0,0.0,0.0,0.0,0.0,0.0,0.0,0.0,0.0,0.0,0.0,2.9186,2.7996,2.6013,2.3704,2.0834,0.0,0.0,0.0,0.0,0.0,0.0,0.884,0.7594,0.724,0.7962,0.6674,0.5829,0.5505,0.4448,0.3615,0.3001,0.2818,0.2719,0.2708,0.2721,0.2713,0.269,0.2702,0.2576,0.2532,0.3041,0.301,0.266,0.262,0.2413,0.2127,0.2257,0.2346,0.252,0.2494,0.2578,0.2611,0.2543,0.0,0.253,0.2993,0.0,0.0,0.0,0.0,0.4986,0.4233,0.4905,0.5653,0.5038,0.4999,0.5067,0.5067,0.4222,0.3969,0.0,0.5242,0.4487,0.3526,0.0,0.0,0.0,0.0,0.0217,0.0072,-0.0774,-0.1855,-0.309,-0.3349,-0.402,-0.5292,-0.5428,-0.5428,-0.5428,-0.5881,-0.6203,-0.6396,-0.6203,-0.6141,-0.6075,0.0,0.0,0.0,0.0,0.0,0.0,0.0,0.0,0.0,0.0,0.0,0.0,0.0,0.0,0.0,0.0,0.0,0.0,0.0,0.0,0.0,0.0,0.0,0.0,0.0,0.0,0.0,0.0,0.0,2.5265,2.2335,0.0,0.0,0.0,0.0,0.891,0.7635,0.7258,0.821,0.5965,0.516,0.6272,0.4532,0.3641,0.3711,0.2506,0.1969,0.1866,0.0714,0.0201,0.0197,0.0201,0.0199,0.0192,0.0196,0.0195,0.0385,0.2529,0.276,0.1711,0.171,0.1006,0.0101,0.0101,0.0806,0.171,0.1612,0.2164,0.2577,0.1651,0.1223,0.1073,0.1572,0.2166,0.0,0.0,0.2167,0.2513,0.1817,0.2098,0.2505,0.2367,0.231,0.2269,0.2269,0.2266,0.2584,0.0,0.2996,0.2058,0.2022,0.0,0.1582,0.0604,0.0443,0.0072,-0.0915,-0.1643,-0.2351,-0.3149,-0.3818,-0.4556,-0.5362,-0.5428,-0.5428,-0.5428,-0.5428,-0.5752,-0.64,-0.5815,-0.562,-0.5873,-0.5219,0.0,0.0,0.0,0.0,0.0,0.0,0.0,0.0,0.0,0.0,0.0,0.0,0.0,0.0,0.0,0.0,0.0,0.0,0.0,0.0,0.0,0.0,0.0,0.0,0.0,0.0,0.0,0.0,2.0491,1.8003,0.0,1.2659,1.0809,0.9099,0.7681,0.6638,0.6067,0.6103,0.4614,0.3972,0.4514,0.3086,0.2347,0.2466,0.1197,0.0688,0.059,0.0195,-0.0291,-0.0866,-0.0872,-0.1254,-0.1903,-0.1821,-0.1819,-0.181,-0.0971,-0.0488,-0.0389,-0.1068,-0.1553,-0.1845,-0.1845,-0.165,-0.1262,-0.0777,-0.0385,-0.019,-0.0095,-0.0092,-0.0089,-0.0088,0.0174,0.0433,0.0,0.068,0.1266,0.0656,0.1126,0.1649,0.1283,0.1173,0.1151,0.1151,0.0863,0.0721,0.1163,0.1113,0.0984,0.0688,0.0228,-0.0151,-0.0378,-0.0526,-0.0882,-0.1689,-0.201,-0.2599,-0.3758,-0.4151,-0.4622,-0.5362,-0.5428,-0.5428,-0.5428,-0.5428,-0.5491,-0.5752,-0.5557,-0.5425,-0.5554,-0.5251,-0.4984,0.0,0.0,0.0,0.0,0.0,0.0,0.0,0.0,0.0,0.0,0.0,0.0,0.0,0.0,0.0,0.0,0.0,0.0,0.0,0.0,0.0,0.0,0.0,0.0,0.0,1.8625,1.8639,1.6783,1.4714,1.2451,1.0238,0.8694,0.742,0.6281,0.5358,0.4698,0.4418,0.342,0.2833,0.297,0.1803,0.1089,0.0692,-0.0095,-0.056,-0.0934,-0.0829,-0.1189,-0.1736,-0.1736,-0.21,-0.2739,-0.2739,-0.2739,-0.283,-0.3103,-0.283,-0.2288,-0.2728,-0.2946,-0.2946,-0.2946,-0.2946,-0.2846,-0.2342,-0.2228,-0.2025,-0.1444,-0.1154,-0.0963,-0.0951,-0.0775,-0.0601,-0.093,-0.0416,0.0163,-0.0317,0.0077,0.0524,0.0145,0.007,0.0,0.0,-0.0276,-0.0553,-0.0553,-0.0215,-0.0074,-0.0373,-0.0816,-0.1114,-0.0982,-0.112,-0.1389,-0.2135,-0.2371,-0.301,-0.4161,-0.4556,-0.4891,-0.5359,-0.5428,-0.5428,-0.5428,-0.5428,-0.5428,-0.5428,-0.5359,-0.5292,-0.5229,-0.5167,-0.5077,-0.4965,0.0,0.0,0.0,0.0,0.0,0.0,0.0,0.0,0.0,0.0,0.0,0.0,0.0,0.0,0.0,0.0,0.0,0.0,0.0,0.0,0.0,0.0,0.0,1.5825,1.5126,1.4336,1.4429,1.258,1.0677,0.9275,0.7099,0.5351,0.4522,0.366,0.3133,0.3137,0.2091,0.1521,0.1521,0.057,-0.0475,-0.1423,-0.1369,-0.179,-0.2681,-0.257,-0.2516,-0.2516,-0.2516,-0.26,-0.26,-0.26,-0.26,-0.2684,-0.3604,-0.394,-0.389,-0.3215,-0.2935,-0.2935,-0.2935,-0.2935,-0.292,-0.299,-0.2996,-0.2762,-0.2197,-0.1845,-0.151,-0.0923,-0.0588,-0.042,-0.0923,-0.0974,-0.094,-0.1254,-0.1187,-0.1121,-0.112,-0.1097,-0.1076,-0.1076,-0.1075,-0.1074,-0.1074,-0.1097,-0.1127,-0.1158,-0.1139,-0.1139,-0.1198,-0.1156,0.0,-0.2165,-0.2833,-0.3473,-0.4209,-0.4948,-0.5422,-0.5422,-0.5425,-0.5428,-0.5428,-0.5428,-0.5428,-0.5428,-0.5223,-0.503,-0.4843,-0.4828,-0.4959,-0.5306,0.0,0.0,0.0,0.0,0.0,0.0,0.0,0.0,0.0,0.0,0.0,0.0,0.0,0.0,0.0,0.0,0.0,0.0,0.0,0.0,0.0,1.5792,1.1923,1.0679,1.1456,1.1972,1.1451,0.9453,0.775,0.6828,0.5473,0.4403,0.359,0.2653,0.2029,0.1995,0.102,0.046,0.0466,0.0181,-0.0446,-0.1338,-0.1302,-0.1711,-0.2564,-0.2532,-0.2851,-0.3522,-0.3522,-0.394,-0.4613,-0.4613,-0.4613,-0.4613,-0.4866,-0.4949,-0.4959,-0.4822,-0.4695,-0.4695,-0.4695,-0.426,-0.3635,-0.3621,-0.3071,-0.2387,-0.2174,-0.1999,-0.1913,-0.1567,-0.1402,-0.132,-0.1146,-0.1129,-0.1112,-0.1164,-0.114,-0.1115,-0.1093,-0.1082,-0.1076,-0.1076,-0.1059,-0.1045,-0.1045,-0.1034,-0.1041,-0.1092,-0.1094,-0.1087,-0.1083,-0.1401,0.0,-0.2654,-0.331,-0.3906,-0.4662,-0.5004,-0.5196,-0.5196,-0.5298,-0.5428,-0.5428,-0.5428,-0.5428,-0.5428,-0.5359,-0.5325,-0.5329,-0.5199,-0.5287,0.0,0.0,0.0,0.0,0.0,0.0,0.0,0.0,0.0,0.0,0.0,0.0,0.0,0.0,0.0,0.0,0.0,0.0,0.0,0.0,0.0,0.0,1.2573,0.9464,0.7674,0.8754,0.9443,0.879,0.7365,0.6051,0.5134,0.3815,0.294,0.2481,0.1493,0.0967,0.0893,0.0353,0.0,0.0,-0.0346,-0.0943,-0.1884,-0.2176,-0.2812,-0.3637,-0.3604,-0.3832,-0.4322,-0.4279,-0.4581,0.0,-0.5091,-0.5097,-0.5146,-0.5146,-0.5414,0.0,0.0,0.0,0.0,0.0,-0.4933,-0.4308,-0.4286,-0.383,-0.3247,-0.2824,-0.266,-0.2576,-0.2239,-0.2155,-0.2149,-0.2119,-0.2094,-0.1997,-0.1616,-0.1527,-0.1439,-0.1147,-0.1076,-0.1072,-0.1061,-0.1241,-0.135,-0.1397,-0.1561,0.0,-0.1775,-0.1608,-0.149,-0.1742,-0.204,-0.2523,-0.3261,-0.3594,-0.4055,-0.4796,-0.5047,-0.5131,-0.5131,-0.5274,0.0,0.0,0.0,-0.5362,-0.5292,-0.5353,0.0,0.0,0.0,-0.5596,-0.5825,0.0,0.0,0.0,-0.3482,-0.2511,0.0,0.0,0.0,0.0,0.0,0.0,0.0,0.0,0.0,0.0,0.0,0.0,0.0,0.0,0.0,0.0,0.8124,0.6529,0.634,0.6848,0.7047,0.6435,0.5753,0.4863,0.3752,0.2242,0.1329,0.1246,0.0498,0.0,0.0,0.0,0.0,0.0,0.0,-0.1737,-0.2809,-0.3399,-0.4243,-0.5124,-0.5023,-0.4977,-0.5049,-0.4938,-0.4961,-0.503,-0.4989,-0.5003,-0.5035,-0.5035,-0.5551,-0.6451,-0.6592,-0.6217,-0.5539,-0.5345,-0.523,-0.5035,-0.4836,0.0,0.0,-0.375,-0.353,-0.3458,-0.3022,-0.2879,-0.288,-0.3169,-0.3258,-0.313,-0.2505,-0.2255,-0.2079,-0.1478,-0.1341,-0.1329,-0.1233,-0.1605,-0.1963,-0.1971,-0.2441,-0.2775,-0.2815,-0.2339,-0.2162,-0.2717,-0.2849,-0.3134,-0.3788,-0.3896,-0.4134,-0.4807,0.0,0.0,-0.5104,-0.5247,-0.5345,-0.5425,-0.5428,-0.5292,-0.5156,-0.5297,-0.5374,-0.5519,-0.5731,-0.595,-0.6338,-0.6338,-0.6332,-0.6471,-0.4212,-0.2988,0.0,0.0,0.0,0.0,0.0,0.0,0.0,0.0,0.0,0.0,0.0,0.0,0.0,0.0,0.0,0.2205,0.5314,0.7283,0.5995,0.5978,0.5692,0.4734,0.3406,0.2448,0.1909,0.1561,0.1004,0.0309,0.0076,0.0,0.0,0.0,-0.0302,-0.0845,-0.1059,-0.1799,-0.3218,-0.3426,-0.3937,-0.4828,0.0,0.0,-0.5596,-0.5567,-0.5844,-0.6417,-0.6388,-0.6391,-0.6421,-0.6421,-0.6869,-0.7654,-0.7427,-0.7096,-0.667,-0.6112,-0.5787,-0.5501,-0.4796,-0.4526,-0.449,-0.4393,-0.436,-0.4292,-0.3886,-0.375,0.0,-0.3336,-0.3189,-0.3175,-0.304,-0.3029,-0.2948,-0.2815,-0.2703,-0.2657,-0.2643,-0.2602,-0.2565,-0.255,-0.2667,-0.2897,-0.3327,-0.2956,-0.2589,-0.2711,-0.3142,-0.3478,-0.3615,-0.4053,-0.4435,-0.4548,-0.4684,-0.4826,-0.4948,-0.5091,-0.5226,-0.5422,-0.5428,-0.5362,-0.5359,-0.544,-0.5584,-0.5728,-0.5879,-0.6105,-0.6338,-0.6338,-0.6332,-0.6471,-0.4534,-0.3701,0.0,0.0,0.0,0.0,0.0,0.0,0.0,0.0,0.0,0.0,0.0,-0.7998,-0.4874,0.0,-0.1553,-0.1416,0.0178,0.133,0.158,0.1635,0.2125,0.3668,0.2703,0.1579,0.0772,0.0678,0.0445,0.0,0.0,0.0,0.0,-0.0367,-0.0729,-0.1093,-0.182,-0.2619,-0.3417,-0.3853,-0.4287,-0.4726,-0.4726,-0.5084,-0.5724,-0.5647,-0.6036,-0.6662,-0.6644,-0.6656,-0.6744,-0.7186,-0.765,-0.8023,-0.8225,-0.802,-0.7419,-0.6682,-0.6242,-0.601,-0.517,-0.4916,-0.4839,-0.4645,-0.4625,-0.4625,-0.4558,-0.4558,-0.4492,-0.4353,-0.4287,-0.422,-0.3818,-0.3751,-0.3673,-0.3228,-0.3055,-0.3001,-0.2849,-0.3,-0.315,-0.3156,-0.3386,-0.3683,-0.4015,-0.3789,-0.3583,-0.358,-0.3849,-0.407,-0.407,-0.4294,-0.4519,-0.4519,-0.4599,-0.4721,-0.4799,-0.5006,-0.5165,-0.524,-0.5318,-0.5325,-0.525,-0.5467,-0.5623,-0.5694,-0.5915,-0.6067,-0.6146,-0.6224,-0.6298,-0.6366,-0.5012,-0.4272,0.0,0.0,0.0,0.0,0.0,0.0,0.0,-2.2519,-1.9307,-1.6692,-1.4843,-1.2351,-0.7785,-0.5864,-0.4504,-0.3164,-0.4224,-0.4653,-0.3051,-0.2792,-0.152,0.2072,0.157,0.0615,-0.015,-0.022,-0.0144,0.0,0.0,-0.0071,-0.0209,-0.0781,-0.1208,-0.1529,-0.2831,-0.3648,-0.379,-0.4577,-0.5006,-0.5006,-0.5006,-0.5358,-0.6057,-0.5928,-0.6279,-0.695,-0.6862,-0.6884,-0.7039,-0.7817,-0.8096,-0.8166,-0.8795,-0.8651,-0.8007,-0.7121,-0.6784,-0.6666,-0.5785,-0.5408,-0.5276,-0.5084,-0.4954,-0.4954,-0.5415,-0.5526,-0.5512,-0.5547,-0.5536,-0.5387,-0.4683,-0.4469,-0.4295,-0.3554,-0.3378,-0.3306,-0.3143,-0.3442,-0.38,-0.3758,-0.4184,-0.4515,-0.4625,-0.457,-0.4519,-0.4519,-0.4519,-0.4519,-0.4519,-0.4519,-0.4519,-0.4519,-0.4572,-0.466,-0.4687,-0.4935,-0.5091,-0.5091,-0.5206,-0.5281,-0.5217,-0.5418,-0.5569,-0.5705,-0.5834,-0.5915,-0.5945,-0.6071,-0.6146,-0.6173,-0.5322,-0.4543,-3.06,-2.9867,-3.0044,-3.153,-2.9637,-2.782,0.0,-2.6573,-2.3167,-2.069,-1.8397,-1.534,-1.059,-0.9139,-0.7541,-0.4333,-0.4146,-0.44,-0.3997,-0.3953,-0.3337,-0.1707,-0.2175,-0.2157,-0.1065,-0.0987,-0.0697,-0.0068,0.0,-0.0272,-0.0946,-0.1084,-0.1692,-0.2896,-0.3773,-0.4517,-0.5059,-0.5859,-0.6195,-0.6195,-0.6195,-0.6593,-0.7325,-0.7302,-0.7625,-0.8289,-0.8262,-0.8262,-0.8294,-0.8385,-0.8461,-0.8461,-0.8527,-0.8527,-0.8412,-0.7837,-0.7578,-0.7288,-0.6539,-0.587,-0.5474,-0.6334,-0.6268,-0.5939,-0.6859,-0.7007,-0.6777,-0.6424,-0.6096,-0.5826,-0.5391,-0.5127,-0.496,-0.4877,-0.4687,-0.4494,-0.4461,-0.4412,-0.4425,-0.4408,-0.4463,-0.4625,-0.5117,-0.4791,-0.4519,-0.4519,-0.4519,-0.4519,-0.4519,-0.4519,-0.4519,-0.4519,-0.4532,-0.4545,-0.4677,-0.4847,-0.4942,-0.4942,-0.4958,-0.52,-0.5715,-0.5339,-0.5435,-0.5946,-0.5609,-0.5504,-0.564,-0.5657,-0.5728,-0.585,-0.5053,-0.436,-3.1531,-3.1213,-3.1428,-3.2423,-3.1104,-2.9616,-2.9871,-2.7862,-2.5332,-2.2744,-2.0847,-1.8223,-1.3667,-1.1694,-0.971,-0.6788,-0.6147,-0.5772,-0.5084,-0.5138,-0.4819,-0.3792,-0.3875,-0.3365,-0.1753,-0.1655,-0.1564,-0.1278,-0.1209,-0.1344,-0.1678,-0.2079,-0.2614,-0.3149,-0.4276,-0.5008,-0.5276,-0.6001,-0.64,-0.64,-0.64,-0.6793,-0.7521,-0.7521,-0.7857,-0.8517,-0.8517,-0.8517,-0.8517,-0.8517,-0.8517,-0.8517,-0.8517,-0.8517,-0.8463,-0.8285,-0.8128,-0.7987,-0.726,-0.6859,-0.6597,-0.6859,-0.6728,-0.6576,-0.7053,-0.7157,-0.7019,-0.6661,-0.6467,-0.6362,-0.6195,-0.6096,-0.6014,-0.5912,-0.5541,-0.5182,-0.508,-0.4782,-0.4574,-0.4897,-0.4952,-0.5062,-0.5281,-0.5391,-0.5391,-0.5007,-0.4952,-0.4842,-0.4519,-0.4791,-0.4842,-0.4515,-0.4791,-0.5023,-0.5193,-0.5272,-0.5314,-0.5314,-0.54,-0.5528,-0.5663,-0.5884,-0.6161,-0.6406,-0.5966,-0.5776,-0.5844,-0.5614,-0.5535,-0.5677,-0.5326,-0.4637,-3.2109,-3.192,-3.1901,-3.2651,-3.1834,-3.0686,-3.0108,-2.8811,-2.6984,-2.4493,-2.2582,-2.0131,-1.6077,-1.3642,-1.1473,-0.9043,-0.8108,-0.7271,-0.6057,-0.6029,-0.5788,-0.4914,-0.468,-0.4191,-0.3002,-0.2523,-0.2281,-0.2079,-0.2079,-0.2213,-0.2414,-0.2882,-0.3284,-0.3487,-0.4878,-0.5606,-0.5606,-0.6531,-0.6994,-0.6994,-0.7116,-0.7512,-0.7977,-0.8102,-0.8431,-0.8888,-0.8888,-0.9017,-0.9204,-0.9017,-0.9017,-0.9139,-0.8952,-0.8888,-0.8888,-0.8888,-0.8829,-0.8635,-0.8177,-0.7972,-0.7897,-0.7822,-0.7545,-0.7319,-0.768,-0.7634,-0.738,-0.7036,-0.6904,-0.687,-0.6749,-0.6666,-0.6587,-0.6444,-0.6085,-0.5667,-0.5364,-0.5117,-0.5007,-0.5062,-0.5226,-0.5336,-0.5496,-0.5769,-0.5932,-0.5828,-0.5769,-0.5609,-0.5062,-0.5336,-0.5391,-0.5007,-0.5336,-0.561,-0.5749,-0.5762,-0.5762,-0.5762,-0.588,-0.5951,-0.5993,-0.6347,-0.6653,-0.6832,-0.6327,-0.6002,-0.5867,-0.5624,-0.5448,-0.5406,-0.5406,-0.4642,-3.1824,-3.1057,-3.0367,-3.2109,-3.1474,-3.0493,-3.0714,-2.9915,-2.8519,-2.6207,-2.3614,-2.0759,-1.7385,-1.4953,-1.2711,-1.0473,-0.9566,-0.8512,-0.663,-0.6418,-0.6079,-0.5177,-0.4677,-0.4607,-0.5237,-0.3888,-0.2686,-0.1945,-0.2012,-0.2414,-0.3149,-0.3215,-0.3553,-0.4233,-0.5613,-0.64,-0.64,-0.7717,-0.8447,-0.8447,-0.8952,-0.921,-0.9274,-0.9703,-0.9952,-0.9958,-0.9958,-1.0332,-1.0892,-1.0205,-1.0325,-1.0829,-1.0205,-0.9958,-0.9958,-0.9958,-0.9646,-0.9274,-0.9274,-0.9134,-0.9076,-0.9826,-0.9242,-0.8404,-0.9238,-0.8915,-0.8193,-0.779,-0.7502,-0.7198,-0.683,-0.6564,-0.6416,-0.6411,-0.6314,-0.5996,-0.5445,-0.5769,-0.5828,-0.4736,-0.4952,-0.5496,-0.61,-0.5714,-0.5719,-0.6864,-0.7031,-0.681,-0.6209,-0.6154,-0.6154,-0.6154,-0.6154,-0.6154,-0.6164,-0.6164,-0.6164,-0.6164,-0.6168,-0.644,-0.7041,-0.65,-0.65,-0.7047,-0.651,-0.6003,-0.5628,-0.5574,-0.5376,-0.4942,-0.4942,-0.42,-3.115,-3.096,-3.0635,-3.1881,-3.1237,-3.0381,-3.0566,-2.9434,-2.8009,-2.6785,-2.466,-2.2236,-1.9714,-1.7799,-1.596,-1.386,-1.2352,-1.1078,-0.9904,-0.8857,-0.7976,-0.7214,-0.6101,-0.549,-0.5493,-0.4634,-0.4172,-0.4225,-0.4287,-0.4483,-0.4942,-0.5008,-0.5209,-0.5679,-0.6911,-0.7562,-0.7562,-0.8865,-0.9518,-0.9518,-1.0142,-1.0458,-1.0458,-1.1066,-1.1301,-1.1301,-1.1301,-1.1487,-1.168,-1.1432,-1.1487,-1.1618,-1.1432,-1.1301,-1.1301,-1.1301,-1.1232,-1.1027,-1.0077,-0.9712,-0.9674,-0.964,-0.9367,-0.893,-0.8782,-0.8526,-0.8217,-0.7906,-0.7764,-0.7658,-0.7522,-0.7428,-0.7367,-0.7367,-0.709,-0.6756,-0.6534,-0.6317,-0.6209,-0.6209,-0.6372,-0.6534,-0.6756,-0.6918,-0.7187,-0.7574,-0.6972,-0.6593,-0.6756,-0.6426,-0.6209,-0.6209,-0.6534,-0.681,-0.681,-0.681,-0.681,-0.681,-0.681,-0.6864,-0.7085,-0.7246,-0.7408,-0.7628,-0.7085,-0.6519,-0.5981,-0.5592,-0.5182,-0.4769,-0.4769,-0.4099,-3.0414,-3.1035,-3.0979,-3.1642,-3.1255,-3.0654,-3.0508,-2.9404,-2.8169,-2.7347,-2.5612,-2.3673,-2.1792,-2.0414,-1.9007,-1.7307,-1.5722,-1.4303,-1.3157,-1.1801,-1.0479,-0.9197,-0.8023,-0.7022,-0.6378,-0.5975,-0.5508,-0.4773,-0.5007,-0.5212,-0.5418,-0.5741,-0.6001,-0.6203,-0.7747,-0.8586,-0.8586,-0.999,-1.0933,-1.1279,-1.1712,-1.2143,-1.257,-1.2987,-1.3168,-1.3168,-1.3168,-1.3339,-1.3519,-1.3279,-1.3339,-1.3528,-1.3288,-1.3083,-1.2915,-1.2915,-1.2805,-1.2486,-1.1202,-1.0827,-1.0792,-1.0333,-1.0107,-0.9834,-0.9207,-0.8902,-0.8699,-0.8579,-0.8527,-0.8527,-0.8527,-0.8527,-0.8527,-0.8527,-0.8256,-0.7871,-0.7498,-0.723,-0.7069,-0.6804,-0.6972,-0.7085,-0.7085,-0.7521,-0.7901,-0.7901,-0.73,-0.6972,-0.7354,-0.7025,-0.681,-0.681,-0.7139,-0.7413,-0.7413,-0.7413,-0.7413,-0.7413,-0.7413,-0.7413,-0.7413,-0.7741,-0.7901,-0.7901,-0.7574,-0.6972,-0.6209,-0.5828,-0.5286,-0.4609,-0.4609,-0.4022,-2.9364,-3.0997,-3.1197,-3.1397,-3.1388,-3.1154,-3.0514,-2.9798,-2.8968,-2.7875,-2.6519,-2.5055,-2.352,-2.271,-2.1916,-2.0744,-1.946,-1.8081,-1.6554,-1.5196,-1.3598,-1.1454,-1.0599,-0.9646,-0.8364,-0.8225,-0.706,-0.4207,0.0,-0.4891,-0.4831,-0.5609,-0.6067,-0.6067,-0.8243,-0.9394,-0.9394,-1.1272,-1.2736,-1.3723,-1.3773,-1.4381,-1.5408,-1.5466,-1.5466,-1.5466,-1.5466,-1.583,-1.6363,-1.5743,-1.579,-1.6331,-1.5646,-1.5094,-1.4629,-1.4629,-1.4291,-1.3695,-1.2672,-1.2369,-1.237,-1.1927,-1.1472,-1.1064,-1.0585,-1.0079,-0.9658,-0.9658,-0.9658,-0.9666,-0.9614,-0.9614,-0.9614,-0.9614,-0.9614,-0.9295,-0.8218,-0.8442,-0.8349,-0.6686,-0.6858,-0.7241,-0.7241,-0.7628,-0.7955,-0.7955,-0.7955,-0.7955,-0.7955,-0.7955,-0.7955,-0.8008,-0.8002,-0.7955,-0.7955,-0.7955,-0.7955,-0.7901,-0.7901,-0.7901,-0.7901,-0.7901,-0.7901,-0.7901,-0.7848,-0.73,-0.6209,-0.6154,-0.5609,-0.4519,-0.4519,-0.3849,-2.4264,-2.7641,-3.0606,-3.0676,-3.0532,-3.024,-2.9832,-2.9304,-2.8764,-2.8159,-2.7666,-2.6935,-2.5572,-2.4915,-2.4469,-2.422,-2.2592,-2.1549,-2.1943,-2.0254,-1.8809,-1.8395,-1.676,-1.5584,-1.539,-1.4472,-1.3042,-1.086,-0.8765,-0.763,-0.7842,-0.8102,-0.8355,-0.8603,-1.0517,-1.1552,-1.1552,-1.3915,-1.5195,-1.5491,-1.6364,-1.6939,-1.7247,-1.7705,-1.789,-1.789,-1.789,-1.7997,-1.8093,-1.7489,-1.7352,-1.7433,-1.6837,-1.6458,-1.6345,-1.6345,-1.6067,-1.5601,-1.5312,-1.4357,-1.3237,-1.2805,-1.231,-1.1813,-1.134,-1.0872,-1.0485,-1.0485,-1.0485,-1.0442,-1.0108,-1.0064,-0.9961,-0.9658,-0.9614,-0.9503,-0.9235,-0.9295,-0.9242,-0.8817,-0.8869,-0.8981,-0.8981,-0.9093,-0.904,-0.8626,-0.8935,-0.904,-0.862,-0.8567,-0.8725,-0.9145,-0.9145,-0.8988,-0.8626,-0.8567,-0.8368,-0.7955,-0.7901,-0.7901,-0.7901,-0.7901,-0.7901,-0.7901,-0.7521,-0.6918,-0.6209,-0.5769,-0.5171,-0.4519,-0.4519,-0.3849,-1.7902,-2.2738,-2.6972,-2.6933,-2.8564,-3.0018,-2.9424,-2.9021,-2.8666,-2.8308,-2.8146,-2.7877,-2.7296,-2.7554,-2.7752,-2.742,-2.6463,-2.5921,-2.6259,-2.4585,-2.3001,-2.2113,-2.0829,-1.9615,-1.8544,-1.8054,-1.725,-1.5948,-1.2993,-1.1016,-1.0361,-1.0925,-1.1294,-1.1532,-1.3229,-1.4473,-1.5318,-1.6918,-1.7912,-1.8178,-1.9157,-1.977,-2.0041,-2.0698,-2.0784,-2.0473,0.0,-2.0292,-1.9898,-1.9575,-1.9441,-1.94,-1.9078,-1.8782,-1.8567,-1.8567,-1.8274,-1.7774,-1.733,-1.6712,-1.592,-1.4529,-1.3905,-1.3657,-1.3027,-1.2666,-1.2397,-1.2231,-1.2143,-1.2046,-1.1639,-1.1499,-1.1408,-1.0981,-1.1015,-1.1048,-1.0559,-1.0501,-1.0356,-0.971,-0.9614,-0.9614,-0.9614,-0.9614,-0.951,-0.9197,-0.9406,-0.9562,-0.951,-0.9295,-0.9249,-0.9562,-0.9614,-0.9458,-0.9197,-0.9145,-0.8883,-0.8315,-0.8315,-0.8162,-0.7901,-0.7901,-0.7901,-0.7901,-0.7628,-0.7025,-0.6209,-0.5882,-0.5281,-0.4519,-0.4519,-0.3849,-1.1147,-1.666,-2.1108,-2.1138,-2.4594,-2.7967,-2.7807,-2.7666,-2.7662,-2.8074,-2.8191,-2.8254,-2.8472,-2.9764,-3.0582,-2.9995,-3.0083,-3.0046,-2.965,-2.7307,-2.5312,-2.4353,-2.2014,-2.0011,-1.8713,-1.9161,-1.9224,-1.8547,-1.7106,-1.539,-1.3341,-1.4311,-1.505,-1.5239,-1.6373,-1.7894,-1.9755,-2.0337,-2.0887,-2.1421,-2.1961,-2.2572,-2.3182,-2.36,-2.349,-2.2907,-2.277,0.0,-2.1698,-2.1605,-2.1559,-2.1543,-2.145,-2.1183,-2.0736,-2.0736,-2.0379,-1.9783,-1.9027,-1.91,-1.9144,-1.6582,-1.5959,-1.6063,-1.5318,-1.5066,-1.5,-1.4473,-1.4347,-1.422,-1.3695,-1.3564,-1.3385,-1.2871,-1.3092,-1.31,-1.2141,-1.1935,-1.158,-1.0269,-0.9969,-1.002,-1.0064,-1.0012,-0.9969,-0.9961,-0.9969,-1.0123,-1.0498,-1.0079,-0.9718,-0.9821,-0.9821,-0.9769,-0.9718,-0.9718,-0.9458,-0.8935,-0.8883,-0.8626,-0.8055,-0.8002,-0.8002,-0.7901,-0.7848,-0.73,-0.6317,-0.6263,-0.5664,-0.4625,-0.4625,-0.3901,-0.58,-0.9708,-1.3375,-1.3869,-1.4725,-1.6493,-2.0479,-2.1463,-2.263,-2.666,-2.8123,-2.8534,-2.81,-2.8889,-2.9803,-3.0438,-3.0564,-3.0961,-3.2,-2.5244,-2.2399,-2.8379,-1.6285,-0.9836,-1.5843,-1.6452,-1.5859,-1.4372,-2.0251,-2.2464,-1.9214,-1.9265,-1.9974,-2.1241,-2.0788,-2.1604,-2.3835,-2.4314,-2.463,-2.4763,-2.4616,-2.4968,-2.5702,-2.434,-2.4012,-2.4557,-2.3758,0.0,-2.3169,-2.2678,-2.2458,-2.2438,-2.1859,-2.1597,-2.1524,-2.1524,-2.1032,-2.0458,-2.0948,-2.0814,-2.0174,-1.8324,-1.7882,-1.8139,-1.8134,-1.7889,-1.7441,-1.6889,-1.6725,-1.6491,-1.5572,-1.5333,-1.5168,-1.4336,-1.4255,-1.4185,-1.3658,-1.3195,-1.2783,-1.2098,-1.2017,-1.2098,-1.2492,-1.2227,-1.194,-1.1877,-1.1922,-1.185,-1.1425,-1.0736,-1.0446,-1.0964,-1.1015,-1.0804,-1.0293,-1.0241,-1.0035,-0.951,-0.9458,-0.9197,-0.8672,-0.862,-0.8415,-0.7901,-0.7467,-0.7139,-0.6918,-0.6426,-0.5823,-0.5171,-0.5171,-0.4284,0.104,-0.2817,-0.6787,-0.7204,-0.9348,-1.1906,-1.3918,-1.4425,-1.5058,-1.7048,-1.8097,-1.8419,-1.7679,-1.8554,-1.9306,-1.916,-1.9497,-1.9931,-2.036,-1.6086,-1.4062,-1.7103,-0.983,-0.5908,-0.9328,-0.9798,-1.1067,-1.3971,-1.7945,-2.0572,-2.1333,-2.1754,-2.2548,-2.3801,-2.3795,-2.4144,-2.489,-2.5433,-2.5528,-2.5188,-2.5295,-2.5578,-2.5968,-2.5557,-2.5368,-2.5347,-2.4967,0.0,-2.414,-2.3853,-2.3767,-2.3755,-2.3444,-2.33,-2.3328,-2.3307,-2.307,-2.2721,-2.2592,-2.2573,-2.2411,-2.1128,-2.0568,-2.0378,-2.0178,-1.9956,-1.9651,-1.9066,-1.8921,-1.8708,-1.7838,-1.7609,-1.7326,-1.6216,-1.5745,-1.5437,-1.5015,-1.4563,-1.3986,-1.3369,-1.3236,-1.3283,-1.3538,-1.3369,-1.3226,-1.3127,-1.2976,-1.2764,-1.2492,-1.1882,-1.1519,-1.1628,-1.1427,-1.1167,-1.0913,-1.0863,-1.06,-1.0035,-1.0035,-0.9769,-0.9249,-0.919,-0.8935,-0.8368,-0.8096,-0.7717,-0.7085,-0.681,-0.6209,-0.5277,-0.5277,-0.456,0.678,0.3636,0.0369,0.0051,-0.3146,-0.6303,-0.6804,-0.6999,-0.7252,-0.7767,-0.8404,-0.8568,-0.7586,-0.8498,-0.908,-0.8094,-0.8477,-0.8724,-0.8246,-0.6007,-0.4569,-0.5099,-0.166,0.025,-0.1131,-0.152,-0.4054,-0.9772,-1.302,-1.7143,-2.2652,-2.3333,-2.4063,-2.5178,-2.5633,-2.5726,-2.5444,-2.5926,-2.5915,-2.5387,-2.5622,-2.5822,-2.6049,-2.6354,-2.6247,-2.5792,-2.5707,0.0,0.0,-2.4713,-2.4752,-2.4801,-2.4801,-2.4801,-2.4803,-2.4803,-2.4701,-2.448,-2.386,-2.3931,-2.4196,-2.3639,-2.3038,-2.2424,-2.1982,-2.1821,-2.1713,-2.115,-2.0966,-2.0736,-2.0036,-1.9841,-1.9492,-1.8307,-1.7516,-1.6907,-1.6448,-1.5979,-1.5392,-1.4608,-1.4345,-1.431,-1.4448,-1.4275,-1.4193,-1.4275,-1.3924,-1.3606,-1.3606,-1.3208,-1.2745,-1.2353,-1.1769,-1.1427,-1.1427,-1.1326,-1.1116,-1.0608,-1.0608,-1.0344,-0.9769,-0.9769,-0.951,-0.8981,-0.8883,-0.8355,-0.7456,-0.7246,-0.6534,-0.55,-0.5336,-0.4673,0.9087,0.9268,0.9678,0.9144,0.8358,0.6625,0.2225,0.078,-0.0826,-0.5227,-0.6794,-0.6983,-0.5686,-0.6265,-0.6736,-0.6155,-0.6202,-0.6149,-0.5551,0.0941,0.3326,-0.2955,0.9841,1.6045,0.8056,0.7363,0.6928,0.5786,-0.6247,-1.7018,-2.4942,-2.4762,-2.5041,-2.6477,-2.5766,-2.5939,-2.7167,-2.7117,-2.7139,-2.7231,-2.6507,-2.6585,-2.7368,-2.5867,-2.5538,-2.6107,-2.5272,0.0,0.0,-2.4785,-2.4784,-2.4802,-2.4802,-2.4802,-2.4803,-2.4804,-2.4374,-2.3903,-2.4603,-2.4445,-2.4069,-2.4764,-2.4505,-2.3912,-2.3912,-2.387,-2.3707,-2.3105,-2.2775,-2.2457,-2.1812,-2.1535,-2.12,-2.0464,-1.9665,-1.8788,-1.7974,-1.7611,-1.7221,-1.6316,-1.5823,-1.5704,-1.6188,-1.5555,-1.513,-1.5555,-1.522,-1.4915,-1.4915,-1.456,-1.4133,-1.3674,-1.254,-1.1828,-1.1828,-1.1519,-1.1276,-1.1226,-1.1226,-1.0964,-1.0352,-1.0352,-1.0087,-0.9562,-0.904,-0.8725,-0.862,-0.761,-0.6756,-0.61,-0.555,-0.4673,1.0225,1.0634,1.1162,1.107,1.1018,1.0542,0.8602,0.8029,0.7535,0.6031,0.5214,0.5445,0.7619,0.745,0.7537,0.9159,0.9375,0.9541,1.0121,1.3307,1.4687,1.2175,1.7918,2.0707,1.7158,1.6055,1.3498,0.8547,-0.0881,-0.9504,-1.6649,-2.1302,-2.4433,-2.5858,-2.5671,-2.566,-2.5953,-2.5944,-2.5792,-2.5499,-2.5089,-2.5126,-2.5583,-2.4985,-2.4864,-2.5165,-2.488,0.0,0.0,-2.4861,-2.4934,-2.5043,-2.5043,-2.5043,-2.5043,-2.5035,-2.4851,-2.4645,-2.4999,-2.4894,-2.468,-2.5021,-2.4937,-2.4707,-2.4696,-2.4683,-2.462,-2.4258,-2.4119,-2.3967,-2.3529,-2.2856,-2.2263,-2.2002,-2.1288,-2.0496,-1.971,-1.9485,-1.9235,-1.8464,-1.7885,-1.7584,-1.7784,-1.7011,-1.6411,-1.6625,-1.6008,-1.5534,-1.5534,-1.513,-1.4812,-1.4582,-1.3426,-1.2579,-1.2274,-1.1877,-1.1678,-1.1678,-1.1418,-1.1167,-1.0964,-1.0964,-1.0651,-1.0087,-0.9562,-0.9145,-0.8778,-0.7664,-0.681,-0.6209,-0.5609,-0.4897,1.1762,1.2158,1.2591,1.2703,1.2754,1.2797,1.289,1.2864,1.2956,1.3511,1.349,1.4068,1.6323,1.6725,1.7373,1.9346,1.9851,2.0246,2.1,2.1564,2.2023,2.2548,2.2771,2.2715,2.2223,2.0799,1.7492,1.1591,0.4964,-0.0819,-0.5432,-1.4637,-2.1141,-2.4212,-2.4515,-2.4563,-2.4417,-2.4535,-2.4405,-2.4021,-2.3892,-2.3923,-2.4116,-2.4155,-2.421,-2.421,-2.4312,0.0,0.0,-2.4489,-2.4629,-2.4827,-2.4827,-2.486,-2.4926,-2.4917,-2.4955,-2.4968,-2.4941,-2.492,-2.4893,-2.4935,-2.4954,-2.4946,-2.4974,-2.4999,-2.5026,-2.494,-2.4932,-2.4891,-2.4613,-2.3913,-2.3283,-2.3283,-2.2682,-2.1946,-2.1387,-2.1141,-2.0902,-2.0303,-1.9699,-1.9254,-1.9254,-1.8355,-1.7653,-1.7653,-1.6925,-1.6343,-1.6225,-1.5932,-1.5623,-1.5322,-1.4492,-1.3653,-1.2939,-1.2501,-1.2255,-1.2076,-1.1728,-1.1477,-1.1477,-1.1377,-1.1015,-1.0395,-0.988,-0.9354,-0.8778,-0.7498,-0.6593,-0.6209,-0.5445,-0.4787,1.4153,1.4711,1.5533,1.54,1.4913,1.4578,1.506,1.4549,1.4025,1.4176,1.4595,1.5325,1.6382,1.7554,1.875,1.9893,2.0703,2.1578,2.2814,2.3107,2.3404,2.3947,2.4038,2.3441,2.1774,2.015,1.8755,1.7679,1.1748,0.0,0.7529,-0.4541,-1.458,-2.1536,-2.2,-2.2424,-2.3021,-2.3283,-2.3468,-2.361,-2.3459,-2.3486,-2.362,-2.3538,-2.3516,0.0,0.0,0.0,0.0,-2.3498,-2.3684,-2.3905,-2.3905,-2.4078,-2.4321,-2.4303,-2.4337,-2.4402,-2.4335,-2.4349,-2.4428,-2.4561,-2.461,-2.464,-2.4836,-2.4889,-2.4948,-2.5143,-2.5156,-2.5046,-2.484,-2.4589,-2.4379,-2.4379,-2.3823,-2.3173,-2.2853,-2.2452,-2.2048,-2.1658,-2.1038,-2.0591,-2.0591,-1.9541,-1.8697,-1.8697,-1.8182,-1.7639,-1.724,-1.7199,-1.6808,-1.5876,-1.5788,-1.5242,-1.3909,-1.3416,-1.3006,-1.252,-1.2126,-1.1877,-1.1877,-1.1519,-1.1015,-1.0395,-0.988,-0.9354,-0.8778,-0.7063,-0.6209,-0.6154,-0.5062,-0.4181,1.4165,1.4501,1.4868,1.5021,1.4968,1.4914,1.5306,1.5439,1.5543,1.582,1.6213,1.682,1.7931,1.8773,1.9687,2.0858,2.1592,2.2484,2.3836,2.4061,2.4196,2.4447,2.3406,2.1998,2.0257,1.974,1.8919,1.7679,1.5807,1.2687,0.7968,-0.0264,-0.7929,-1.4713,-1.9233,-2.1761,-2.2164,-2.2248,-2.2368,-2.2513,-2.2424,-2.2609,-2.2986,-2.293,-2.3021,0.0,0.0,0.0,0.0,-2.3356,-2.3574,-2.3885,-2.3705,-2.3905,-2.4284,-2.4079,-2.4003,-2.3967,-2.3908,-2.3868,-2.3848,-2.3848,-2.3946,-2.4061,-2.4118,-2.4515,-2.4986,-2.5103,-2.5158,-2.5149,-2.5094,-2.4973,-2.4873,-2.4873,-2.4617,-2.4298,-2.3971,-2.3783,-2.3565,-2.3119,-2.2526,-2.2072,-2.1936,-2.0839,-2.0007,-2.0007,-1.9104,-1.8373,-1.8257,-1.8118,-1.7787,-1.7229,-1.712,-1.6451,-1.4846,-1.405,-1.3532,-1.3409,-1.2706,-1.2175,-1.1927,-1.1778,-1.1469,-1.1015,-1.0079,-0.951,-0.9354,-0.7219,-0.5823,-0.5011,-0.468,-0.4405,1.4879,1.5081,1.5399,1.5842,1.573,1.5571,1.5936,1.6194,1.6386,1.6667,1.7284,1.8066,1.8851,1.9806,2.0807,2.1744,2.2364,2.3152,2.4267,2.4624,2.4683,2.4446,2.2981,2.1397,1.9815,1.9393,1.8803,1.7842,1.772,1.5843,1.15,0.5242,-0.0112,-0.4326,-1.5426,-2.1402,-2.1617,-2.1738,-2.1853,-2.1919,-2.1878,-2.2034,-2.2432,-2.2368,-2.251,0.0,0.0,0.0,0.0,-2.2908,-2.3135,-2.3437,-2.3259,-2.3459,-2.3819,-2.3653,-2.3653,-2.3674,-2.3526,-2.3455,-2.345,-2.3369,-2.35,-2.3692,-2.3774,-2.4244,-2.4737,-2.4791,-2.4966,-2.5122,-2.5122,-2.5122,-2.5149,-2.5149,-2.5055,-2.4923,-2.4706,-2.461,-2.4473,-2.4165,-2.3707,-2.3315,-2.3145,-2.2168,-2.1375,-2.1236,-2.0317,-1.9582,-1.9328,-1.9097,-1.8769,-1.8182,-1.7866,-1.7218,-1.602,-1.5062,-1.4468,-1.4294,-1.3457,-1.289,-1.2638,-1.2314,-1.1819,-1.12,-1.0474,-0.9961,-0.9614,-0.7747,-0.614,-0.4787,-0.4787,-0.468,0.0,1.6358,1.6828,1.7601,1.7044,1.6479,1.6934,1.6923,0.0,1.691,1.7991,1.903,1.9474,2.0798,2.1989,2.2458,2.3094,2.3733,2.4369,2.5006,2.5077,2.4078,2.2775,2.1465,2.02,1.918,1.8528,1.8189,1.7895,1.7557,1.7199,1.1156,0.7693,0.7685,-1.0276,-2.0147,-2.0575,-2.1348,-2.1738,-2.1738,-2.1648,-2.1721,-2.194,-2.1882,-2.2003,0.0,0.0,0.0,0.0,-2.231,-2.246,-2.2712,-2.2685,-2.285,-2.3109,-2.3084,-2.323,-2.3412,-2.3151,-2.3102,-2.314,-2.3087,-2.3253,-2.3477,-2.3638,-2.3948,-2.428,-2.4279,-2.4614,-2.4953,-2.4965,-2.5076,-2.5192,-2.5192,-2.5156,-2.5111,-2.5106,-2.4981,-2.4851,-2.4828,-2.4563,-2.4314,-2.4174,-2.3455,-2.2768,-2.2392,-2.1792,-2.1157,-2.0525,-2.0193,-1.9732,-1.8943,-1.8268,-1.7706,-1.738,-1.6398,-1.5623,-1.5198,-1.434,-1.3862,-1.3815,-1.2987,-1.2098,-1.1065,-1.0965,-1.0466,-0.9458,-0.8429,-0.6993,-0.5277,-0.5277,-0.5007,1.8517,0.0,1.7227,1.8142,1.7686,1.7255,0.0,1.8342,1.8466,1.9214,1.9767,2.0401,2.1464,2.1968,2.2392,2.3096,2.4133,2.533,2.6627,2.7147,2.6738,2.4953,2.2996,2.1248,1.9901,1.9301,1.8707,1.8082,1.7948,1.7639,1.7002,1.0953,0.7492,0.7556,-0.1617,-0.8818,-1.3599,-1.8546,-2.1055,-2.1039,-2.0974,-2.1103,-2.1388,-2.1479,-2.1691,0.0,0.0,0.0,-2.231,-2.231,-2.246,-2.2685,-2.2487,-2.2694,-2.3084,-2.2876,-2.2825,-2.2876,-2.2756,-2.2668,-2.2632,-2.2807,-2.291,-2.2905,-2.2517,-2.3117,-2.3943,-2.4099,-2.4298,-2.4511,-2.4708,-2.491,-2.5043,-2.5043,-2.5147,-2.5234,-2.5186,-2.5254,-2.5269,-2.5065,-2.4928,-2.4796,-2.4674,-2.4169,-2.3769,-2.3666,-2.2821,-2.2109,-2.1781,-2.152,-2.1111,-2.0442,-1.9767,-1.9265,-1.8896,-1.6998,-1.5744,-1.5623,-1.5085,-1.449,-1.3815,-1.3331,-1.2618,-1.171,-1.0947,-0.9799,-0.8324,-0.8053,-0.6993,-0.5277,-0.5277,-0.5007,1.9299,1.8779,1.8321,1.9371,1.8902,1.846,1.9381,1.9416,1.9534,2.0316,2.1155,2.2004,2.2827,2.3507,2.4088,2.4656,2.5621,2.6606,2.7656,2.7288,2.6468,2.517,2.2965,2.1168,0.0,1.9359,1.8592,1.8028,1.7814,1.7462,1.6918,1.3652,1.1768,1.184,0.5669,-0.0645,-0.6869,-1.0372,-1.3547,-1.6454,-1.64,-1.8067,-2.1215,-2.1198,-2.137,0.0,0.0,0.0,-2.2077,-2.2254,-2.2394,-2.2515,-2.2366,-2.247,-2.2721,-2.2579,-2.2579,-2.2685,-2.2588,-2.247,-2.236,-2.2436,-2.2473,-2.2459,-2.2347,-2.2776,-2.3276,-2.3283,-2.3651,-2.4137,-2.4355,-2.4548,-2.47,-2.4826,-2.5031,-2.5158,-2.5128,-2.5236,-2.5323,-2.5211,-2.5157,-2.5085,-2.4924,-2.4669,-2.4439,-2.4228,-2.3653,-2.3158,-2.2915,-2.2488,-2.2029,-2.1569,-2.0783,-2.0073,-1.9447,-1.8034,-1.6944,-1.6484,-1.58,-1.513,-1.4433,-1.3967,-1.3256,-1.2175,-1.12,-1.0005,-0.8698,-0.8159,-0.7154,-0.5714,-0.5441,-0.4842,1.9633,1.9727,1.9893,2.0582,2.0144,1.9626,2.0284,2.0311,2.0392,2.1041,2.2353,2.3511,2.4116,2.5123,2.6031,2.6611,2.7396,2.8057,2.8381,2.7076,2.5909,2.5207,2.2987,0.0,2.0805,1.9435,1.8436,1.8108,1.7652,1.7256,1.696,1.6876,1.6876,1.696,1.1737,0.6422,0.1105,-0.0826,-0.5001,-1.1316,-1.1316,-1.4755,-2.1151,-2.1055,-2.115,-2.1339,0.0,0.0,-2.1768,-2.202,-2.2152,-2.2152,-2.2152,-2.218,-2.2209,-2.2209,-2.2405,-2.2605,-2.2487,-2.236,-2.226,-2.2169,-2.2124,-2.2147,-2.2384,-2.2555,-2.2555,-2.1896,-2.2665,-2.3749,-2.3985,-2.4137,-2.4316,-2.4594,-2.4776,-2.4905,-2.4948,-2.5059,-2.5187,-2.5274,-2.5271,-2.5233,-2.5105,-2.5041,-2.4884,-2.4467,-2.4296,-2.41,-2.3806,-2.3287,-2.2762,-2.2363,-2.1549,-2.0687,-1.9843,-1.917,-1.8436,-1.7612,-1.66,-1.5744,-1.5142,-1.4593,-1.3752,-1.252,-1.1534,-1.0517,-0.9614,-0.8435,-0.732,-0.6209,-0.5609,-0.4673,2.0998,2.1372,2.1387,2.0849,2.0292,2.0093,2.0836,2.1017,2.139,2.2663,2.3464,2.4517,2.6305,2.6367,2.6551,2.7856,2.9317,3.032,3.0363,2.9342,2.7886,2.6047,0.0,2.1575,2.1015,1.9721,1.8774,1.8436,1.7988,1.7557,1.7157,1.6778,1.662,1.6718,1.5927,1.5024,1.4099,0.3525,-0.5001,-1.1316,-1.1316,-1.4666,-2.086,-2.1071,-2.1151,-2.1071,0.0,-2.1448,-2.137,-2.1432,-2.1462,-2.1462,-2.1462,-2.1631,-2.1886,-2.1886,-2.2077,-2.2366,-2.2282,-2.2163,-2.2056,-2.2215,-2.2169,-2.2012,-2.149,-2.1977,-2.2183,-1.9757,-2.1072,-2.3295,-2.373,-2.3933,-2.4117,-2.4449,-2.4459,-2.4482,-2.4697,-2.4892,-2.5071,-2.5194,-2.5218,-2.5252,-2.5409,-2.5239,-2.5039,-2.4905,-2.4784,-2.4534,-2.4099,-2.3943,-2.3635,-2.3042,-2.238,-2.1831,-2.1469,-2.0138,-1.9229,-1.9082,-1.7773,-1.6441,-1.5231,-1.4329,-1.3484,-1.2618,-1.1516,-1.0517,-0.9614,-0.8435,-0.732,-0.6209,-0.5609,-0.4673,2.0489,2.1056,2.1433,2.1511,2.1442,2.1601,2.2658,2.2728,2.2964,2.4283,2.5077,2.5749,2.6442,2.7222,2.8189,2.9285,2.9805,3.0061,3.0061,2.8653,2.7281,0.0,0.0,2.1702,2.1538,2.0003,1.8865,1.8514,0.0,0.0,1.724,1.6485,1.6124,1.6274,1.6373,1.6455,1.6591,1.1196,0.5281,-0.1088,-0.4504,-0.9505,-1.5785,-1.9329,-2.086,-2.073,0.0,-2.1087,-2.1023,-2.1245,-2.1308,-2.1308,-2.1308,-2.1401,-2.1524,-2.1524,-2.1631,-2.1797,-2.1873,-2.1827,-2.1764,-2.2015,-2.2015,-2.1881,-2.1581,-2.1816,-2.1601,-1.8768,-1.9831,-2.1925,-2.2124,-2.2218,-2.2585,-2.3824,-2.4264,-2.4441,-2.458,-2.4666,-2.474,-2.4817,-2.5032,-2.5234,-2.5311,-2.5332,-2.5278,-2.5174,-2.5022,-2.4832,-2.4606,-2.4314,-2.3981,-2.3671,-2.3087,-2.2495,-2.2051,-2.1224,-2.007,-1.8622,-1.7653,-1.6756,-1.594,-1.5196,-1.4228,-1.2938,-1.2132,-1.083,-0.9117,-0.7947,-0.6838,-0.5714,-0.5117,-0.4233,2.0104,2.0655,2.1211,2.2097,2.2497,2.2959,2.4217,2.4337,2.4546,2.5874,2.6572,2.6965,2.6824,2.8174,2.95,3.0038,2.9823,2.9546,2.9443,2.778,2.6517,2.6386,2.3568,2.1684,2.1659,2.0076,1.8889,1.8592,0.0,0.0,1.7154,1.616,1.5625,1.5651,1.5732,1.5812,1.5917,1.6504,1.3726,0.763,0.2745,-0.3709,-1.1467,-1.6304,-1.9253,-2.0561,-2.0745,-2.0778,-2.0728,-2.0958,-2.1087,-2.1087,-2.1087,-2.1119,-2.1182,-2.1276,-2.1308,-2.1339,-2.1556,-2.154,-2.1462,-2.1735,-2.1781,-2.1715,-2.1792,-2.1564,-2.0764,-1.8211,-1.9219,-2.0912,-2.0396,-2.0265,-2.0637,-2.2188,-2.3107,-2.3693,-2.3872,-2.3913,-2.4028,-2.4415,-2.4789,-2.5091,-2.5189,-2.5348,-2.5439,-2.54,-2.524,-2.5092,-2.5043,-2.4629,-2.4263,-2.4117,-2.3628,-2.3014,-2.2167,-2.1922,-2.0815,-1.8535,-1.7653,-1.7079,-1.6697,-1.5935,-1.4891,-1.3396,-1.2464,-1.0906,-0.8678,-0.7576,-0.6406,-0.5277,-0.4736,-0.3849,2.0887,2.1159,2.1248,2.2326,2.2857,2.339,2.4415,2.4972,2.5724,2.7345,2.7602,2.7866,2.9061,2.9474,2.9599,2.9342,2.9745,2.9965,2.9454,0.0,2.6842,2.5549,2.3305,2.1596,2.0789,1.975,1.9026,0.0,0.0,0.0,1.6858,1.5928,1.5299,1.4979,1.5043,1.5082,1.5082,1.5363,1.2885,0.7685,0.7248,0.0568,-1.1327,-1.1768,-1.5161,-2.0693,-2.0561,-2.0494,-2.0423,-2.0407,-2.0357,-2.0357,-2.0357,-2.0561,-2.0877,-2.1182,-2.1308,-2.1308,-2.1339,-2.1276,-2.1261,-2.1462,-2.1462,-2.1475,-2.1731,-2.0851,-1.9439,-1.7939,-1.9525,-2.1277,-1.9201,-1.868,-1.8702,-1.8845,-1.9998,-2.1272,-2.2024,-2.2169,-2.2641,-2.4193,-2.4524,-2.4709,-2.5197,-2.5302,-2.5408,-2.564,-2.5547,-2.54,-2.5216,-2.5041,-2.4721,-2.4174,-2.4058,-2.3436,-2.195,-2.1814,-2.1283,-2.0108,-1.8598,-1.7544,-1.7157,-1.5847,-1.4744,-1.3856,-1.2024,-1.0281,-0.8678,-0.7576,-0.6406,-0.5277,-0.4736,-0.3849,2.1022,2.173,2.2336,2.3502,2.396,2.4332,2.4836,2.5781,2.6741,2.7439,2.7928,2.8348,2.8735,2.9234,2.9438,2.8929,2.9438,2.945,2.8192,2.7241,2.6152,2.4856,2.3031,2.1566,2.0691,1.9683,0.0,0.0,0.0,0.0,1.7212,1.604,1.5205,1.4721,1.4917,1.4854,1.4511,1.5351,1.4658,1.2433,0.8503,0.2229,-0.6082,-1.0067,-1.5107,-2.0693,-2.0561,-2.0475,-2.0388,-2.0339,-2.0304,-2.0304,-2.0304,-2.0373,-2.0494,-2.0613,-2.0679,-2.0712,-2.0909,-2.0958,-2.0925,-2.123,-2.1467,-2.1669,-2.1754,-2.0147,-1.8177,-1.7646,-1.9586,-2.1738,-2.1429,-1.9943,-1.8512,-1.8498,-1.894,-1.9448,-1.9759,-2.0173,-2.1313,-2.3971,-2.4507,-2.4561,-2.4769,-2.5075,-2.5335,-2.5434,-2.5551,-2.5604,-2.5525,-2.5282,-2.5037,-2.4815,-2.4403,-2.3848,-2.3053,-2.2271,-2.1657,-2.135,-1.9854,-1.8679,-1.7961,-1.7177,-1.5855,-1.3939,-1.3175,-1.1437,-0.8678,-0.7935,-0.6768,-0.5277,-0.4229,-0.3345,2.1313,2.1876,2.2427,2.3851,2.446,2.4861,2.5212,2.6275,2.7374,2.7906,2.8464,2.8728,2.8442,2.8935,2.9227,2.8858,2.9061,2.8795,2.7519,2.658,2.5503,2.4107,2.2781,2.1553,2.0453,1.9664,0.0,0.0,0.0,0.0,0.0,1.5734,1.4755,1.4306,1.4381,1.4248,1.3892,1.4917,1.5287,1.4964,1.0871,0.5904,0.0072,-0.6311,-1.2307,-1.7831,-1.9728,-2.0543,-2.0491,-2.0407,-2.0339,-2.0339,-2.0304,-2.0304,-2.0304,-2.0304,-2.0304,-2.0339,-2.0561,-2.061,-2.061,-2.0925,-2.1231,-2.1501,-2.1732,-2.0099,-1.8254,-1.8746,-2.0262,-2.1949,-2.2513,-2.0628,-1.8488,-1.851,-1.8505,-1.8499,-1.8501,-1.8895,-1.9921,-2.2168,-2.3626,-2.4169,-2.3126,-2.4132,-2.5107,-2.5274,-2.5459,-2.5595,-2.5681,-2.5508,-2.5321,-2.5206,-2.4728,-2.4261,-2.3879,-2.3056,-2.2419,-2.2095,-2.0895,-1.9732,-1.865,-1.8027,-1.6553,-1.416,-1.3705,-1.188,-0.8626,-0.8298,-0.7026,-0.4948,-0.4006,-0.3121,2.1779,2.1541,2.1251,2.3039,2.4095,2.4889,2.5662,2.644,2.7483,2.905,2.9297,2.9054,2.8396,2.8701,2.9104,2.9257,2.8685,2.8091,2.7731,2.6455,2.4958,2.3289,2.25,2.1492,1.9959,0.0,0.0,0.0,0.0,0.0,0.0,1.4924,1.398,1.3615,1.3348,1.3223,1.3223,1.3892,1.4207,1.4207,1.4965,1.2302,0.6593,0.0216,-0.5843,-1.1664,-1.7958,-2.0693,-2.0693,-2.0561,-2.0475,-2.0388,-2.0339,-2.0304,-2.0304,-2.0304,-2.0304,-2.0304,-2.0304,-2.0304,-2.0339,-2.0626,-2.0693,-2.0843,-2.1568,-2.0787,-1.9916,-2.1378,-2.1799,-2.181,-2.1803,-2.0162,-1.8528,-1.8495,-1.8506,-1.8489,-1.8501,-1.8508,-1.8502,-1.8538,-2.1771,-2.3474,-2.0205,-2.2356,-2.4686,-2.5215,-2.5303,-2.5398,-2.5677,-2.5702,-2.5572,-2.5248,-2.5032,-2.4726,-2.4246,-2.4211,-2.364,-2.2314,-2.1648,-2.0644,-1.9169,-1.7997,-1.6545,-1.4665,-1.329,-1.1282,-0.8528,-0.8626,-0.7127,-0.4233,-0.4165,-0.3224,2.1951,2.2432,2.2957,2.3963,2.4474,2.509,2.6242,2.6776,2.7034,2.7115,2.7372,2.7328,2.6611,2.7656,2.8339,2.7476,2.758,2.7195,2.5601,2.5035,2.3983,2.1858,2.144,2.0894,1.9822,0.0,0.0,0.0,0.0,0.0,0.0,1.6007,1.5331,1.4618,1.5049,1.5019,1.4387,1.4966,1.5093,1.4777,1.5082,1.2238,0.6532,0.018,-0.5843,-1.1664,-1.7958,-2.0693,-2.0693,-2.0509,-2.0423,-2.0388,-2.0339,-2.0304,-2.0304,-2.0304,-2.0304,-2.0304,-2.0304,-2.0304,-2.0304,-2.0407,-2.0431,-2.0473,-2.0687,-2.0936,-2.1234,-2.1661,-2.1799,-2.1799,-2.1795,-2.1311,-2.0425,-1.8873,-1.8506,-1.8486,-1.8502,-1.8489,-1.915,-2.1306,-2.3232,-2.4192,-2.3217,-2.3859,-2.4544,-2.4708,-2.5067,-2.5398,-2.5677,-2.5702,-2.56,-2.5362,-2.541,-2.5416,-2.5268,-2.4617,-2.3941,-2.3358,-2.2634,-2.1609,-2.0224,-1.9051,-1.7621,-1.5828,-1.4356,-1.2378,-0.9877,-0.7986,-0.6201,-0.4663,-0.2837,-0.1505,2.2559,2.3133,2.3717,2.4719,2.5027,2.5243,2.5894,2.6301,2.644,2.5879,2.6121,2.637,2.6193,2.7162,2.7758,2.6928,2.6928,2.6387,2.4453,2.3943,2.3072,2.1159,2.0918,2.0609,0.0,0.0,0.0,0.0,0.0,0.0,0.0,1.5937,1.5407,1.4897,1.5337,1.5334,1.4838,1.5417,1.557,1.527,1.5681,1.4098,1.0548,0.402,-0.2069,-0.8023,-1.6881,-2.0744,-2.0711,-2.0509,-2.0441,-2.0441,-2.0339,-2.0304,-2.0304,-2.0304,-2.0304,-2.0304,-2.0304,-2.0304,-2.0304,-2.0235,-2.0277,-2.0304,-2.0363,-2.0863,-2.1499,-2.1727,-2.1797,-2.1807,-2.1807,-2.1807,-2.1457,-2.0136,-2.0099,-2.0327,-2.0328,-1.936,-1.9417,-2.2517,-2.3557,-2.406,-2.4432,-2.4497,-2.4485,-2.4506,-2.4962,-2.5354,-2.5526,-2.5632,-2.5657,-2.5526,-2.5639,-2.5703,-2.5693,-2.5143,-2.467,-2.4353,-2.3531,-2.2702,-2.1905,-2.015,-1.8238,-1.6287,-1.4767,-1.2932,-1.0689,-0.8619,-0.6625,-0.4645,-0.3099,-0.1501,2.3461,2.3602,2.3909,2.5249,2.5574,2.5467,2.493,2.534,2.5643,2.5096,2.5405,2.5939,2.6526,2.6978,2.7203,2.7106,2.6432,2.5439,2.3893,2.3133,2.2181,2.085,2.07,2.0511,0.0,0.0,0.0,0.0,0.0,0.0,0.0,1.5221,1.4871,1.4866,1.4892,1.491,1.4844,1.5436,1.5768,0.0,1.6507,1.6876,1.6634,0.9942,0.338,-0.3331,-1.5524,-2.0794,-2.0794,-2.0595,-2.0494,-2.0494,-2.0373,-2.0304,-2.0304,-2.0304,-2.0304,-2.0304,-2.0304,-2.0304,-2.027,-2.015,-2.0185,-2.0289,-2.0426,-2.0635,-2.0974,-2.1673,-2.1867,-2.1849,-2.1816,-2.179,-2.1811,-2.1786,-2.2474,-2.3106,-2.3106,-2.0907,-1.9643,-2.218,-2.2682,-2.2951,-2.3803,-2.4023,-2.4053,-2.4058,-2.4751,-2.5292,-2.5255,-2.5453,-2.5639,-2.5683,-2.5644,-2.5629,-2.5682,-2.5694,-2.5538,-2.5131,-2.4357,-2.3868,-2.3723,-2.1218,-1.876,-1.6435,-1.5022,-1.3128,-1.0889,-0.9813,-0.7529,-0.4136,-0.3957,-0.2151,2.3961,2.4154,2.4461,2.5137,2.5449,2.5445,2.493,2.4559,2.425,2.4,2.4346,2.488,2.5361,2.54,2.5366,2.5327,2.4722,2.3744,2.2307,2.2016,2.1424,2.0025,1.9899,1.9803,0.0,0.0,0.0,0.0,0.0,0.0,1.6913,1.652,1.6213,1.6033,1.6493,1.6478,1.5886,1.6126,1.6261,0.0,1.657,1.6718,1.6532,1.0316,0.1364,-0.9687,-1.7451,-2.0794,-2.0794,-2.0595,-2.0494,-2.0494,-2.0373,-2.0304,-2.0304,-2.0304,-2.0304,-2.0304,-2.0304,-2.0304,-2.0304,-2.027,-2.022,-2.015,-2.0185,-2.0307,-2.0687,-2.1859,-2.2186,-2.2145,-2.189,-2.1799,-2.1795,-2.1815,-2.2483,-2.3111,-2.3091,-2.2593,-2.1609,-1.982,-1.9499,-1.9556,-1.9768,-2.0264,-2.0636,-2.0637,-2.3318,-2.5203,-2.4867,-2.487,-2.5117,-2.5647,-2.5221,-2.5135,-2.5659,-2.5694,-2.552,-2.5137,-2.4909,-2.4328,-2.3211,-2.215,-2.0456,-1.8058,-1.693,-1.4245,-0.9964,-0.8037,-0.5464,-0.2332,-0.0499,0.0944,2.4917,2.5095,2.5336,2.5664,2.5626,2.5445,2.5126,2.4389,2.3827,2.3816,2.4105,2.4517,2.5013,2.4911,2.465,2.4341,2.3669,2.2702,2.1292,2.108,2.0729,1.9713,1.9647,0.0,0.0,0.0,0.0,0.0,0.0,1.6549,1.6812,1.6711,1.6558,1.6323,1.6777,1.671,1.6088,1.6306,1.6392,1.6392,1.6577,1.6718,1.6574,1.0412,0.2322,-0.7191,-1.3512,-1.7967,-2.0794,-2.0628,-2.0561,-2.0494,-2.0373,-2.0339,-2.0304,-2.0304,-2.0304,-2.0304,-2.0304,-2.0304,-2.0304,-2.022,-2.0185,-2.0185,-2.008,-2.0104,-2.0348,-2.1392,-2.1967,-2.2209,-2.1882,-2.1899,-2.2045,-2.2032,-2.2265,-2.2603,-2.3005,-2.3091,-2.2611,-2.1018,-2.0711,-2.023,-1.8751,-2.0477,-2.1946,-2.1645,-2.3539,-2.4941,-2.4733,-2.4708,-2.4835,-2.5176,-2.4911,-2.4889,-2.5363,-2.5405,-2.5387,-2.5293,-2.5074,-2.4662,-2.3997,-2.3382,-2.191,-1.9512,-1.7852,-1.5006,-1.0944,-0.8677,-0.5659,-0.2055,-0.0387,0.1164,2.5825,2.6056,2.6179,2.6272,2.5869,2.5379,2.5223,2.4484,2.3827,2.4003,2.4177,2.4467,2.4934,2.4836,2.4465,2.3765,2.3014,2.2053,2.0642,2.0413,2.0174,1.9596,1.9574,0.0,0.0,0.0,0.0,0.0,0.0,1.6554,1.65,1.659,1.652,1.6294,1.6552,1.6466,1.5957,1.6219,1.6349,1.6349,1.6534,1.6718,1.6659,1.146,0.505,-0.2425,-0.9762,-1.5943,-2.0794,-2.0711,-2.061,-2.0494,-2.0423,-2.0354,-2.0304,-2.0304,-2.0304,-2.0304,-2.0304,-2.0304,-2.027,-2.0185,-2.0185,-2.0235,-2.0076,-1.9967,-2.0071,-2.0605,-2.1471,-2.2155,-2.1877,-2.2003,-2.2228,-2.2228,-2.1998,-2.1989,-2.273,-2.3056,-2.3051,-2.2425,-2.2365,-2.1607,-1.9036,-2.1713,-2.4136,-2.3914,-2.4304,-2.4639,-2.4695,-2.4692,-2.4673,-2.4639,-2.4639,-2.4767,-2.5023,-2.5057,-2.5147,-2.5402,-2.5079,-2.4876,-2.4902,-2.4459,-2.3247,-2.115,-1.8267,-1.5181,-1.1884,-0.9268,-0.5919,-0.194,-0.066,0.0936,2.6111,2.6286,2.6326,2.6418,2.6012,2.5459,2.491,2.4436,2.4102,2.3874,2.4094,2.4369,2.4688,2.4639,2.4308,2.3661,2.2611,2.1537,2.0404,2.0035,1.9767,1.9376,1.9376,0.0,0.0,0.0,0.0,0.0,1.6811,1.6837,1.7303,1.7034,1.6824,1.6709,1.6756,1.6466,1.5836,1.6001,1.6032,1.6044,1.6318,1.6479,1.6552,1.5909,0.9189,-0.265,-1.4441,-2.0026,-2.0794,-2.0711,-2.061,-2.0494,-2.0423,-2.0354,-2.0304,-2.0304,-2.0304,-2.0304,-2.0304,-2.0304,-2.0304,-2.027,-2.022,-2.0115,-2.0106,-1.9913,-1.974,-1.9839,-2.0845,-2.1838,-2.1798,-2.1847,-2.1882,-2.1882,-2.1832,-2.1848,-2.1953,-2.291,-2.28,-1.9705,-1.9396,-1.9488,-1.9091,-2.0768,-2.2644,-2.4018,-2.4299,-2.4447,-2.4678,-2.4701,-2.4604,-2.4379,-2.44,-2.4543,-2.482,-2.484,-2.4911,-2.5067,-2.5128,-2.4975,-2.4572,-2.4654,-2.4355,-2.3625,-1.863,-1.4116,-1.0206,-0.6473,-0.3148,-0.028,0.2211,0.3531,2.6165,2.6326,2.6365,2.6312,2.6073,2.5754,2.5416,2.4765,2.4163,2.3924,2.3805,2.3879,2.443,2.4178,2.3601,2.2744,2.1859,2.0911,1.995,1.9696,1.9551,1.9339,1.9339,0.0,0.0,0.0,0.0,0.0,1.6922,1.7006,1.7462,1.7344,1.7074,1.674,1.6795,1.6466,1.576,1.5913,1.6088,1.6219,1.6349,1.6436,1.6373,1.3068,0.6574,-0.2355,-0.7807,-1.4206,-2.0794,-2.0777,-2.0711,-2.061,-2.0509,-2.0407,-2.0354,-2.0304,-2.0304,-2.0304,-2.0304,-2.0304,-2.0304,-2.0304,-2.027,-2.02,-2.0111,-1.9893,-1.968,-1.9706,-2.0155,-2.0815,-2.1595,-2.179,-2.1807,-2.1807,-2.1807,-2.1816,-2.1799,-2.2651,-2.2401,-1.9051,-1.8786,-1.9399,-2.0282,-2.1097,-2.219,-2.3786,-2.4118,-2.4229,-2.434,-2.4429,-2.4444,-2.4318,-2.3911,-2.3889,-2.4461,-2.4188,-2.4172,-2.4688,-2.4775,-2.4778,-2.4674,-2.4579,-2.442,-2.4219,-1.7124,-1.2636,-1.0991,-0.4522,-0.0271,0.1821,0.3312,0.4826,2.6218,2.6418,2.6457,2.6218,2.6165,2.6048,2.5689,2.5085,2.444,2.4022,2.3684,2.354,2.3906,2.3703,2.3185,2.2063,2.1363,2.061,1.9619,1.9384,1.9273,1.9176,1.9101,0.0,0.0,0.0,0.0,0.0,1.7002,1.7115,1.7352,1.7393,1.7186,1.6625,1.6667,1.638,1.5715,1.5869,1.6088,1.6306,1.6306,1.6392,1.6318,1.183,0.6308,0.0154,-0.2897,-0.9596,-1.8519,-2.0137,-2.0777,-2.0693,-2.061,-2.0475,-2.0388,-2.0339,-2.0304,-2.0304,-2.0304,-2.0304,-2.0304,-2.0304,-2.0304,-2.027,-2.0166,-2.0019,-1.9878,-2.0042,-2.0073,-2.032,-2.1547,-2.1856,-2.1857,-2.184,-2.1823,-2.1786,-2.1799,-2.2485,-2.23,-1.9547,-1.9404,-2.0055,-2.1107,-2.1532,-2.2099,-2.3248,-2.3804,-2.4099,-2.4095,-2.4228,-2.4303,-2.4247,-2.3713,-2.3603,-2.4211,-2.3783,-2.3742,-2.4356,-2.4428,-2.4501,-2.4615,-2.4442,-2.348,-2.1591,-1.3524,-0.9817,-1.0705,-0.1818,0.3144,0.436,0.4819,0.6095,2.6351,2.651,2.6457,2.6326,2.6286,2.6115,2.5384,2.5406,2.5271,2.3995,2.3941,2.3846,2.2946,2.3362,2.3436,2.21,2.1599,2.0931,1.9583,1.9087,1.8822,1.8822,1.8553,0.0,0.0,0.0,0.0,0.0,1.696,1.7002,1.7044,1.7157,1.6934,1.6355,1.6466,1.6262,1.5715,1.5748,1.5869,1.6032,1.6144,1.6275,1.6392,1.6255,1.2813,0.6249,-0.5658,-1.1177,-1.227,-1.8313,-2.0777,-2.0693,-2.0693,-2.0559,-2.0388,-2.0388,-2.0354,-2.0304,-2.0304,-2.0304,-2.0304,-2.0304,-2.0304,-2.0285,-2.0277,-2.0292,-2.0393,-2.1057,-2.1066,-2.1087,-2.1818,-2.198,-2.1978,-2.1969,-2.1878,-2.179,-2.18,-2.2461,-2.2676,-2.1225,-2.119,-2.1242,-2.082,-2.1582,-2.2285,-2.2378,-2.3363,-2.4113,-2.4094,-2.4228,-2.4247,-2.4133,-2.4077,-2.4058,-2.4113,-2.4077,-2.4077,-2.4113,-2.4247,-2.4266,-2.4151,-2.4372,-2.1198,-1.4196,-0.7137,-0.4852,-0.7509,0.2535,0.7466,0.7575,0.7708,0.789,2.6096,2.6365,2.6371,2.5826,2.5934,2.5955,2.5226,2.5176,2.4986,2.4149,2.3721,2.3236,2.2269,2.2649,2.2761,2.1671,2.1096,2.0481,1.9645,1.9398,1.9319,1.9384,1.9362,0.0,0.0,0.0,0.0,0.0,0.0,1.6846,1.6918,1.7002,1.6778,1.612,1.6281,1.6163,1.5715,1.5748,1.5869,1.5988,1.6144,1.6275,1.6405,1.6633,1.5466,1.2888,0.401,-0.4173,-1.178,-1.8171,-2.0794,-2.0777,-2.0726,-2.066,-2.0592,-2.0457,-2.0388,-2.0354,-2.0304,-2.0304,-2.0304,-2.0304,-2.0304,-2.0304,-2.03,-2.03,-2.045,-2.111,-2.1552,-2.1858,-2.2007,-2.2052,-2.2049,-2.1998,-2.1953,-2.1931,-2.1928,-2.2307,-2.2419,-2.1642,-2.1563,-2.1593,-2.1488,-2.1791,-2.2281,-2.2959,-2.3285,-2.3558,-2.3876,-2.3689,-2.3646,-2.3876,-2.3319,-2.3208,-2.386,-2.3386,-2.3252,-2.3689,-2.3837,-2.3899,-2.3855,-1.9724,-1.6207,-1.3551,-0.2078,0.2408,-0.0478,0.8277,1.1625,0.9932,1.0192,1.0601,2.5605,2.5988,2.6101,2.524,2.5396,2.559,2.4864,2.4826,2.4741,2.3963,2.3575,2.3119,2.1993,2.2123,2.2098,2.1175,2.0726,2.0253,1.9656,1.9614,1.9642,1.9794,0.0,0.0,0.0,0.0,0.0,0.0,0.0,0.0,1.6846,1.6918,1.6735,1.6107,1.6107,1.5988,1.5715,1.576,1.5836,1.5957,1.61,1.6231,1.6362,1.6534,1.6675,1.6298,0.9501,0.0944,-0.8703,-1.5221,-1.9064,-2.0794,-2.0744,-2.0726,-2.0693,-2.0509,-2.0423,-2.0388,-2.0304,-2.0304,-2.0304,-2.0304,-2.0304,-2.0304,-2.0304,-2.0373,-2.0592,-2.115,-2.1697,-2.2108,-2.2152,-2.2166,-2.2152,-2.2089,-2.2061,-2.2061,-2.2061,-2.2237,-2.2269,-2.1927,-2.1927,-2.1978,-2.2029,-2.2104,-2.2433,-2.3253,-2.3301,-2.3353,-2.3646,-2.3422,-2.3307,-2.354,-2.3044,-2.2976,-2.3631,-2.3077,-2.2901,-2.345,-2.3387,-2.2341,-2.0159,-1.5759,-1.1141,-0.641,0.2905,0.7925,0.8417,1.3701,1.518,1.3084,1.3097,1.3156,0.0,0.0,0.0,2.4531,2.4769,2.4996,2.4272,2.4573,2.4643,2.3378,2.3631,2.3624,2.2076,2.1793,2.1519,2.065,2.0495,2.0292,1.971,1.9642,1.9717,1.9982,0.0,0.0,0.0,0.0,0.0,0.0,1.6773,1.659,1.6675,1.6876,1.6765,1.6269,1.5944,1.5748,1.5671,1.5715,1.5715,1.5792,1.6069,1.62,1.62,1.6392,1.6577,1.6298,0.9663,0.3508,-0.2282,-0.93,-1.5513,-2.0569,-2.0714,-2.0777,-2.0693,-2.0561,-2.0475,-2.0388,-2.0339,-2.0304,-2.0304,-2.0304,-2.0304,-2.0304,-2.0304,-2.0527,-2.086,-2.1182,-2.1479,-2.1784,-2.218,-2.231,-2.2282,-2.2214,-2.2214,-2.2214,-2.2214,-2.231,-2.2366,-2.2225,-2.2366,-2.246,-2.2338,-2.2515,-2.2773,-2.306,-2.3301,-2.3481,-2.3481,-2.3463,-2.3371,-2.3133,-2.3324,-2.3481,-2.3504,-2.3177,-2.3111,-2.3481,-2.2915,-1.9757,-1.344,-1.2931,-0.6355,0.733,0.7874,1.1502,1.8584,1.8531,1.7994,1.7026,1.644,1.5365,2.4835,0.0,0.0,0.0,0.0,0.0,2.4431,2.5045,2.5396,2.4103,2.3991,2.3624,2.2076,2.1793,2.1609,2.0965,2.0813,2.0658,2.0311,2.0251,2.0192,1.9934,0.0,0.0,0.0,0.0,0.0,0.0,1.6897,1.674,1.6516,1.6509,1.6225,1.5611,1.5736,1.5659,1.5402,1.5582,1.5715,1.5715,1.5969,1.61,1.62,1.6362,1.6479,1.6398,1.3839,0.9444,0.3306,-0.7698,-1.3144,-1.5008,-1.9159,-2.0794,-2.0761,-2.0677,-2.0577,-2.046,-2.0388,-2.0339,-2.0304,-2.0304,-2.0304,-2.0304,-2.0304,-2.0373,-2.0494,-2.0844,-2.1166,-2.154,-2.2152,-2.231,-2.2282,-2.2282,-2.2254,-2.2254,-2.2254,-2.231,-2.2377,-2.2542,-2.246,-2.2422,-2.2569,-2.2487,-2.2515,-2.2773,-2.2694,-2.2773,-2.3157,-2.2859,-2.2747,-2.3084,-2.2985,-2.3077,-2.3481,-2.2857,-2.2634,-2.3182,-2.2652,-2.16,-2.0044,-1.0512,-0.3472,0.0456,1.0395,1.722,2.0735,2.0533,1.9591,1.8004,1.7543,1.7042,2.465,2.4835,2.4869,2.4039,0.0,0.0,2.3884,2.441,2.4717,2.3632,2.359,2.335,2.2034,2.1602,2.1348,2.0871,2.0691,2.0513,2.0307,2.0307,2.0162,1.9904,0.0,0.0,0.0,1.8542,1.8015,1.7412,1.7325,1.7051,1.652,1.6274,1.5932,1.5311,1.5501,1.5513,1.5312,1.5447,1.5582,1.5715,1.5836,1.6001,1.6144,1.6275,1.6362,1.6392,1.5457,1.3155,0.9128,-0.3446,-1.0046,-1.2757,-1.8538,-2.0794,-2.0794,-2.0711,-2.061,-2.0494,-2.0407,-2.0354,-2.0304,-2.0304,-2.0304,-2.0304,-2.0304,-2.0407,-2.0595,-2.0909,-2.1355,-2.1751,-2.202,-2.2077,-2.2049,-2.1915,-2.1991,-2.2077,-2.2077,-2.2209,-2.2338,-2.2515,-2.2422,-2.2366,-2.2515,-2.2405,-2.2377,-2.2659,-2.2569,-2.2579,-2.2884,-2.2659,-2.2525,-2.2747,-2.2721,-2.2773,-2.2933,-2.2351,-2.213,-2.2485,-2.2091,-1.942,-1.4058,-0.6277,0.0566,0.625,1.435,1.9515,2.1604,2.1435,2.1141,2.0716,1.9848,1.9376,2.4408,2.4694,2.4869,2.3771,2.3819,0.0,2.3183,2.3334,2.3413,2.2586,2.2865,2.2888,2.187,2.1299,2.0871,2.0701,2.041,2.0118,2.0003,1.994,1.9901,1.9695,0.0,0.0,1.9279,1.8566,1.8124,1.8205,1.7775,1.7219,1.6513,1.6179,1.5724,1.522,1.5266,1.5277,1.5267,1.5312,1.5402,1.5671,1.576,1.5881,1.6001,1.61,1.6275,1.6349,1.5355,1.496,1.4159,0.228,-0.603,-1.1867,-1.8316,-2.0794,-2.0794,-2.0744,-2.061,-2.0494,-2.0441,-2.0339,-2.0304,-2.0304,-2.0304,-2.0304,-2.0304,-2.0509,-2.0827,-2.1182,-2.1751,-2.218,-2.1915,-2.1827,-2.1721,-2.1462,-2.1601,-2.1827,-2.1857,-2.2077,-2.231,-2.231,-2.231,-2.231,-2.231,-2.231,-2.2394,-2.2605,-2.2659,-2.2659,-2.2659,-2.2659,-2.2552,-2.2338,-2.2515,-2.2561,-2.2292,-2.1903,-2.1681,-2.174,-2.1413,-1.5608,-0.3058,-0.2094,0.4226,1.7122,1.8347,1.978,2.1636,2.1758,2.2552,2.3981,2.2655,2.1957,2.4176,2.4292,2.4439,2.4204,2.4292,0.0,2.3957,2.4278,2.4313,2.2987,2.2734,2.2375,2.1193,2.0809,2.0716,2.0887,2.0527,2.008,1.9708,1.9656,1.95,1.9052,0.0,0.0,1.8762,1.8573,1.8401,1.8229,1.7412,1.6574,1.5759,1.5773,1.5433,1.4593,1.504,1.5232,1.5153,1.5267,1.5312,1.5402,1.5626,1.5748,1.5836,1.5957,1.6175,1.6349,1.5355,1.496,1.4473,0.6568,-0.0084,-0.6317,-1.6746,-2.0794,-2.0794,-2.0794,-2.0662,-2.0494,-2.0494,-2.0392,-2.0304,-2.0304,-2.0304,-2.0304,-2.0304,-2.0339,-2.0527,-2.1119,-2.1601,-2.1945,-2.2152,-2.1991,-2.1857,-2.2049,-2.1945,-2.1886,-2.2152,-2.2237,-2.231,-2.231,-2.231,-2.231,-2.231,-2.231,-2.231,-2.2366,-2.2394,-2.2394,-2.2394,-2.2394,-2.2366,-2.231,-2.2338,-2.2432,-2.2588,-2.1866,-2.1582,-2.2062,-2.1337,-1.7492,-0.9916,-0.4382,0.221,1.012,1.7326,2.1305,2.1927,2.2691,2.3372,2.4001,2.4189,2.3955,2.393,2.4234,2.4478,2.4234,2.4421,0.0,0.0,2.4148,2.392,2.3203,2.2571,2.1958,2.1512,2.1156,2.0849,2.0656,2.033,2.0014,1.976,1.9515,1.9186,1.8679,1.8518,0.0,1.8344,1.8506,1.8614,1.8614,1.7714,1.6824,1.595,1.5545,1.4994,1.4244,1.464,1.4869,1.488,1.5119,1.521,1.5312,1.548,1.5659,1.576,1.5836,1.6057,1.6231,1.5266,1.4903,1.4552,0.779,0.1617,-0.4444,-1.3107,-1.8268,-2.0794,-2.0794,-2.0662,-2.0494,-2.0494,-2.0392,-2.0304,-2.0304,-2.0304,-2.0304,-2.0304,-2.0527,-2.0828,-2.1007,-2.154,-2.202,-2.1857,-2.1691,-2.157,-2.154,-2.154,-2.1601,-2.1751,-2.2049,-2.231,-2.231,-2.231,-2.231,-2.231,-2.231,-2.231,-2.231,-2.231,-2.231,-2.231,-2.231,-2.231,-2.231,-2.231,-2.2293,-2.226,-2.1675,-2.1354,-2.1491,-2.1055,-1.6441,-0.6662,-0.3116,0.3467,1.3839,1.9017,2.1867,2.2445,2.4143,2.5136,2.5523,2.6135,2.6165,2.3551,2.4105,2.4593,2.4189,2.4421,2.4657,0.0,0.0,0.0,2.339,2.259,2.1934,2.2094,2.1629,0.0,2.0513,0.0,0.0,0.0,1.942,0.0,1.8573,1.8196,0.0,0.0,1.829,1.8614,1.8881,1.7975,1.7081,1.6311,1.5407,1.46,1.402,1.4331,1.4565,1.4708,1.4971,1.5153,1.5267,1.5424,1.5558,1.5671,1.5748,1.5925,1.6144,1.5119,1.4858,1.4677,0.8986,0.259,-0.4164,-0.9961,-1.5735,-2.0794,-2.0794,-2.0662,-2.0494,-2.0494,-2.0392,-2.0304,-2.0304,-2.0304,-2.0304,-2.0304,-2.0778,-2.1245,-2.0974,-2.157,-2.218,-2.1615,-2.1432,-2.1339,-2.1135,-2.1182,-2.1339,-2.1462,-2.1857,-2.2209,-2.2282,-2.231,-2.231,-2.231,-2.231,-2.231,-2.231,-2.2254,-2.2225,-2.2282,-2.2237,-2.2225,-2.2282,-2.231,-2.218,-2.1915,-2.1524,-2.1182,-2.0909,-2.0794,-1.474,-0.1437,0.1235,0.7963,1.9708,2.1133,2.2255,2.327,2.5703,2.6932,2.7057,2.7774,2.7925,2.2713,2.3446,2.4189,2.4131,2.4234,2.4337,2.4155,0.0,2.4415,2.3767,0.0,2.2698,2.2255,0.0,0.0,0.0,0.0,0.0,1.9608,1.9291,1.9043,1.9088,1.7588,0.0,0.0,1.7897,1.817,1.8614,1.7403,1.6535,1.6311,1.529,1.4521,1.4031,1.4655,1.4916,1.4708,1.4971,1.5108,1.5108,1.5379,1.5513,1.5513,1.5703,1.5925,1.6144,1.5119,1.4858,1.4994,1.3294,0.623,-0.4164,-0.9961,-1.5735,-2.0794,-2.0794,-2.0662,-2.0494,-2.0494,-2.0392,-2.0304,-2.0304,-2.0304,-2.0304,-2.0304,-2.0778,-2.1291,-2.1229,-2.1751,-2.2282,-2.2209,-2.1961,-2.1827,-2.2049,-2.1691,-2.1462,-2.2049,-2.202,-2.1945,-2.2237,-2.231,-2.231,-2.231,-2.231,-2.231,-2.231,-2.2049,-2.1945,-2.2254,-2.2049,-2.1991,-2.2282,-2.231,-2.2282,-2.2254,-2.1661,-2.1276,-2.1245,-2.0679,-1.4493,-0.1439,1.0144,1.7592,2.0438,2.1697,2.3067,2.4593,2.7078,2.7909,2.7206,2.8048,2.8305,1.4492,1.8567,2.287,2.3135,2.3551,2.3891,2.406,0.0,2.3329,0.0,0.0,0.0,0.0,0.0,0.0,0.0,2.0596,0.0,0.0,0.0,1.8216,0.0,0.0,0.0,0.0,0.0,0.0,0.0,1.7237,1.6598,1.6573,1.5398,1.4496,1.4073,1.4567,1.4779,1.4523,1.4743,1.4983,1.521,1.5424,1.5558,1.5614,1.5748,1.5925,1.6044,1.5119,1.4812,1.4915,1.3988,0.681,-0.3838,-0.6272,-1.2793,-2.0794,-2.0794,-2.0728,-2.061,-2.0527,-2.0441,-2.0354,-2.0304,-2.0304,-2.0304,-2.0304,-2.0628,-2.1007,-2.1007,-2.1479,-2.1961,-2.1751,-2.1631,-2.157,-2.1691,-2.1355,-2.1135,-2.1631,-2.1751,-2.1857,-2.1974,-2.218,-2.231,-2.231,-2.231,-2.231,-2.231,-2.218,-2.2152,-2.2282,-2.218,-2.2152,-2.2282,-2.231,-2.231,-2.231,-2.1691,-2.1308,-2.1308,-1.3595,-0.6615,-0.1144,1.1947,1.9749,2.1303,2.2207,2.3607,2.5631,2.7361,2.7953,2.7514,2.833,2.8452,0.5087,0.0,0.0,0.0,0.0,0.0,0.0,0.0,0.0,0.0,0.0,0.0,0.0,0.0,2.1131,2.102,0.0,2.0362,0.0,1.9008,0.0,0.0,0.0,0.0,0.0,0.0,0.0,1.8278,1.7123,1.6413,1.6369,1.5281,1.4518,1.4103,1.4689,1.4827,1.458,1.4717,1.4983,1.5267,1.5424,1.5558,1.5659,1.5748,1.5869,1.5944,1.5073,1.4801,1.4812,1.3941,0.7729,-0.1242,-0.1242,-0.8281,-1.8616,-2.0215,-2.0777,-2.0693,-2.0561,-2.0441,-2.0354,-2.0304,-2.0304,-2.0304,-2.0304,-2.0527,-2.0794,-2.0794,-2.1293,-2.1751,-2.1493,-2.1493,-2.1554,-2.1554,-2.1261,-2.1039,-2.137,-2.1462,-2.157,-2.1751,-2.1991,-2.218,-2.2282,-2.231,-2.231,-2.231,-2.2209,-2.218,-2.2282,-2.2209,-2.2209,-2.2282,-2.231,-2.231,-2.231,-2.1691,-2.1214,-2.1055,-0.8369,-0.0886,-0.0886,1.2171,2.0264,2.2057,2.2764,2.4288,2.6615,2.7493,2.7929,2.7919,2.858,2.8587,0.0,0.0,0.0,-0.2291,0.0,0.0,0.0,0.0,1.3394,0.0,0.0,0.0,2.2361,2.1677,2.1091,2.1091,2.0449,0.0,0.0,1.9547,1.981,0.0,0.0,0.0,0.0,0.0,0.0,1.8726,1.6875,1.5607,1.5344,1.4871,1.4449,1.4103,1.5137,1.5463,1.5083,1.5071,1.5108,1.5108,1.5379,1.5513,1.5513,1.5703,1.5869,1.5944,1.5073,1.4801,1.4812,1.3941,1.0073,0.4723,0.4723,-0.2338,-1.3156,-1.8729,-2.0777,-2.0693,-2.0561,-2.0392,-2.0304,-2.0304,-2.0304,-2.0304,-2.0304,-2.0527,-2.0794,-2.0794,-2.1293,-2.1797,-2.1797,-2.202,-2.2282,-2.2282,-2.1751,-2.137,-2.1721,-2.1293,-2.1007,-2.1661,-2.1827,-2.1915,-2.2237,-2.231,-2.231,-2.231,-2.202,-2.1915,-2.2254,-2.202,-2.1945,-2.2282,-2.231,-2.231,-2.231,-2.1691,-2.1023,-2.0357,-0.812,-0.0886,-0.0886,1.2171,2.0396,2.2546,2.3494,2.5196,2.7654,2.7765,2.8004,2.8396,2.8747,2.8704,0.0,0.0,-0.3562,-0.2817,0.0,0.0,0.0,0.0,0.0,0.0,0.0,0.0,0.0,0.4928,0.5306,0.6098,0.6,0.7492,0.0,1.6612,1.9389,1.9513,1.8977,1.8423,0.0,0.0,0.0,1.7334,1.602,1.5487,1.6115,1.522,1.4938,1.5592,1.5538,1.553,1.5626,1.5082,1.4983,1.521,1.5424,1.557,1.5614,1.5748,1.5836,1.5824,1.5334,1.496,1.4709,1.4212,1.0449,0.5009,0.5009,-0.2054,-1.2444,-1.4407,-1.7519,-2.0744,-2.0561,-2.0441,-2.0354,-2.0304,-2.0304,-2.0304,-2.0304,-2.0373,-2.0509,-2.0728,-2.0942,-2.1198,-2.1401,-2.1554,-2.1691,-2.1915,-2.1631,-2.1339,-2.1432,-2.1276,-2.1182,-2.1432,-2.1661,-2.1915,-2.2237,-2.231,-2.231,-2.231,-2.2209,-2.218,-2.2282,-2.2209,-2.218,-2.2282,-2.231,-2.231,-2.231,-2.1691,-2.1023,-2.0339,-0.8093,-0.0886,-0.0886,1.2171,2.0306,2.217,2.3168,2.4992,2.7632,2.8114,2.8164,2.7873,2.8201,2.7905,-2.0442,-1.6554,0.0,-1.1556,-1.1752,0.0,-0.7579,0.0,-0.7223,0.0,0.0,0.0,0.0,-0.3424,-0.2884,-0.1878,-0.1684,0.1005,0.0,1.3173,1.6765,1.9657,1.9324,1.8731,1.8424,1.7959,1.7477,1.7008,1.6116,1.571,0.0,0.0,1.5438,1.6277,1.5706,1.5635,1.613,1.5184,1.4891,1.521,1.5424,1.557,1.5614,1.5748,1.5792,1.5792,1.5447,1.5062,1.4652,1.4351,1.1769,0.8049,0.8049,0.1014,-0.9384,-1.1435,-1.5825,-2.0744,-2.0561,-2.0475,-2.0388,-2.0304,-2.0304,-2.0304,-2.0304,-2.0304,-2.0292,-2.0264,-2.0539,-2.0797,-2.0782,-2.1113,-2.1493,-2.1601,-2.1462,-2.1308,-2.1308,-2.1119,-2.1023,-2.1229,-2.1462,-2.1721,-2.2049,-2.2209,-2.231,-2.231,-2.231,-2.231,-2.231,-2.231,-2.231,-2.231,-2.231,-2.2209,-2.1945,-2.1554,-2.1023,-2.0339,-1.0272,-0.3294,-0.0996,0.9932,1.7731,2.1591,2.2614,2.4407,2.7049,2.7429,2.7565,2.7458,2.7779,2.7285]}]]